GEFSCGP_prec_meanprecacc_090.txt.gz
Total_Precipitation_Accumulation
0.09 0.15 0.19 0.22 0.31 0.39 0.35 0.26 0.16 0.12 0.11 0.09 0.06 0.06 0.08 0.06 0.04 0.05 0.06 0.05 0.05 0.05 0.06 0.09 0.12 0.15 0.17 0.17 0.19 0.23 0.29 0.32 0.34 0.42 0.53 0.62 0.72 0.90 1.11 1.17 1.22 1.35 1.36 1.39
0.13 0.12 0.15 0.22 0.29 0.28 0.19 0.10 0.05 0.04 0.04 0.03 0.02 0.03 0.05 0.06 0.06 0.05 0.05 0.05 0.04 0.05 0.04 0.05 0.07 0.10 0.11 0.10 0.12 0.17 0.26 0.35 0.41 0.47 0.62 0.77 0.99 1.11 1.25 1.40 1.39 1.41 1.46 1.48
0.12 0.11 0.13 0.16 0.18 0.16 0.11 0.06 0.04 0.03 0.02 0.03 0.02 0.02 0.04 0.06 0.07 0.08 0.07 0.07 0.06 0.04 0.04 0.04 0.04 0.06 0.09 0.08 0.10 0.17 0.31 0.50 0.70 0.82 1.05 1.33 1.58 1.66 1.58 1.57 1.61 1.59 1.63 1.68
0.23 0.15 0.10 0.12 0.10 0.07 0.06 0.03 0.02 0.02 0.02 0.02 0.01 0.02 0.04 0.10 0.14 0.15 0.14 0.13 0.11 0.11 0.09 0.07 0.08 0.08 0.09 0.12 0.20 0.36 0.61 0.91 1.16 1.32 1.51 1.72 1.83 1.87 1.80 1.81 1.79 1.77 1.68 1.60
0.19 0.12 0.07 0.06 0.05 0.04 0.06 0.03 0.02 0.01 0.01 0.00 0.00 0.02 0.07 0.16 0.24 0.27 0.28 0.27 0.25 0.24 0.18 0.19 0.21 0.22 0.28 0.39 0.57 0.86 1.12 1.37 1.52 1.58 1.68 1.88 2.03 2.19 2.20 2.08 1.93 1.81 1.76 1.68
0.15 0.09 0.07 0.05 0.05 0.05 0.06 0.05 0.04 0.03 0.02 0.01 0.01 0.05 0.16 0.26 0.31 0.36 0.38 0.34 0.32 0.30 0.29 0.35 0.45 0.55 0.70 0.82 1.00 1.20 1.35 1.50 1.51 1.52 1.58 1.71 1.90 2.06 2.08 2.09 2.05 1.92 1.77 1.66
0.09 0.06 0.05 0.04 0.04 0.03 0.05 0.08 0.07 0.05 0.05 0.05 0.06 0.18 0.27 0.26 0.27 0.33 0.36 0.35 0.34 0.34 0.41 0.57 0.72 0.86 0.98 1.09 1.19 1.22 1.22 1.27 1.30 1.32 1.36 1.44 1.50 1.53 1.59 1.70 1.62 1.48 1.35 1.30
0.03 0.02 0.03 0.02 0.02 0.01 0.02 0.05 0.10 0.09 0.08 0.11 0.15 0.36 0.40 0.31 0.25 0.25 0.27 0.33 0.43 0.57 0.68 0.77 0.88 0.97 1.01 1.14 1.20 1.16 1.13 1.12 1.06 1.00 1.05 1.07 1.11 1.17 1.20 1.22 1.17 1.09 1.04 1.00
0.02 0.01 0.01 0.01 0.01 0.01 0.01 0.03 0.10 0.18 0.14 0.13 0.20 0.44 0.44 0.29 0.23 0.22 0.24 0.32 0.48 0.70 0.94 1.08 1.08 0.99 0.90 0.94 1.02 1.01 0.97 0.92 0.84 0.78 0.82 0.85 0.92 0.94 0.93 0.91 0.86 0.84 0.78 0.78
0.02 0.01 0.00 0.00 0.00 0.01 0.02 0.05 0.13 0.23 0.22 0.23 0.31 0.47 0.43 0.32 0.28 0.25 0.30 0.40 0.58 0.80 1.00 1.24 1.38 1.27 1.00 0.80 0.82 0.79 0.76 0.80 0.79 0.75 0.77 0.77 0.70 0.64 0.66 0.69 0.63 0.62 0.66 0.70
0.00 0.00 0.00 0.00 0.01 0.01 0.04 0.10 0.16 0.20 0.23 0.34 0.56 0.70 0.60 0.49 0.44 0.43 0.47 0.54 0.61 0.88 1.17 1.31 1.36 1.23 1.05 0.78 0.69 0.68 0.66 0.70 0.76 0.70 0.72 0.71 0.61 0.49 0.47 0.47 0.45 0.45 0.48 0.54
0.00 0.00 0.00 0.01 0.04 0.06 0.11 0.19 0.27 0.35 0.39 0.41 0.54 0.65 0.53 0.55 0.61 0.56 0.60 0.70 0.72 0.78 0.83 0.85 0.96 0.97 0.91 0.78 0.71 0.75 0.80 0.79 0.71 0.65 0.62 0.58 0.51 0.44 0.43 0.41 0.38 0.39 0.44 0.46
0.00 0.00 0.00 0.01 0.06 0.11 0.26 0.35 0.28 0.37 0.46 0.47 0.58 0.66 0.47 0.49 0.59 0.59 0.66 0.74 0.76 0.71 0.60 0.53 0.64 0.78 0.73 0.66 0.70 0.77 0.91 0.91 0.82 0.70 0.60 0.56 0.52 0.49 0.47 0.42 0.41 0.41 0.47 0.58
0.00 0.00 0.00 0.02 0.08 0.21 0.50 0.61 0.40 0.42 0.54 0.45 0.47 0.52 0.44 0.45 0.52 0.57 0.63 0.68 0.66 0.57 0.47 0.41 0.40 0.42 0.41 0.44 0.47 0.59 0.84 1.03 1.01 0.90 0.77 0.68 0.61 0.54 0.48 0.44 0.43 0.42 0.45 0.51
0.00 0.00 0.00 0.01 0.04 0.13 0.34 0.41 0.31 0.28 0.28 0.31 0.31 0.35 0.44 0.52 0.54 0.55 0.56 0.49 0.39 0.32 0.28 0.24 0.20 0.20 0.22 0.27 0.34 0.45 0.72 0.91 0.93 0.92 0.80 0.66 0.55 0.45 0.43 0.46 0.49 0.46 0.41 0.43
0.00 0.00 0.00 0.00 0.01 0.04 0.08 0.06 0.07 0.08 0.14 0.21 0.26 0.36 0.44 0.46 0.45 0.47 0.47 0.34 0.24 0.20 0.18 0.18 0.16 0.14 0.11 0.11 0.16 0.27 0.46 0.62 0.68 0.74 0.70 0.54 0.48 0.43 0.39 0.42 0.48 0.49 0.39 0.37
0.00 0.00 0.00 0.00 0.00 0.01 0.01 0.02 0.08 0.12 0.13 0.17 0.28 0.41 0.48 0.49 0.55 0.84 0.86 0.54 0.30 0.25 0.22 0.22 0.22 0.19 0.17 0.14 0.14 0.17 0.24 0.33 0.40 0.44 0.45 0.36 0.34 0.41 0.42 0.45 0.44 0.38 0.31 0.34
0.00 0.00 0.00 0.00 0.01 0.02 0.02 0.02 0.09 0.12 0.13 0.13 0.16 0.19 0.24 0.35 0.50 0.67 0.75 0.60 0.40 0.36 0.28 0.24 0.20 0.18 0.15 0.12 0.12 0.13 0.15 0.18 0.20 0.20 0.17 0.14 0.21 0.30 0.32 0.30 0.28 0.23 0.23 0.28
0.00 0.00 0.00 0.01 0.09 0.11 0.02 0.02 0.04 0.06 0.06 0.04 0.05 0.06 0.08 0.12 0.13 0.15 0.20 0.23 0.20 0.16 0.12 0.08 0.05 0.04 0.03 0.03 0.03 0.03 0.02 0.02 0.02 0.02 0.02 0.04 0.05 0.06 0.06 0.06 0.07 0.11 0.15 0.19
0.00 0.00 0.00 0.00 0.03 0.04 0.01 0.00 0.01 0.03 0.06 0.01 0.01 0.01 0.02 0.05 0.08 0.07 0.14 0.09 0.03 0.01 0.01 0.00 0.00 0.00 0.00 0.00 0.00 0.00 0.00 0.00 0.00 0.00 0.00 0.00 0.01 0.01 0.01 0.01 0.01 0.03 0.06 0.09
0.00 0.00 0.00 0.00 0.00 0.00 0.00 0.00 0.00 0.02 0.03 0.00 0.00 0.00 0.00 0.01 0.01 0.02 0.09 0.07 0.00 0.00 0.00 0.00 0.00 0.00 0.00 0.00 0.00 0.00 0.00 0.00 0.00 0.00 0.00 0.00 0.00 0.01 0.01 0.02 0.01 0.00 0.01 0.02
0.00 0.00 0.00 0.00 0.00 0.00 0.00 0.00 0.00 0.00 0.00 0.00 0.00 0.00 0.00 0.00 0.00 0.01 0.04 0.05 0.00 0.00 0.00 0.00 0.00 0.00 0.00 0.00 0.00 0.00 0.00 0.00 0.00 0.00 0.00 0.00 0.01 0.01 0.01 0.02 0.01 0.01 0.00 0.01
0.00 0.00 0.00 0.00 0.00 0.00 0.00 0.00 0.00 0.00 0.00 0.00 0.00 0.00 0.00 0.00 0.00 0.00 0.02 0.06 0.01 0.00 0.00 0.00 0.00 0.00 0.00 0.00 0.00 0.00 0.00 0.00 0.00 0.00 0.01 0.00 0.00 0.01 0.00 0.01 0.01 0.01 0.01 0.01
0.00 0.00 0.00 0.00 0.00 0.00 0.00 0.00 0.00 0.00 0.00 0.00 0.00 0.00 0.00 0.00 0.00 0.00 0.01 0.04 0.02 0.00 0.00 0.00 0.00 0.00 0.00 0.00 0.00 0.00 0.00 0.00 0.00 0.00 0.00 0.00 0.00 0.01 0.00 0.01 0.00 0.01 0.01 0.01
0.00 0.00 0.00 0.00 0.00 0.00 0.00 0.00 0.00 0.00 0.00 0.00 0.00 0.00 0.00 0.00 0.00 0.00 0.00 0.01 0.01 0.00 0.00 0.00 0.00 0.00 0.00 0.00 0.00 0.00 0.00 0.00 0.00 0.00 0.00 0.00 0.00 0.01 0.01 0.01 0.00 0.00 0.00 0.01
0.00 0.00 0.00 0.00 0.00 0.00 0.00 0.00 0.00 0.00 0.00 0.00 0.00 0.00 0.00 0.00 0.00 0.00 0.00 0.00 0.00 0.00 0.00 0.00 0.00 0.00 0.00 0.00 0.00 0.00 0.00 0.00 0.00 0.00 0.00 0.00 0.00 0.01 0.01 0.01 0.01 0.00 0.01 0.01

GEFSCGP_prec_meanprecacc_096.txt.gz
Total_Precipitation_Accumulation
0.13 0.20 0.27 0.27 0.35 0.43 0.37 0.28 0.19 0.13 0.12 0.09 0.06 0.06 0.08 0.06 0.04 0.05 0.06 0.05 0.05 0.05 0.06 0.09 0.12 0.15 0.17 0.17 0.19 0.23 0.29 0.32 0.34 0.42 0.53 0.62 0.72 0.90 1.11 1.17 1.22 1.35 1.37 1.40
0.15 0.15 0.16 0.23 0.30 0.31 0.22 0.12 0.07 0.05 0.04 0.04 0.02 0.03 0.05 0.06 0.06 0.05 0.05 0.05 0.04 0.05 0.05 0.05 0.07 0.10 0.11 0.10 0.12 0.17 0.26 0.35 0.41 0.47 0.62 0.77 0.99 1.11 1.25 1.40 1.39 1.41 1.46 1.49
0.14 0.13 0.14 0.17 0.19 0.18 0.13 0.08 0.05 0.04 0.03 0.03 0.02 0.02 0.04 0.06 0.07 0.08 0.07 0.07 0.06 0.04 0.04 0.04 0.04 0.06 0.09 0.08 0.10 0.17 0.31 0.50 0.70 0.82 1.05 1.33 1.58 1.66 1.58 1.57 1.61 1.59 1.63 1.70
0.25 0.17 0.11 0.12 0.11 0.09 0.08 0.04 0.02 0.02 0.03 0.03 0.01 0.02 0.04 0.10 0.14 0.15 0.14 0.13 0.11 0.11 0.09 0.07 0.08 0.08 0.09 0.12 0.20 0.36 0.61 0.91 1.16 1.32 1.51 1.72 1.83 1.87 1.80 1.81 1.79 1.77 1.69 1.62
0.21 0.14 0.08 0.07 0.06 0.05 0.08 0.06 0.02 0.02 0.01 0.01 0.00 0.02 0.07 0.16 0.24 0.27 0.28 0.27 0.25 0.24 0.18 0.19 0.21 0.22 0.28 0.39 0.57 0.86 1.12 1.37 1.52 1.58 1.68 1.88 2.03 2.19 2.20 2.08 1.93 1.82 1.78 1.70
0.16 0.10 0.07 0.06 0.05 0.05 0.07 0.06 0.04 0.03 0.02 0.01 0.01 0.05 0.16 0.26 0.31 0.36 0.38 0.34 0.32 0.30 0.29 0.35 0.45 0.55 0.70 0.82 1.00 1.20 1.35 1.50 1.51 1.52 1.58 1.71 1.90 2.06 2.08 2.09 2.05 1.92 1.78 1.67
0.09 0.06 0.05 0.05 0.04 0.03 0.05 0.09 0.09 0.07 0.06 0.05 0.06 0.18 0.27 0.26 0.27 0.33 0.36 0.35 0.34 0.34 0.41 0.57 0.72 0.86 0.98 1.09 1.19 1.22 1.22 1.27 1.30 1.32 1.36 1.44 1.50 1.53 1.59 1.70 1.62 1.49 1.36 1.31
0.03 0.02 0.03 0.02 0.02 0.01 0.02 0.05 0.12 0.13 0.10 0.11 0.15 0.36 0.40 0.31 0.25 0.25 0.27 0.33 0.43 0.57 0.68 0.77 0.88 0.97 1.01 1.14 1.20 1.16 1.13 1.12 1.06 1.00 1.05 1.07 1.11 1.17 1.20 1.22 1.17 1.09 1.04 1.00
0.02 0.01 0.01 0.01 0.01 0.01 0.01 0.03 0.10 0.18 0.14 0.13 0.21 0.44 0.44 0.29 0.23 0.22 0.24 0.32 0.48 0.70 0.94 1.08 1.08 0.99 0.90 0.94 1.02 1.01 0.97 0.92 0.84 0.78 0.82 0.85 0.92 0.94 0.93 0.91 0.86 0.84 0.78 0.78
0.02 0.01 0.00 0.01 0.00 0.01 0.02 0.05 0.13 0.23 0.22 0.24 0.31 0.47 0.43 0.32 0.28 0.25 0.30 0.40 0.58 0.80 1.00 1.24 1.38 1.27 1.00 0.80 0.82 0.79 0.76 0.80 0.79 0.75 0.77 0.77 0.70 0.64 0.66 0.69 0.63 0.62 0.66 0.70
0.00 0.00 0.00 0.00 0.01 0.01 0.04 0.10 0.16 0.20 0.23 0.35 0.57 0.71 0.60 0.49 0.44 0.43 0.47 0.54 0.61 0.88 1.17 1.31 1.36 1.23 1.05 0.78 0.69 0.68 0.66 0.70 0.76 0.70 0.72 0.71 0.61 0.49 0.47 0.47 0.45 0.45 0.49 0.55
0.00 0.00 0.00 0.01 0.04 0.06 0.11 0.19 0.27 0.35 0.39 0.41 0.54 0.65 0.53 0.55 0.61 0.56 0.60 0.70 0.72 0.78 0.83 0.85 0.96 0.97 0.91 0.78 0.71 0.75 0.80 0.79 0.71 0.65 0.62 0.58 0.51 0.44 0.43 0.41 0.38 0.39 0.44 0.47
0.00 0.00 0.00 0.02 0.06 0.12 0.26 0.35 0.28 0.37 0.46 0.47 0.58 0.66 0.47 0.49 0.59 0.59 0.66 0.74 0.76 0.71 0.60 0.53 0.64 0.78 0.73 0.66 0.70 0.77 0.91 0.91 0.82 0.70 0.60 0.56 0.52 0.49 0.47 0.42 0.41 0.41 0.47 0.58
0.00 0.00 0.00 0.03 0.09 0.21 0.50 0.61 0.40 0.42 0.54 0.45 0.47 0.52 0.44 0.45 0.52 0.57 0.63 0.68 0.66 0.57 0.47 0.41 0.40 0.42 0.41 0.44 0.47 0.59 0.84 1.03 1.01 0.90 0.77 0.68 0.61 0.54 0.48 0.44 0.43 0.42 0.45 0.51
0.00 0.00 0.00 0.01 0.04 0.13 0.34 0.41 0.31 0.28 0.28 0.31 0.31 0.35 0.44 0.52 0.54 0.55 0.56 0.49 0.39 0.32 0.28 0.24 0.20 0.20 0.22 0.27 0.34 0.45 0.72 0.91 0.93 0.92 0.80 0.66 0.55 0.45 0.43 0.46 0.49 0.46 0.41 0.44
0.00 0.00 0.00 0.00 0.01 0.04 0.08 0.06 0.07 0.08 0.14 0.21 0.26 0.36 0.44 0.46 0.45 0.47 0.47 0.34 0.24 0.20 0.18 0.18 0.16 0.14 0.11 0.11 0.16 0.27 0.46 0.62 0.68 0.74 0.70 0.54 0.48 0.43 0.39 0.42 0.48 0.49 0.39 0.38
0.00 0.00 0.00 0.00 0.00 0.01 0.01 0.02 0.08 0.12 0.13 0.17 0.28 0.41 0.48 0.49 0.55 0.84 0.86 0.54 0.30 0.25 0.22 0.22 0.22 0.19 0.17 0.14 0.14 0.17 0.24 0.33 0.40 0.44 0.45 0.36 0.34 0.41 0.42 0.45 0.44 0.38 0.31 0.34
0.00 0.00 0.00 0.00 0.01 0.02 0.02 0.02 0.09 0.12 0.13 0.13 0.16 0.19 0.24 0.35 0.50 0.67 0.75 0.60 0.40 0.36 0.28 0.24 0.20 0.18 0.15 0.12 0.12 0.13 0.15 0.18 0.20 0.20 0.17 0.14 0.21 0.30 0.32 0.30 0.28 0.23 0.23 0.28
0.00 0.00 0.00 0.01 0.09 0.11 0.02 0.02 0.04 0.06 0.06 0.04 0.05 0.06 0.08 0.12 0.13 0.15 0.20 0.23 0.20 0.16 0.12 0.08 0.05 0.04 0.03 0.03 0.03 0.03 0.02 0.02 0.02 0.02 0.02 0.04 0.05 0.06 0.06 0.06 0.07 0.11 0.15 0.19
0.00 0.00 0.00 0.00 0.03 0.04 0.01 0.00 0.01 0.03 0.06 0.01 0.01 0.01 0.02 0.05 0.08 0.07 0.14 0.09 0.03 0.01 0.01 0.00 0.00 0.00 0.00 0.00 0.00 0.00 0.00 0.00 0.00 0.00 0.00 0.00 0.01 0.01 0.01 0.01 0.01 0.03 0.06 0.09
0.00 0.00 0.00 0.00 0.00 0.00 0.00 0.00 0.00 0.02 0.03 0.00 0.00 0.00 0.00 0.01 0.01 0.02 0.09 0.07 0.00 0.00 0.00 0.00 0.00 0.00 0.00 0.00 0.00 0.00 0.00 0.00 0.00 0.00 0.00 0.00 0.00 0.01 0.01 0.02 0.01 0.00 0.01 0.02
0.00 0.00 0.00 0.00 0.00 0.00 0.00 0.00 0.00 0.00 0.00 0.00 0.00 0.00 0.00 0.00 0.00 0.01 0.04 0.05 0.00 0.00 0.00 0.00 0.00 0.00 0.00 0.00 0.00 0.00 0.00 0.00 0.00 0.00 0.00 0.00 0.01 0.01 0.01 0.02 0.01 0.01 0.00 0.01
0.00 0.00 0.00 0.00 0.00 0.00 0.00 0.00 0.00 0.00 0.00 0.00 0.00 0.00 0.00 0.00 0.00 0.00 0.02 0.06 0.01 0.00 0.00 0.00 0.00 0.00 0.00 0.00 0.00 0.00 0.00 0.00 0.00 0.00 0.01 0.00 0.00 0.01 0.00 0.01 0.01 0.01 0.01 0.01
0.00 0.00 0.00 0.00 0.00 0.00 0.00 0.00 0.00 0.00 0.00 0.00 0.00 0.00 0.00 0.00 0.00 0.00 0.01 0.04 0.02 0.00 0.00 0.00 0.00 0.00 0.00 0.00 0.00 0.00 0.00 0.00 0.00 0.00 0.00 0.00 0.00 0.01 0.00 0.01 0.00 0.01 0.01 0.01
0.00 0.00 0.00 0.00 0.00 0.00 0.00 0.00 0.00 0.00 0.00 0.00 0.00 0.00 0.00 0.00 0.00 0.00 0.00 0.01 0.01 0.00 0.00 0.00 0.00 0.00 0.00 0.00 0.00 0.00 0.00 0.00 0.00 0.00 0.00 0.00 0.00 0.01 0.01 0.01 0.00 0.00 0.00 0.01
0.00 0.00 0.00 0.00 0.00 0.00 0.00 0.00 0.00 0.00 0.00 0.00 0.00 0.00 0.00 0.00 0.00 0.00 0.00 0.00 0.00 0.00 0.00 0.00 0.00 0.00 0.00 0.00 0.00 0.00 0.00 0.00 0.00 0.00 0.00 0.00 0.00 0.01 0.01 0.01 0.01 0.00 0.01 0.01

GEFSCGP_prec_meanprecacc_102.txt.gz
Total_Precipitation_Accumulation
0.22 0.34 0.39 0.36 0.43 0.51 0.43 0.34 0.25 0.17 0.15 0.13 0.09 0.07 0.08 0.07 0.05 0.06 0.06 0.05 0.05 0.06 0.07 0.09 0.12 0.15 0.17 0.17 0.19 0.23 0.29 0.32 0.34 0.42 0.53 0.62 0.72 0.90 1.11 1.17 1.22 1.35 1.37 1.40
0.23 0.22 0.21 0.27 0.37 0.40 0.30 0.17 0.12 0.09 0.06 0.05 0.03 0.03 0.05 0.06 0.06 0.06 0.05 0.05 0.05 0.05 0.05 0.05 0.07 0.10 0.11 0.10 0.12 0.17 0.26 0.35 0.41 0.47 0.62 0.77 0.99 1.11 1.25 1.40 1.39 1.41 1.46 1.49
0.16 0.16 0.18 0.22 0.26 0.25 0.20 0.12 0.08 0.07 0.04 0.04 0.03 0.03 0.04 0.06 0.07 0.08 0.08 0.07 0.06 0.05 0.05 0.04 0.04 0.06 0.09 0.08 0.10 0.17 0.31 0.50 0.70 0.82 1.05 1.33 1.58 1.66 1.58 1.57 1.61 1.59 1.63 1.70
0.27 0.18 0.14 0.17 0.16 0.14 0.13 0.07 0.04 0.03 0.03 0.04 0.02 0.03 0.04 0.10 0.14 0.15 0.14 0.13 0.11 0.11 0.10 0.08 0.08 0.08 0.09 0.12 0.20 0.36 0.61 0.91 1.16 1.32 1.51 1.72 1.83 1.87 1.80 1.81 1.79 1.77 1.69 1.62
0.25 0.16 0.11 0.11 0.10 0.07 0.10 0.07 0.03 0.02 0.01 0.01 0.01 0.02 0.08 0.16 0.24 0.27 0.28 0.27 0.25 0.25 0.19 0.19 0.21 0.22 0.28 0.39 0.57 0.86 1.12 1.37 1.52 1.58 1.68 1.88 2.03 2.19 2.20 2.08 1.93 1.82 1.78 1.70
0.19 0.12 0.10 0.09 0.07 0.06 0.08 0.06 0.04 0.03 0.02 0.02 0.01 0.05 0.16 0.26 0.31 0.36 0.38 0.34 0.32 0.30 0.29 0.35 0.45 0.55 0.70 0.82 1.00 1.20 1.35 1.50 1.51 1.52 1.58 1.71 1.90 2.06 2.08 2.09 2.05 1.92 1.78 1.67
0.10 0.07 0.06 0.06 0.06 0.04 0.05 0.09 0.09 0.07 0.07 0.06 0.07 0.19 0.27 0.26 0.27 0.33 0.36 0.35 0.34 0.34 0.41 0.57 0.72 0.86 0.98 1.09 1.19 1.22 1.22 1.27 1.30 1.32 1.36 1.44 1.50 1.53 1.59 1.70 1.62 1.49 1.36 1.31
0.04 0.03 0.03 0.02 0.03 0.02 0.02 0.05 0.13 0.15 0.11 0.12 0.15 0.36 0.40 0.31 0.26 0.25 0.27 0.33 0.43 0.57 0.68 0.77 0.88 0.97 1.01 1.14 1.20 1.16 1.13 1.12 1.06 1.00 1.05 1.07 1.11 1.17 1.20 1.22 1.17 1.09 1.04 1.00
0.02 0.01 0.01 0.01 0.01 0.01 0.01 0.03 0.10 0.19 0.14 0.13 0.21 0.45 0.45 0.29 0.23 0.22 0.24 0.32 0.48 0.70 0.94 1.08 1.08 0.99 0.90 0.94 1.02 1.01 0.97 0.92 0.84 0.78 0.82 0.85 0.92 0.94 0.93 0.91 0.86 0.84 0.78 0.78
0.02 0.01 0.00 0.01 0.00 0.01 0.02 0.05 0.13 0.23 0.22 0.24 0.31 0.48 0.44 0.32 0.28 0.25 0.30 0.40 0.58 0.80 1.00 1.24 1.38 1.27 1.00 0.80 0.82 0.79 0.76 0.80 0.79 0.75 0.77 0.77 0.70 0.64 0.66 0.69 0.63 0.62 0.66 0.70
0.01 0.00 0.00 0.00 0.01 0.02 0.04 0.10 0.16 0.20 0.23 0.35 0.57 0.71 0.60 0.50 0.44 0.43 0.47 0.54 0.61 0.88 1.17 1.31 1.36 1.23 1.05 0.78 0.69 0.68 0.66 0.70 0.76 0.70 0.72 0.71 0.61 0.49 0.47 0.47 0.45 0.45 0.49 0.55
0.00 0.00 0.00 0.01 0.04 0.06 0.11 0.19 0.27 0.35 0.39 0.41 0.54 0.66 0.53 0.55 0.61 0.56 0.60 0.70 0.72 0.78 0.83 0.85 0.96 0.97 0.91 0.78 0.71 0.75 0.80 0.79 0.71 0.65 0.62 0.58 0.51 0.44 0.43 0.41 0.38 0.39 0.44 0.47
0.00 0.00 0.00 0.02 0.07 0.12 0.27 0.35 0.28 0.37 0.46 0.47 0.58 0.66 0.47 0.49 0.59 0.59 0.66 0.74 0.76 0.71 0.60 0.53 0.64 0.78 0.73 0.66 0.70 0.77 0.91 0.91 0.82 0.70 0.60 0.56 0.52 0.49 0.47 0.42 0.41 0.41 0.47 0.58
0.00 0.00 0.00 0.03 0.09 0.22 0.50 0.61 0.40 0.42 0.54 0.45 0.47 0.52 0.44 0.45 0.52 0.57 0.63 0.68 0.66 0.57 0.47 0.41 0.40 0.42 0.41 0.44 0.47 0.59 0.84 1.03 1.01 0.90 0.77 0.68 0.61 0.54 0.48 0.44 0.43 0.42 0.45 0.51
0.00 0.00 0.00 0.01 0.04 0.13 0.34 0.41 0.31 0.28 0.28 0.31 0.32 0.35 0.45 0.52 0.54 0.55 0.56 0.49 0.39 0.32 0.28 0.24 0.20 0.20 0.22 0.27 0.34 0.45 0.72 0.91 0.93 0.92 0.80 0.66 0.55 0.45 0.43 0.46 0.49 0.46 0.41 0.44
0.00 0.00 0.00 0.00 0.01 0.04 0.08 0.06 0.07 0.08 0.14 0.21 0.26 0.36 0.44 0.46 0.45 0.47 0.47 0.34 0.24 0.20 0.18 0.18 0.16 0.14 0.11 0.11 0.16 0.27 0.46 0.62 0.68 0.74 0.70 0.54 0.48 0.43 0.39 0.42 0.48 0.49 0.39 0.38
0.00 0.00 0.00 0.00 0.00 0.01 0.01 0.02 0.08 0.12 0.13 0.17 0.28 0.41 0.48 0.49 0.55 0.84 0.86 0.54 0.30 0.25 0.22 0.22 0.22 0.19 0.17 0.14 0.14 0.17 0.24 0.33 0.40 0.44 0.45 0.36 0.34 0.41 0.42 0.45 0.44 0.38 0.31 0.34
0.00 0.00 0.00 0.00 0.01 0.02 0.02 0.02 0.09 0.12 0.13 0.13 0.16 0.19 0.24 0.35 0.50 0.67 0.75 0.60 0.40 0.36 0.28 0.24 0.20 0.18 0.15 0.12 0.12 0.13 0.15 0.18 0.20 0.20 0.17 0.14 0.21 0.30 0.32 0.30 0.28 0.23 0.23 0.28
0.00 0.00 0.00 0.01 0.09 0.11 0.02 0.02 0.04 0.06 0.06 0.04 0.05 0.06 0.08 0.12 0.13 0.15 0.20 0.23 0.20 0.16 0.12 0.08 0.05 0.04 0.03 0.03 0.03 0.03 0.02 0.02 0.02 0.02 0.02 0.04 0.05 0.06 0.06 0.06 0.07 0.11 0.15 0.19
0.00 0.00 0.00 0.00 0.03 0.04 0.01 0.00 0.01 0.03 0.06 0.01 0.01 0.01 0.02 0.05 0.08 0.07 0.14 0.09 0.03 0.01 0.01 0.00 0.00 0.00 0.00 0.00 0.00 0.00 0.00 0.00 0.00 0.00 0.00 0.00 0.01 0.01 0.01 0.01 0.01 0.03 0.06 0.09
0.00 0.00 0.00 0.00 0.00 0.00 0.00 0.00 0.00 0.02 0.03 0.00 0.00 0.00 0.00 0.01 0.01 0.02 0.09 0.07 0.00 0.00 0.00 0.00 0.00 0.00 0.00 0.00 0.00 0.00 0.00 0.00 0.00 0.00 0.00 0.00 0.00 0.01 0.01 0.02 0.01 0.00 0.01 0.02
0.00 0.00 0.00 0.00 0.00 0.00 0.00 0.00 0.00 0.00 0.00 0.00 0.00 0.00 0.00 0.00 0.00 0.01 0.04 0.05 0.00 0.00 0.00 0.00 0.00 0.00 0.00 0.00 0.00 0.00 0.00 0.00 0.00 0.00 0.00 0.00 0.01 0.01 0.01 0.02 0.01 0.01 0.00 0.01
0.00 0.00 0.00 0.00 0.00 0.00 0.00 0.00 0.00 0.00 0.00 0.00 0.00 0.00 0.00 0.00 0.00 0.00 0.02 0.06 0.01 0.00 0.00 0.00 0.00 0.00 0.00 0.00 0.00 0.00 0.00 0.00 0.00 0.00 0.01 0.00 0.00 0.01 0.00 0.01 0.01 0.01 0.01 0.01
0.00 0.00 0.00 0.00 0.00 0.00 0.00 0.00 0.00 0.00 0.00 0.00 0.00 0.00 0.00 0.00 0.00 0.00 0.01 0.04 0.02 0.00 0.00 0.00 0.00 0.00 0.00 0.00 0.00 0.00 0.00 0.00 0.00 0.00 0.00 0.00 0.00 0.01 0.00 0.01 0.00 0.01 0.01 0.01
0.00 0.00 0.00 0.00 0.00 0.00 0.00 0.00 0.00 0.00 0.00 0.00 0.00 0.00 0.00 0.00 0.00 0.00 0.00 0.01 0.01 0.00 0.00 0.00 0.00 0.00 0.00 0.00 0.00 0.00 0.00 0.00 0.00 0.00 0.00 0.00 0.00 0.01 0.01 0.01 0.00 0.00 0.00 0.01
0.00 0.00 0.00 0.00 0.00 0.00 0.00 0.00 0.00 0.00 0.00 0.00 0.00 0.00 0.00 0.00 0.00 0.00 0.00 0.00 0.00 0.00 0.00 0.00 0.00 0.00 0.00 0.00 0.00 0.00 0.00 0.00 0.00 0.00 0.00 0.00 0.00 0.01 0.01 0.01 0.01 0.00 0.01 0.01

GEFSCGP_prec_meanprecacc_108.txt.gz
Total_Precipitation_Accumulation
0.28 0.40 0.44 0.39 0.45 0.52 0.44 0.35 0.26 0.17 0.15 0.13 0.09 0.08 0.09 0.08 0.06 0.06 0.06 0.05 0.05 0.06 0.07 0.09 0.12 0.15 0.17 0.17 0.19 0.23 0.29 0.32 0.34 0.42 0.53 0.62 0.72 0.90 1.11 1.17 1.22 1.35 1.37 1.40
0.26 0.26 0.22 0.28 0.37 0.41 0.31 0.18 0.13 0.09 0.07 0.05 0.03 0.04 0.06 0.07 0.06 0.06 0.05 0.05 0.05 0.05 0.06 0.05 0.07 0.10 0.11 0.10 0.12 0.17 0.26 0.35 0.41 0.47 0.62 0.77 0.99 1.11 1.25 1.40 1.39 1.41 1.46 1.49
0.17 0.17 0.19 0.23 0.28 0.27 0.21 0.13 0.08 0.07 0.05 0.04 0.03 0.03 0.04 0.06 0.07 0.08 0.08 0.07 0.06 0.05 0.06 0.04 0.05 0.06 0.09 0.08 0.10 0.17 0.31 0.50 0.70 0.82 1.05 1.33 1.58 1.66 1.58 1.57 1.61 1.59 1.63 1.70
0.28 0.19 0.15 0.18 0.17 0.15 0.14 0.08 0.04 0.03 0.04 0.04 0.02 0.03 0.04 0.10 0.14 0.15 0.14 0.13 0.11 0.12 0.10 0.08 0.08 0.08 0.09 0.12 0.20 0.36 0.61 0.91 1.16 1.32 1.51 1.72 1.83 1.87 1.80 1.81 1.79 1.77 1.69 1.62
0.26 0.17 0.12 0.12 0.11 0.08 0.10 0.07 0.03 0.02 0.02 0.01 0.01 0.02 0.08 0.16 0.24 0.27 0.28 0.27 0.25 0.25 0.19 0.19 0.22 0.22 0.29 0.39 0.58 0.86 1.12 1.37 1.52 1.58 1.68 1.88 2.03 2.19 2.20 2.08 1.93 1.82 1.78 1.70
0.19 0.13 0.11 0.09 0.08 0.07 0.09 0.07 0.05 0.03 0.02 0.02 0.01 0.05 0.16 0.26 0.31 0.36 0.38 0.34 0.32 0.30 0.29 0.35 0.45 0.55 0.70 0.82 1.00 1.21 1.35 1.50 1.51 1.52 1.58 1.71 1.90 2.06 2.08 2.09 2.05 1.92 1.78 1.67
0.11 0.08 0.07 0.06 0.06 0.04 0.06 0.09 0.09 0.07 0.07 0.06 0.07 0.19 0.27 0.26 0.27 0.33 0.36 0.35 0.34 0.34 0.41 0.57 0.72 0.86 0.98 1.09 1.19 1.22 1.22 1.27 1.30 1.32 1.36 1.44 1.50 1.53 1.59 1.70 1.62 1.49 1.36 1.31
0.04 0.03 0.04 0.03 0.03 0.02 0.02 0.05 0.13 0.15 0.11 0.12 0.15 0.36 0.40 0.31 0.26 0.25 0.27 0.33 0.43 0.57 0.68 0.77 0.88 0.97 1.01 1.14 1.20 1.16 1.13 1.12 1.06 1.00 1.05 1.07 1.11 1.17 1.20 1.22 1.17 1.09 1.04 1.00
0.02 0.01 0.01 0.01 0.01 0.01 0.01 0.03 0.10 0.19 0.14 0.13 0.21 0.45 0.45 0.29 0.23 0.22 0.24 0.32 0.48 0.70 0.94 1.08 1.08 0.99 0.90 0.94 1.02 1.01 0.97 0.92 0.84 0.78 0.82 0.85 0.92 0.94 0.93 0.91 0.86 0.84 0.78 0.78
0.02 0.01 0.01 0.01 0.00 0.01 0.02 0.05 0.13 0.23 0.22 0.24 0.31 0.48 0.44 0.32 0.28 0.25 0.30 0.40 0.58 0.80 1.00 1.24 1.38 1.27 1.00 0.80 0.82 0.79 0.76 0.80 0.79 0.75 0.77 0.77 0.70 0.64 0.66 0.69 0.63 0.62 0.66 0.70
0.01 0.00 0.00 0.00 0.01 0.02 0.04 0.10 0.16 0.20 0.23 0.35 0.57 0.71 0.60 0.50 0.44 0.43 0.47 0.54 0.61 0.88 1.17 1.31 1.36 1.23 1.05 0.78 0.69 0.69 0.66 0.70 0.76 0.70 0.72 0.71 0.61 0.49 0.47 0.47 0.45 0.45 0.49 0.55
0.00 0.00 0.00 0.01 0.04 0.06 0.11 0.19 0.27 0.35 0.39 0.41 0.54 0.66 0.53 0.55 0.61 0.56 0.60 0.70 0.72 0.78 0.83 0.85 0.96 0.97 0.91 0.78 0.71 0.75 0.80 0.79 0.71 0.65 0.62 0.58 0.51 0.44 0.43 0.41 0.38 0.39 0.44 0.47
0.00 0.00 0.00 0.02 0.07 0.12 0.27 0.35 0.28 0.37 0.46 0.47 0.58 0.66 0.47 0.49 0.59 0.59 0.66 0.74 0.76 0.71 0.60 0.53 0.64 0.78 0.73 0.66 0.70 0.77 0.91 0.91 0.82 0.70 0.60 0.56 0.52 0.49 0.47 0.42 0.41 0.41 0.47 0.58
0.00 0.00 0.00 0.03 0.09 0.22 0.50 0.61 0.40 0.42 0.54 0.45 0.47 0.52 0.44 0.45 0.52 0.57 0.63 0.68 0.66 0.57 0.47 0.41 0.40 0.42 0.41 0.44 0.47 0.59 0.84 1.03 1.01 0.90 0.77 0.68 0.61 0.54 0.48 0.44 0.43 0.42 0.45 0.51
0.00 0.00 0.00 0.01 0.04 0.13 0.34 0.41 0.31 0.28 0.28 0.31 0.32 0.35 0.45 0.52 0.54 0.55 0.56 0.49 0.39 0.32 0.28 0.24 0.20 0.20 0.22 0.27 0.34 0.45 0.72 0.91 0.93 0.92 0.80 0.66 0.55 0.45 0.43 0.46 0.49 0.46 0.41 0.44
0.00 0.00 0.00 0.00 0.01 0.04 0.08 0.06 0.07 0.08 0.14 0.21 0.26 0.36 0.44 0.46 0.45 0.47 0.47 0.34 0.24 0.20 0.18 0.18 0.16 0.14 0.11 0.11 0.16 0.27 0.46 0.62 0.68 0.74 0.70 0.54 0.48 0.43 0.39 0.42 0.48 0.49 0.39 0.38
0.00 0.00 0.00 0.00 0.00 0.01 0.01 0.02 0.08 0.12 0.13 0.17 0.28 0.41 0.48 0.49 0.55 0.84 0.86 0.54 0.30 0.25 0.22 0.22 0.22 0.19 0.17 0.14 0.14 0.17 0.24 0.33 0.40 0.44 0.45 0.36 0.34 0.41 0.42 0.45 0.44 0.38 0.31 0.34
0.00 0.00 0.00 0.00 0.01 0.02 0.02 0.02 0.09 0.12 0.13 0.13 0.16 0.19 0.24 0.35 0.50 0.67 0.75 0.60 0.40 0.36 0.28 0.24 0.20 0.18 0.15 0.12 0.12 0.13 0.15 0.18 0.20 0.20 0.17 0.14 0.21 0.30 0.32 0.30 0.28 0.23 0.23 0.28
0.00 0.00 0.00 0.01 0.09 0.11 0.02 0.02 0.04 0.06 0.06 0.04 0.05 0.06 0.08 0.12 0.13 0.15 0.20 0.23 0.20 0.16 0.12 0.08 0.05 0.04 0.03 0.03 0.03 0.03 0.02 0.02 0.02 0.02 0.02 0.04 0.05 0.06 0.06 0.06 0.07 0.11 0.15 0.19
0.00 0.00 0.00 0.00 0.03 0.04 0.01 0.00 0.01 0.03 0.06 0.01 0.01 0.01 0.02 0.05 0.08 0.07 0.14 0.09 0.03 0.01 0.01 0.00 0.00 0.00 0.00 0.00 0.00 0.00 0.00 0.00 0.00 0.00 0.00 0.00 0.01 0.01 0.01 0.01 0.01 0.03 0.06 0.09
0.00 0.00 0.00 0.00 0.00 0.00 0.00 0.00 0.00 0.02 0.03 0.00 0.00 0.00 0.00 0.01 0.01 0.02 0.09 0.07 0.00 0.00 0.00 0.00 0.00 0.00 0.00 0.00 0.00 0.00 0.00 0.00 0.00 0.00 0.00 0.00 0.00 0.01 0.01 0.02 0.01 0.01 0.01 0.02
0.00 0.00 0.00 0.00 0.00 0.00 0.00 0.00 0.00 0.00 0.00 0.00 0.00 0.00 0.00 0.00 0.00 0.01 0.04 0.05 0.00 0.00 0.00 0.00 0.00 0.00 0.00 0.00 0.00 0.00 0.00 0.00 0.00 0.00 0.00 0.00 0.01 0.01 0.01 0.02 0.01 0.01 0.01 0.01
0.00 0.00 0.00 0.00 0.00 0.00 0.00 0.00 0.00 0.00 0.00 0.00 0.00 0.00 0.00 0.00 0.00 0.00 0.02 0.06 0.01 0.00 0.00 0.00 0.00 0.00 0.00 0.00 0.00 0.00 0.00 0.00 0.00 0.00 0.01 0.00 0.00 0.01 0.01 0.01 0.01 0.01 0.01 0.01
0.00 0.00 0.00 0.00 0.00 0.00 0.00 0.00 0.00 0.00 0.00 0.00 0.00 0.00 0.00 0.00 0.00 0.00 0.01 0.04 0.02 0.00 0.00 0.00 0.00 0.00 0.00 0.00 0.00 0.00 0.00 0.00 0.00 0.00 0.00 0.00 0.00 0.01 0.00 0.01 0.01 0.01 0.01 0.01
0.00 0.00 0.00 0.00 0.00 0.00 0.00 0.00 0.00 0.00 0.00 0.00 0.00 0.00 0.00 0.00 0.00 0.00 0.00 0.01 0.01 0.00 0.00 0.00 0.00 0.00 0.00 0.00 0.00 0.00 0.00 0.00 0.00 0.00 0.00 0.00 0.01 0.01 0.01 0.01 0.00 0.01 0.01 0.01
0.00 0.00 0.00 0.00 0.00 0.00 0.00 0.00 0.00 0.00 0.00 0.00 0.00 0.00 0.00 0.00 0.00 0.00 0.00 0.00 0.00 0.00 0.00 0.00 0.00 0.00 0.00 0.00 0.00 0.00 0.00 0.00 0.00 0.00 0.00 0.00 0.01 0.01 0.01 0.01 0.01 0.01 0.01 0.02

GEFSCGP_prec_meanprecacc_114.txt.gz
Total_Precipitation_Accumulation
0.31 0.44 0.48 0.40 0.46 0.53 0.45 0.36 0.27 0.18 0.16 0.14 0.11 0.11 0.14 0.11 0.07 0.07 0.07 0.05 0.05 0.06 0.07 0.09 0.12 0.15 0.17 0.17 0.19 0.23 0.29 0.32 0.34 0.42 0.53 0.62 0.72 0.90 1.11 1.17 1.22 1.35 1.37 1.40
0.28 0.28 0.23 0.29 0.38 0.41 0.32 0.19 0.14 0.10 0.07 0.06 0.05 0.08 0.10 0.08 0.07 0.06 0.05 0.05 0.05 0.05 0.06 0.05 0.07 0.10 0.11 0.10 0.12 0.17 0.26 0.35 0.41 0.48 0.62 0.77 0.99 1.11 1.25 1.40 1.39 1.41 1.46 1.49
0.18 0.18 0.19 0.24 0.29 0.27 0.21 0.13 0.09 0.07 0.05 0.05 0.04 0.05 0.06 0.07 0.07 0.08 0.08 0.07 0.06 0.05 0.06 0.04 0.05 0.06 0.09 0.08 0.10 0.17 0.31 0.50 0.71 0.82 1.05 1.33 1.58 1.66 1.58 1.57 1.61 1.59 1.63 1.70
0.29 0.20 0.15 0.19 0.19 0.16 0.15 0.08 0.05 0.04 0.04 0.04 0.02 0.03 0.05 0.10 0.14 0.15 0.14 0.13 0.11 0.12 0.10 0.08 0.09 0.08 0.10 0.12 0.21 0.36 0.61 0.91 1.16 1.32 1.51 1.72 1.83 1.87 1.80 1.81 1.79 1.77 1.69 1.62
0.27 0.18 0.12 0.12 0.11 0.09 0.11 0.08 0.04 0.02 0.02 0.01 0.01 0.02 0.08 0.16 0.24 0.27 0.28 0.27 0.25 0.25 0.19 0.19 0.22 0.23 0.29 0.39 0.58 0.86 1.12 1.37 1.53 1.58 1.68 1.88 2.03 2.19 2.20 2.08 1.93 1.82 1.78 1.70
0.21 0.14 0.11 0.10 0.09 0.08 0.10 0.08 0.05 0.03 0.02 0.02 0.01 0.05 0.16 0.26 0.31 0.36 0.38 0.34 0.32 0.30 0.29 0.35 0.45 0.55 0.70 0.82 1.00 1.21 1.35 1.50 1.51 1.52 1.58 1.71 1.90 2.06 2.08 2.09 2.05 1.92 1.78 1.67
0.13 0.10 0.08 0.07 0.07 0.05 0.07 0.10 0.10 0.08 0.07 0.06 0.07 0.19 0.27 0.26 0.27 0.33 0.36 0.35 0.34 0.34 0.41 0.57 0.72 0.86 0.98 1.09 1.19 1.22 1.22 1.27 1.30 1.32 1.36 1.44 1.50 1.53 1.59 1.70 1.62 1.49 1.36 1.31
0.05 0.04 0.04 0.03 0.03 0.02 0.03 0.05 0.13 0.16 0.11 0.12 0.15 0.36 0.40 0.31 0.26 0.25 0.27 0.33 0.43 0.57 0.68 0.77 0.88 0.97 1.01 1.14 1.20 1.16 1.13 1.12 1.06 1.00 1.05 1.07 1.11 1.17 1.20 1.22 1.17 1.09 1.04 1.00
0.03 0.02 0.02 0.02 0.01 0.01 0.01 0.03 0.10 0.19 0.14 0.13 0.21 0.45 0.45 0.29 0.23 0.22 0.24 0.32 0.48 0.70 0.94 1.08 1.08 0.99 0.90 0.94 1.02 1.01 0.97 0.92 0.84 0.79 0.82 0.85 0.92 0.94 0.93 0.91 0.86 0.84 0.78 0.78
0.02 0.01 0.01 0.01 0.01 0.01 0.02 0.05 0.13 0.23 0.22 0.24 0.31 0.48 0.44 0.32 0.28 0.25 0.30 0.40 0.58 0.80 1.00 1.24 1.38 1.27 1.00 0.80 0.82 0.79 0.77 0.80 0.79 0.75 0.77 0.77 0.70 0.64 0.66 0.69 0.63 0.62 0.66 0.70
0.01 0.01 0.00 0.00 0.01 0.02 0.04 0.10 0.16 0.20 0.23 0.35 0.57 0.71 0.60 0.50 0.44 0.43 0.47 0.54 0.61 0.88 1.17 1.31 1.36 1.23 1.05 0.78 0.69 0.69 0.66 0.70 0.77 0.70 0.72 0.71 0.61 0.49 0.47 0.47 0.45 0.45 0.49 0.55
0.00 0.00 0.00 0.01 0.04 0.06 0.11 0.19 0.27 0.35 0.39 0.41 0.54 0.66 0.53 0.55 0.61 0.56 0.60 0.70 0.72 0.78 0.83 0.85 0.96 0.97 0.91 0.78 0.71 0.75 0.80 0.79 0.72 0.65 0.62 0.58 0.51 0.44 0.43 0.41 0.38 0.39 0.44 0.47
0.00 0.00 0.00 0.02 0.07 0.12 0.27 0.35 0.28 0.37 0.46 0.47 0.58 0.66 0.47 0.49 0.59 0.59 0.66 0.74 0.76 0.71 0.60 0.53 0.64 0.78 0.73 0.66 0.70 0.77 0.91 0.91 0.82 0.70 0.60 0.56 0.52 0.49 0.47 0.42 0.41 0.41 0.47 0.58
0.00 0.00 0.00 0.03 0.09 0.22 0.50 0.61 0.40 0.42 0.54 0.45 0.47 0.52 0.44 0.45 0.52 0.57 0.63 0.68 0.66 0.57 0.47 0.41 0.40 0.42 0.41 0.44 0.47 0.59 0.84 1.03 1.01 0.90 0.77 0.68 0.61 0.54 0.48 0.44 0.43 0.42 0.45 0.51
0.00 0.00 0.00 0.01 0.04 0.13 0.34 0.41 0.31 0.28 0.28 0.31 0.32 0.35 0.45 0.52 0.54 0.55 0.56 0.49 0.39 0.32 0.28 0.24 0.20 0.20 0.22 0.27 0.34 0.45 0.72 0.91 0.93 0.92 0.80 0.66 0.55 0.45 0.43 0.46 0.49 0.46 0.41 0.44
0.00 0.00 0.00 0.00 0.01 0.04 0.08 0.06 0.07 0.08 0.14 0.21 0.26 0.36 0.44 0.46 0.45 0.47 0.47 0.34 0.24 0.20 0.18 0.18 0.16 0.14 0.11 0.11 0.16 0.27 0.46 0.62 0.68 0.74 0.70 0.54 0.48 0.43 0.39 0.42 0.48 0.49 0.39 0.38
0.00 0.00 0.00 0.00 0.00 0.01 0.01 0.02 0.08 0.12 0.13 0.17 0.28 0.41 0.48 0.49 0.55 0.84 0.86 0.54 0.30 0.25 0.22 0.22 0.22 0.19 0.17 0.14 0.14 0.17 0.24 0.33 0.40 0.45 0.45 0.36 0.34 0.41 0.42 0.45 0.44 0.38 0.31 0.34
0.00 0.00 0.00 0.00 0.01 0.02 0.02 0.02 0.09 0.12 0.13 0.13 0.16 0.19 0.24 0.35 0.50 0.67 0.75 0.60 0.40 0.36 0.28 0.24 0.20 0.18 0.15 0.12 0.12 0.13 0.15 0.18 0.20 0.20 0.17 0.14 0.21 0.30 0.32 0.30 0.28 0.23 0.23 0.28
0.00 0.00 0.00 0.01 0.09 0.11 0.02 0.02 0.04 0.06 0.06 0.04 0.05 0.06 0.08 0.12 0.13 0.15 0.20 0.23 0.20 0.16 0.12 0.08 0.05 0.04 0.03 0.03 0.03 0.03 0.02 0.02 0.02 0.02 0.02 0.04 0.05 0.06 0.06 0.06 0.07 0.11 0.15 0.20
0.00 0.00 0.00 0.00 0.03 0.04 0.01 0.00 0.01 0.03 0.06 0.01 0.01 0.01 0.02 0.05 0.08 0.07 0.14 0.09 0.03 0.01 0.01 0.00 0.00 0.00 0.00 0.00 0.00 0.00 0.00 0.00 0.00 0.00 0.00 0.00 0.01 0.01 0.01 0.01 0.01 0.03 0.06 0.09
0.00 0.00 0.00 0.00 0.00 0.00 0.00 0.00 0.00 0.02 0.03 0.00 0.00 0.00 0.00 0.01 0.01 0.02 0.09 0.07 0.00 0.00 0.00 0.00 0.00 0.00 0.00 0.00 0.00 0.00 0.00 0.00 0.00 0.00 0.00 0.00 0.01 0.01 0.01 0.02 0.01 0.01 0.01 0.02
0.00 0.00 0.00 0.00 0.00 0.00 0.00 0.00 0.00 0.00 0.00 0.00 0.00 0.00 0.00 0.00 0.00 0.01 0.04 0.05 0.00 0.00 0.00 0.00 0.00 0.00 0.00 0.00 0.00 0.00 0.00 0.00 0.00 0.00 0.00 0.00 0.01 0.01 0.01 0.03 0.02 0.01 0.01 0.01
0.00 0.00 0.00 0.00 0.00 0.00 0.00 0.00 0.00 0.00 0.00 0.00 0.00 0.00 0.00 0.00 0.00 0.00 0.02 0.06 0.01 0.00 0.00 0.00 0.00 0.00 0.00 0.00 0.00 0.00 0.00 0.00 0.00 0.00 0.01 0.00 0.00 0.01 0.01 0.01 0.01 0.01 0.01 0.01
0.00 0.00 0.00 0.00 0.00 0.00 0.00 0.00 0.00 0.00 0.00 0.00 0.00 0.00 0.00 0.00 0.00 0.00 0.01 0.04 0.02 0.00 0.00 0.00 0.00 0.00 0.00 0.00 0.00 0.00 0.00 0.00 0.00 0.00 0.00 0.00 0.00 0.01 0.01 0.01 0.01 0.01 0.01 0.02
0.00 0.00 0.00 0.00 0.00 0.00 0.00 0.00 0.00 0.00 0.00 0.00 0.00 0.00 0.00 0.00 0.00 0.00 0.00 0.01 0.01 0.00 0.00 0.00 0.00 0.00 0.00 0.00 0.00 0.00 0.00 0.00 0.00 0.00 0.00 0.00 0.01 0.01 0.01 0.01 0.01 0.01 0.01 0.02
0.00 0.00 0.00 0.00 0.00 0.00 0.00 0.00 0.00 0.00 0.00 0.00 0.00 0.00 0.00 0.00 0.00 0.00 0.00 0.00 0.00 0.00 0.00 0.00 0.00 0.00 0.00 0.00 0.00 0.00 0.00 0.00 0.00 0.00 0.00 0.00 0.01 0.01 0.01 0.02 0.02 0.01 0.02 0.02

GEFSCGP_prec_meanprecacc_120.txt.gz
Total_Precipitation_Accumulation
0.38 0.54 0.57 0.45 0.49 0.58 0.49 0.38 0.30 0.20 0.16 0.15 0.12 0.13 0.15 0.11 0.08 0.09 0.09 0.06 0.05 0.06 0.07 0.09 0.12 0.16 0.17 0.18 0.19 0.23 0.29 0.32 0.34 0.42 0.53 0.62 0.72 0.90 1.11 1.17 1.22 1.35 1.37 1.40
0.35 0.35 0.28 0.32 0.40 0.45 0.36 0.24 0.19 0.12 0.08 0.07 0.07 0.10 0.12 0.10 0.09 0.07 0.06 0.06 0.05 0.06 0.06 0.05 0.07 0.10 0.11 0.10 0.12 0.17 0.26 0.35 0.42 0.48 0.62 0.77 0.99 1.11 1.25 1.40 1.39 1.41 1.46 1.49
0.24 0.22 0.22 0.26 0.30 0.29 0.26 0.19 0.13 0.09 0.06 0.06 0.06 0.08 0.08 0.09 0.09 0.08 0.08 0.08 0.07 0.06 0.06 0.05 0.05 0.06 0.09 0.08 0.11 0.17 0.31 0.51 0.71 0.82 1.05 1.33 1.58 1.66 1.58 1.57 1.61 1.59 1.63 1.70
0.33 0.22 0.17 0.22 0.20 0.18 0.19 0.13 0.08 0.05 0.05 0.06 0.04 0.07 0.08 0.11 0.14 0.15 0.14 0.13 0.12 0.12 0.10 0.08 0.09 0.08 0.10 0.12 0.21 0.36 0.61 0.91 1.17 1.32 1.51 1.72 1.83 1.87 1.80 1.81 1.79 1.77 1.69 1.62
0.31 0.19 0.14 0.15 0.14 0.11 0.15 0.11 0.06 0.04 0.03 0.03 0.02 0.04 0.09 0.17 0.24 0.27 0.28 0.27 0.25 0.25 0.19 0.19 0.22 0.23 0.29 0.39 0.58 0.86 1.12 1.37 1.53 1.58 1.68 1.88 2.03 2.19 2.20 2.08 1.93 1.82 1.78 1.70
0.23 0.15 0.13 0.13 0.10 0.09 0.12 0.09 0.07 0.05 0.04 0.04 0.02 0.05 0.17 0.26 0.31 0.36 0.38 0.34 0.32 0.30 0.29 0.35 0.45 0.56 0.71 0.82 1.00 1.21 1.35 1.50 1.51 1.52 1.58 1.71 1.90 2.06 2.08 2.09 2.05 1.92 1.78 1.67
0.16 0.12 0.09 0.09 0.08 0.06 0.08 0.11 0.13 0.11 0.11 0.10 0.08 0.19 0.28 0.26 0.27 0.33 0.36 0.35 0.34 0.34 0.41 0.57 0.72 0.86 0.98 1.09 1.20 1.22 1.22 1.27 1.30 1.32 1.36 1.44 1.50 1.53 1.59 1.70 1.62 1.49 1.36 1.31
0.08 0.06 0.06 0.04 0.04 0.04 0.04 0.07 0.17 0.20 0.16 0.15 0.16 0.36 0.40 0.31 0.26 0.25 0.27 0.33 0.43 0.57 0.68 0.77 0.88 0.97 1.01 1.14 1.20 1.16 1.14 1.12 1.06 1.00 1.05 1.07 1.12 1.17 1.20 1.22 1.17 1.09 1.04 1.00
0.05 0.03 0.03 0.03 0.03 0.03 0.03 0.04 0.11 0.21 0.18 0.15 0.21 0.45 0.45 0.29 0.23 0.22 0.24 0.32 0.48 0.70 0.94 1.08 1.08 0.99 0.90 0.94 1.02 1.01 0.97 0.92 0.84 0.79 0.82 0.85 0.92 0.95 0.93 0.91 0.86 0.84 0.78 0.78
0.03 0.02 0.02 0.02 0.02 0.01 0.03 0.06 0.15 0.25 0.25 0.26 0.32 0.48 0.44 0.32 0.28 0.25 0.30 0.40 0.58 0.80 1.00 1.24 1.38 1.27 1.00 0.80 0.82 0.79 0.77 0.80 0.79 0.75 0.77 0.77 0.70 0.64 0.66 0.69 0.63 0.62 0.66 0.70
0.01 0.01 0.01 0.01 0.01 0.02 0.05 0.10 0.17 0.21 0.24 0.35 0.58 0.72 0.60 0.50 0.44 0.43 0.47 0.54 0.61 0.88 1.17 1.31 1.36 1.23 1.05 0.78 0.69 0.69 0.66 0.70 0.77 0.70 0.72 0.71 0.61 0.49 0.47 0.47 0.45 0.45 0.49 0.55
0.01 0.01 0.00 0.01 0.04 0.06 0.11 0.19 0.27 0.35 0.39 0.41 0.55 0.66 0.53 0.55 0.61 0.56 0.60 0.70 0.72 0.78 0.83 0.85 0.96 0.97 0.91 0.78 0.71 0.75 0.80 0.79 0.72 0.65 0.62 0.58 0.51 0.44 0.43 0.41 0.38 0.39 0.45 0.47
0.00 0.01 0.01 0.02 0.07 0.12 0.27 0.35 0.28 0.37 0.46 0.47 0.59 0.66 0.47 0.49 0.59 0.59 0.66 0.74 0.76 0.71 0.60 0.53 0.64 0.78 0.73 0.66 0.70 0.77 0.91 0.91 0.82 0.70 0.60 0.56 0.52 0.49 0.47 0.42 0.41 0.41 0.48 0.58
0.00 0.01 0.01 0.04 0.09 0.22 0.50 0.61 0.40 0.42 0.54 0.45 0.47 0.52 0.44 0.45 0.52 0.57 0.63 0.68 0.66 0.57 0.47 0.41 0.40 0.42 0.41 0.44 0.47 0.59 0.84 1.03 1.01 0.90 0.77 0.68 0.61 0.54 0.48 0.44 0.43 0.42 0.45 0.51
0.00 0.00 0.00 0.01 0.04 0.13 0.34 0.41 0.31 0.28 0.28 0.31 0.32 0.35 0.45 0.52 0.54 0.55 0.56 0.49 0.39 0.32 0.28 0.24 0.20 0.20 0.22 0.27 0.34 0.45 0.72 0.91 0.93 0.92 0.80 0.66 0.55 0.45 0.43 0.46 0.49 0.46 0.41 0.44
0.00 0.00 0.00 0.00 0.01 0.04 0.08 0.06 0.07 0.08 0.14 0.21 0.26 0.36 0.44 0.46 0.45 0.47 0.47 0.34 0.24 0.20 0.18 0.18 0.16 0.14 0.11 0.11 0.16 0.27 0.46 0.62 0.68 0.74 0.70 0.54 0.48 0.43 0.39 0.42 0.48 0.49 0.39 0.38
0.00 0.00 0.00 0.00 0.00 0.01 0.01 0.02 0.08 0.12 0.13 0.17 0.28 0.41 0.48 0.49 0.55 0.84 0.86 0.54 0.30 0.25 0.22 0.22 0.22 0.19 0.17 0.14 0.14 0.17 0.24 0.33 0.40 0.45 0.45 0.36 0.34 0.41 0.42 0.45 0.44 0.38 0.31 0.34
0.00 0.00 0.00 0.00 0.01 0.02 0.02 0.02 0.09 0.12 0.13 0.13 0.16 0.19 0.24 0.35 0.50 0.67 0.75 0.60 0.40 0.36 0.28 0.24 0.20 0.18 0.15 0.12 0.12 0.13 0.15 0.18 0.20 0.20 0.17 0.14 0.21 0.30 0.32 0.30 0.28 0.23 0.23 0.29
0.00 0.00 0.00 0.01 0.09 0.11 0.02 0.02 0.04 0.06 0.06 0.04 0.05 0.06 0.08 0.12 0.13 0.15 0.20 0.23 0.20 0.16 0.12 0.08 0.05 0.04 0.03 0.03 0.03 0.03 0.02 0.02 0.02 0.02 0.02 0.04 0.05 0.06 0.06 0.06 0.07 0.11 0.15 0.20
0.00 0.00 0.00 0.00 0.03 0.04 0.01 0.00 0.01 0.03 0.06 0.01 0.01 0.01 0.02 0.05 0.08 0.07 0.14 0.09 0.03 0.01 0.01 0.00 0.00 0.00 0.00 0.00 0.00 0.00 0.00 0.00 0.00 0.00 0.00 0.00 0.01 0.01 0.01 0.01 0.01 0.03 0.06 0.09
0.00 0.00 0.00 0.00 0.00 0.00 0.00 0.00 0.00 0.02 0.03 0.00 0.00 0.00 0.00 0.01 0.01 0.02 0.09 0.07 0.00 0.00 0.00 0.00 0.00 0.00 0.00 0.00 0.00 0.00 0.00 0.00 0.00 0.00 0.00 0.00 0.01 0.01 0.01 0.02 0.01 0.01 0.01 0.02
0.00 0.00 0.00 0.00 0.00 0.00 0.00 0.00 0.00 0.00 0.00 0.00 0.00 0.00 0.00 0.00 0.00 0.01 0.04 0.05 0.00 0.00 0.00 0.00 0.00 0.00 0.00 0.00 0.00 0.00 0.00 0.00 0.00 0.00 0.00 0.00 0.01 0.01 0.01 0.03 0.02 0.01 0.01 0.02
0.00 0.00 0.00 0.00 0.00 0.00 0.00 0.00 0.00 0.00 0.00 0.00 0.00 0.00 0.00 0.00 0.00 0.00 0.02 0.06 0.01 0.00 0.00 0.00 0.00 0.00 0.00 0.00 0.00 0.00 0.00 0.00 0.00 0.00 0.01 0.00 0.00 0.01 0.01 0.01 0.01 0.01 0.01 0.02
0.00 0.00 0.00 0.00 0.00 0.00 0.00 0.00 0.00 0.00 0.00 0.00 0.00 0.00 0.00 0.00 0.00 0.00 0.01 0.04 0.02 0.00 0.00 0.00 0.00 0.00 0.00 0.00 0.00 0.00 0.00 0.00 0.00 0.00 0.00 0.00 0.00 0.01 0.01 0.01 0.01 0.01 0.02 0.02
0.00 0.00 0.00 0.00 0.00 0.00 0.00 0.00 0.00 0.00 0.00 0.00 0.00 0.00 0.00 0.00 0.00 0.00 0.00 0.01 0.01 0.00 0.00 0.00 0.00 0.00 0.00 0.00 0.00 0.00 0.00 0.00 0.00 0.00 0.00 0.00 0.01 0.01 0.01 0.01 0.01 0.01 0.01 0.02
0.00 0.00 0.00 0.00 0.00 0.00 0.00 0.00 0.00 0.00 0.00 0.00 0.00 0.00 0.00 0.00 0.00 0.00 0.00 0.00 0.00 0.00 0.00 0.00 0.00 0.00 0.00 0.00 0.00 0.00 0.00 0.00 0.00 0.00 0.00 0.00 0.01 0.01 0.01 0.02 0.02 0.01 0.02 0.03

GEFSCGP_prec_meanprecacc_126.txt.gz
Total_Precipitation_Accumulation
0.44 0.64 0.65 0.53 0.59 0.66 0.56 0.45 0.36 0.25 0.20 0.17 0.14 0.16 0.17 0.13 0.11 0.11 0.10 0.07 0.07 0.07 0.08 0.10 0.13 0.16 0.17 0.18 0.19 0.24 0.29 0.32 0.34 0.42 0.53 0.62 0.72 0.90 1.11 1.17 1.22 1.35 1.37 1.40
0.42 0.43 0.35 0.39 0.49 0.56 0.46 0.32 0.25 0.17 0.11 0.09 0.10 0.14 0.15 0.13 0.11 0.09 0.07 0.07 0.06 0.07 0.07 0.06 0.09 0.11 0.11 0.10 0.12 0.18 0.26 0.36 0.42 0.48 0.62 0.77 1.00 1.11 1.25 1.40 1.39 1.41 1.46 1.49
0.29 0.27 0.27 0.34 0.42 0.45 0.38 0.29 0.20 0.13 0.09 0.10 0.10 0.13 0.14 0.13 0.13 0.10 0.09 0.09 0.08 0.08 0.07 0.05 0.06 0.07 0.09 0.08 0.11 0.17 0.31 0.51 0.72 0.82 1.05 1.33 1.58 1.66 1.58 1.57 1.61 1.59 1.63 1.70
0.39 0.27 0.25 0.33 0.34 0.31 0.30 0.19 0.13 0.09 0.09 0.11 0.09 0.13 0.13 0.15 0.18 0.18 0.16 0.13 0.12 0.13 0.11 0.09 0.09 0.09 0.10 0.12 0.21 0.37 0.61 0.92 1.17 1.32 1.51 1.72 1.83 1.87 1.80 1.81 1.79 1.77 1.69 1.62
0.39 0.26 0.23 0.26 0.23 0.19 0.22 0.16 0.11 0.09 0.08 0.09 0.07 0.10 0.15 0.21 0.27 0.29 0.29 0.27 0.25 0.25 0.19 0.20 0.22 0.23 0.30 0.40 0.59 0.87 1.13 1.37 1.53 1.58 1.68 1.88 2.03 2.19 2.20 2.08 1.93 1.82 1.78 1.70
0.30 0.22 0.21 0.21 0.18 0.14 0.16 0.14 0.13 0.12 0.09 0.11 0.09 0.09 0.20 0.28 0.32 0.36 0.38 0.34 0.32 0.30 0.30 0.36 0.46 0.57 0.72 0.83 1.01 1.21 1.36 1.50 1.51 1.52 1.58 1.71 1.90 2.06 2.08 2.09 2.05 1.92 1.78 1.67
0.23 0.18 0.16 0.16 0.15 0.10 0.11 0.16 0.20 0.21 0.20 0.18 0.12 0.21 0.29 0.27 0.27 0.33 0.36 0.35 0.34 0.34 0.42 0.57 0.72 0.86 0.98 1.09 1.20 1.23 1.22 1.27 1.30 1.32 1.36 1.44 1.50 1.53 1.59 1.70 1.62 1.49 1.36 1.31
0.15 0.13 0.11 0.10 0.08 0.07 0.08 0.11 0.22 0.28 0.24 0.22 0.19 0.38 0.41 0.31 0.26 0.25 0.27 0.33 0.43 0.57 0.68 0.77 0.88 0.97 1.01 1.14 1.21 1.16 1.14 1.12 1.06 1.00 1.05 1.07 1.12 1.17 1.20 1.22 1.17 1.09 1.04 1.01
0.10 0.08 0.06 0.06 0.06 0.07 0.06 0.07 0.15 0.25 0.23 0.21 0.25 0.45 0.45 0.30 0.23 0.22 0.24 0.32 0.48 0.70 0.94 1.08 1.08 0.99 0.90 0.94 1.02 1.01 0.97 0.92 0.84 0.79 0.82 0.85 0.92 0.95 0.93 0.91 0.86 0.84 0.78 0.78
0.09 0.06 0.04 0.06 0.06 0.05 0.05 0.09 0.17 0.29 0.30 0.30 0.34 0.48 0.44 0.32 0.28 0.25 0.30 0.40 0.58 0.80 1.00 1.24 1.38 1.27 1.00 0.80 0.82 0.79 0.77 0.80 0.79 0.75 0.77 0.77 0.70 0.65 0.66 0.69 0.63 0.62 0.67 0.71
0.06 0.05 0.03 0.03 0.03 0.03 0.06 0.12 0.19 0.26 0.28 0.38 0.59 0.72 0.60 0.50 0.44 0.43 0.47 0.54 0.61 0.88 1.17 1.31 1.36 1.23 1.05 0.78 0.69 0.69 0.66 0.70 0.77 0.70 0.72 0.71 0.61 0.49 0.47 0.47 0.45 0.45 0.49 0.55
0.03 0.05 0.03 0.03 0.05 0.07 0.12 0.19 0.28 0.38 0.41 0.42 0.55 0.67 0.53 0.55 0.61 0.56 0.60 0.70 0.72 0.78 0.83 0.85 0.96 0.97 0.91 0.78 0.71 0.75 0.80 0.79 0.72 0.65 0.62 0.58 0.51 0.44 0.43 0.41 0.38 0.40 0.45 0.47
0.02 0.04 0.04 0.04 0.08 0.13 0.27 0.35 0.29 0.38 0.47 0.47 0.59 0.66 0.47 0.49 0.59 0.59 0.66 0.74 0.76 0.71 0.60 0.53 0.64 0.78 0.73 0.66 0.70 0.77 0.91 0.91 0.82 0.70 0.60 0.56 0.52 0.49 0.47 0.42 0.41 0.41 0.48 0.59
0.01 0.03 0.02 0.04 0.10 0.22 0.50 0.61 0.41 0.43 0.55 0.46 0.47 0.52 0.44 0.45 0.52 0.57 0.63 0.68 0.66 0.57 0.47 0.41 0.40 0.42 0.41 0.44 0.47 0.59 0.84 1.03 1.01 0.90 0.77 0.68 0.61 0.54 0.48 0.44 0.43 0.42 0.45 0.51
0.00 0.01 0.01 0.02 0.05 0.14 0.34 0.41 0.31 0.29 0.28 0.31 0.32 0.35 0.45 0.52 0.54 0.55 0.56 0.49 0.39 0.32 0.28 0.24 0.20 0.20 0.22 0.27 0.34 0.45 0.72 0.91 0.93 0.92 0.80 0.66 0.55 0.45 0.43 0.46 0.49 0.46 0.41 0.44
0.00 0.00 0.00 0.01 0.02 0.04 0.08 0.07 0.07 0.08 0.14 0.21 0.26 0.36 0.44 0.46 0.45 0.47 0.47 0.34 0.24 0.20 0.18 0.18 0.16 0.14 0.11 0.11 0.16 0.27 0.46 0.62 0.68 0.74 0.70 0.54 0.48 0.43 0.39 0.42 0.48 0.49 0.39 0.38
0.00 0.00 0.00 0.00 0.01 0.01 0.01 0.02 0.08 0.12 0.13 0.17 0.28 0.41 0.48 0.49 0.55 0.84 0.86 0.54 0.30 0.25 0.22 0.22 0.22 0.19 0.17 0.14 0.14 0.17 0.24 0.33 0.40 0.45 0.45 0.36 0.34 0.41 0.42 0.45 0.44 0.38 0.31 0.34
0.00 0.00 0.00 0.00 0.01 0.02 0.02 0.02 0.09 0.13 0.13 0.13 0.16 0.19 0.24 0.35 0.50 0.67 0.75 0.60 0.40 0.36 0.28 0.24 0.20 0.18 0.15 0.12 0.12 0.13 0.15 0.18 0.20 0.20 0.17 0.14 0.21 0.30 0.32 0.30 0.28 0.23 0.23 0.29
0.00 0.00 0.00 0.01 0.09 0.11 0.02 0.02 0.04 0.06 0.06 0.04 0.05 0.06 0.08 0.12 0.13 0.15 0.20 0.23 0.20 0.16 0.12 0.08 0.05 0.04 0.03 0.03 0.03 0.03 0.02 0.02 0.02 0.02 0.02 0.04 0.05 0.06 0.06 0.06 0.07 0.11 0.15 0.20
0.00 0.00 0.00 0.00 0.03 0.04 0.01 0.00 0.01 0.03 0.06 0.01 0.01 0.01 0.02 0.05 0.08 0.07 0.14 0.09 0.03 0.01 0.01 0.00 0.00 0.00 0.00 0.00 0.00 0.00 0.00 0.00 0.00 0.00 0.00 0.00 0.01 0.01 0.01 0.01 0.01 0.03 0.06 0.09
0.00 0.00 0.00 0.00 0.00 0.00 0.00 0.00 0.00 0.02 0.03 0.00 0.00 0.00 0.00 0.01 0.01 0.02 0.09 0.07 0.00 0.00 0.00 0.00 0.00 0.00 0.00 0.00 0.00 0.00 0.00 0.00 0.00 0.00 0.00 0.00 0.01 0.01 0.01 0.02 0.01 0.01 0.01 0.02
0.00 0.00 0.00 0.00 0.00 0.00 0.00 0.00 0.00 0.00 0.00 0.00 0.00 0.00 0.00 0.00 0.00 0.01 0.04 0.05 0.00 0.00 0.00 0.00 0.00 0.00 0.00 0.00 0.00 0.00 0.00 0.00 0.00 0.00 0.00 0.00 0.01 0.01 0.01 0.03 0.02 0.01 0.01 0.02
0.00 0.00 0.00 0.00 0.00 0.00 0.00 0.00 0.00 0.00 0.00 0.00 0.00 0.00 0.00 0.00 0.00 0.00 0.02 0.06 0.01 0.00 0.00 0.00 0.00 0.00 0.00 0.00 0.00 0.00 0.00 0.00 0.00 0.00 0.01 0.00 0.00 0.01 0.01 0.01 0.01 0.01 0.01 0.02
0.00 0.00 0.00 0.00 0.00 0.00 0.00 0.00 0.00 0.00 0.00 0.00 0.00 0.00 0.00 0.00 0.00 0.00 0.01 0.04 0.02 0.00 0.00 0.00 0.00 0.00 0.00 0.00 0.00 0.00 0.00 0.00 0.00 0.00 0.00 0.00 0.00 0.01 0.01 0.01 0.01 0.01 0.02 0.02
0.00 0.00 0.00 0.00 0.00 0.00 0.00 0.00 0.00 0.00 0.00 0.00 0.00 0.00 0.00 0.00 0.00 0.00 0.00 0.01 0.01 0.00 0.00 0.00 0.00 0.00 0.00 0.00 0.00 0.00 0.00 0.00 0.00 0.00 0.00 0.00 0.01 0.01 0.01 0.01 0.01 0.01 0.01 0.02
0.00 0.00 0.00 0.00 0.00 0.00 0.00 0.00 0.00 0.00 0.00 0.00 0.00 0.00 0.00 0.00 0.00 0.00 0.00 0.00 0.00 0.00 0.00 0.00 0.00 0.00 0.00 0.00 0.00 0.00 0.00 0.00 0.00 0.00 0.00 0.00 0.01 0.01 0.01 0.02 0.02 0.01 0.02 0.03

GEFSCGP_prec_meanprecacc_132.txt.gz
Total_Precipitation_Accumulation
0.49 0.69 0.70 0.59 0.67 0.74 0.63 0.51 0.43 0.31 0.24 0.20 0.17 0.19 0.20 0.17 0.15 0.13 0.11 0.09 0.08 0.09 0.09 0.11 0.14 0.16 0.18 0.18 0.19 0.24 0.29 0.32 0.34 0.42 0.53 0.62 0.72 0.90 1.11 1.17 1.22 1.35 1.37 1.40
0.48 0.49 0.40 0.45 0.55 0.64 0.55 0.41 0.33 0.22 0.14 0.12 0.13 0.17 0.18 0.15 0.13 0.11 0.09 0.07 0.07 0.08 0.08 0.07 0.09 0.11 0.12 0.10 0.12 0.18 0.27 0.36 0.42 0.48 0.62 0.77 1.00 1.11 1.25 1.40 1.39 1.41 1.46 1.49
0.35 0.33 0.33 0.39 0.49 0.53 0.48 0.38 0.26 0.17 0.12 0.13 0.14 0.17 0.17 0.16 0.14 0.13 0.11 0.10 0.09 0.09 0.08 0.06 0.06 0.07 0.09 0.08 0.11 0.17 0.32 0.51 0.72 0.82 1.05 1.33 1.58 1.66 1.58 1.57 1.61 1.59 1.63 1.70
0.44 0.32 0.32 0.39 0.41 0.38 0.39 0.27 0.18 0.13 0.12 0.14 0.11 0.16 0.15 0.17 0.19 0.19 0.17 0.14 0.13 0.14 0.12 0.09 0.10 0.09 0.10 0.12 0.22 0.38 0.62 0.92 1.17 1.32 1.52 1.72 1.83 1.87 1.80 1.81 1.79 1.77 1.69 1.62
0.44 0.32 0.30 0.33 0.30 0.27 0.30 0.22 0.17 0.15 0.12 0.11 0.09 0.12 0.16 0.22 0.28 0.29 0.29 0.28 0.26 0.26 0.20 0.20 0.22 0.23 0.30 0.40 0.59 0.88 1.13 1.38 1.53 1.58 1.68 1.88 2.03 2.19 2.20 2.08 1.93 1.82 1.78 1.70
0.35 0.28 0.29 0.30 0.26 0.23 0.25 0.21 0.20 0.18 0.14 0.15 0.11 0.10 0.21 0.28 0.33 0.37 0.38 0.34 0.32 0.31 0.30 0.36 0.46 0.57 0.72 0.83 1.01 1.22 1.36 1.51 1.51 1.52 1.58 1.71 1.90 2.06 2.08 2.09 2.05 1.92 1.78 1.67
0.30 0.26 0.25 0.26 0.24 0.21 0.22 0.24 0.28 0.27 0.26 0.22 0.14 0.22 0.30 0.27 0.27 0.33 0.36 0.35 0.35 0.34 0.42 0.57 0.72 0.86 0.98 1.09 1.20 1.23 1.23 1.28 1.30 1.32 1.36 1.44 1.50 1.53 1.59 1.70 1.62 1.49 1.36 1.31
0.21 0.22 0.19 0.17 0.15 0.16 0.17 0.16 0.26 0.32 0.28 0.25 0.21 0.39 0.41 0.31 0.26 0.26 0.27 0.33 0.43 0.57 0.68 0.78 0.88 0.97 1.01 1.14 1.21 1.16 1.14 1.13 1.06 1.00 1.05 1.07 1.12 1.17 1.20 1.22 1.17 1.09 1.04 1.01
0.16 0.16 0.13 0.12 0.12 0.13 0.11 0.11 0.17 0.26 0.25 0.23 0.27 0.46 0.45 0.30 0.24 0.23 0.25 0.32 0.48 0.70 0.94 1.08 1.08 0.99 0.90 0.94 1.02 1.01 0.97 0.92 0.84 0.79 0.82 0.85 0.92 0.95 0.93 0.91 0.86 0.84 0.78 0.78
0.14 0.12 0.11 0.12 0.11 0.09 0.09 0.11 0.18 0.30 0.31 0.32 0.35 0.48 0.44 0.32 0.28 0.26 0.31 0.40 0.58 0.80 1.00 1.24 1.38 1.27 1.00 0.80 0.82 0.79 0.77 0.80 0.79 0.75 0.77 0.77 0.70 0.65 0.66 0.69 0.63 0.62 0.67 0.71
0.10 0.09 0.09 0.08 0.07 0.06 0.08 0.14 0.20 0.26 0.28 0.38 0.60 0.72 0.60 0.50 0.44 0.43 0.48 0.54 0.61 0.88 1.17 1.31 1.36 1.23 1.05 0.78 0.69 0.69 0.66 0.70 0.77 0.70 0.72 0.71 0.61 0.49 0.47 0.47 0.45 0.45 0.49 0.55
0.06 0.08 0.06 0.05 0.07 0.09 0.14 0.21 0.29 0.39 0.42 0.42 0.56 0.67 0.53 0.55 0.61 0.56 0.61 0.70 0.72 0.78 0.83 0.85 0.96 0.97 0.91 0.78 0.71 0.75 0.80 0.79 0.72 0.65 0.62 0.58 0.51 0.44 0.43 0.41 0.38 0.40 0.45 0.47
0.04 0.07 0.07 0.06 0.10 0.14 0.28 0.36 0.29 0.38 0.47 0.47 0.59 0.66 0.47 0.49 0.59 0.59 0.66 0.74 0.76 0.71 0.60 0.53 0.64 0.78 0.73 0.66 0.70 0.77 0.91 0.91 0.82 0.70 0.60 0.56 0.52 0.49 0.47 0.42 0.41 0.41 0.48 0.59
0.02 0.05 0.04 0.05 0.10 0.22 0.50 0.61 0.41 0.43 0.55 0.46 0.47 0.52 0.44 0.45 0.52 0.57 0.64 0.68 0.66 0.57 0.47 0.41 0.40 0.42 0.41 0.44 0.47 0.59 0.84 1.03 1.01 0.90 0.77 0.68 0.61 0.54 0.48 0.44 0.43 0.42 0.45 0.51
0.01 0.02 0.03 0.03 0.05 0.14 0.34 0.41 0.31 0.29 0.28 0.32 0.32 0.35 0.45 0.52 0.54 0.55 0.56 0.49 0.39 0.32 0.28 0.24 0.20 0.20 0.22 0.27 0.34 0.45 0.72 0.91 0.93 0.92 0.80 0.66 0.55 0.45 0.43 0.46 0.49 0.46 0.41 0.44
0.01 0.01 0.01 0.02 0.02 0.04 0.08 0.07 0.07 0.08 0.14 0.21 0.26 0.36 0.44 0.46 0.45 0.47 0.47 0.34 0.24 0.20 0.18 0.18 0.16 0.14 0.11 0.11 0.16 0.27 0.46 0.62 0.68 0.74 0.70 0.54 0.48 0.43 0.39 0.42 0.48 0.49 0.39 0.38
0.01 0.01 0.01 0.01 0.01 0.01 0.01 0.02 0.08 0.12 0.13 0.17 0.28 0.41 0.48 0.49 0.55 0.84 0.86 0.54 0.30 0.25 0.22 0.22 0.22 0.19 0.17 0.14 0.14 0.17 0.24 0.33 0.40 0.45 0.45 0.36 0.34 0.41 0.42 0.45 0.44 0.38 0.31 0.34
0.00 0.00 0.01 0.01 0.01 0.03 0.03 0.02 0.09 0.13 0.13 0.13 0.16 0.19 0.24 0.35 0.50 0.67 0.75 0.60 0.40 0.36 0.28 0.24 0.20 0.18 0.15 0.12 0.12 0.13 0.15 0.18 0.20 0.20 0.17 0.14 0.21 0.30 0.32 0.30 0.28 0.23 0.23 0.29
0.00 0.00 0.01 0.01 0.09 0.11 0.02 0.02 0.04 0.06 0.06 0.04 0.05 0.06 0.08 0.12 0.13 0.15 0.20 0.23 0.20 0.16 0.12 0.08 0.05 0.04 0.03 0.03 0.03 0.03 0.02 0.02 0.02 0.02 0.02 0.04 0.05 0.06 0.06 0.06 0.07 0.11 0.15 0.20
0.00 0.00 0.00 0.00 0.03 0.04 0.01 0.00 0.01 0.03 0.06 0.01 0.01 0.01 0.02 0.05 0.08 0.07 0.14 0.09 0.03 0.01 0.01 0.00 0.00 0.00 0.00 0.00 0.00 0.00 0.00 0.00 0.00 0.00 0.00 0.00 0.01 0.01 0.01 0.01 0.01 0.03 0.06 0.09
0.00 0.00 0.00 0.00 0.00 0.00 0.00 0.00 0.00 0.02 0.03 0.00 0.00 0.00 0.00 0.01 0.01 0.02 0.09 0.07 0.00 0.00 0.00 0.00 0.00 0.00 0.00 0.00 0.00 0.00 0.00 0.00 0.00 0.00 0.00 0.00 0.01 0.01 0.01 0.02 0.01 0.01 0.01 0.02
0.00 0.00 0.00 0.00 0.00 0.00 0.00 0.00 0.00 0.00 0.00 0.00 0.00 0.00 0.00 0.00 0.00 0.01 0.04 0.05 0.00 0.00 0.00 0.00 0.00 0.00 0.00 0.00 0.00 0.00 0.00 0.00 0.00 0.00 0.00 0.00 0.01 0.01 0.01 0.03 0.02 0.01 0.01 0.02
0.00 0.00 0.00 0.00 0.00 0.00 0.00 0.00 0.00 0.00 0.00 0.00 0.00 0.00 0.00 0.00 0.00 0.00 0.02 0.06 0.01 0.00 0.00 0.00 0.00 0.00 0.00 0.00 0.00 0.00 0.00 0.00 0.00 0.00 0.01 0.00 0.00 0.01 0.01 0.01 0.01 0.01 0.01 0.02
0.00 0.00 0.00 0.00 0.00 0.00 0.00 0.00 0.00 0.00 0.00 0.00 0.00 0.00 0.00 0.00 0.00 0.00 0.01 0.04 0.02 0.00 0.00 0.00 0.00 0.00 0.00 0.00 0.00 0.00 0.00 0.00 0.00 0.00 0.00 0.00 0.00 0.01 0.01 0.01 0.01 0.01 0.02 0.02
0.00 0.00 0.00 0.00 0.00 0.00 0.00 0.00 0.00 0.00 0.00 0.00 0.00 0.00 0.00 0.00 0.00 0.00 0.00 0.01 0.01 0.00 0.00 0.00 0.00 0.00 0.00 0.00 0.00 0.00 0.00 0.00 0.00 0.00 0.00 0.00 0.01 0.01 0.01 0.01 0.01 0.01 0.01 0.02
0.00 0.00 0.00 0.00 0.00 0.00 0.00 0.00 0.00 0.00 0.00 0.00 0.00 0.00 0.00 0.00 0.00 0.00 0.00 0.00 0.00 0.00 0.00 0.00 0.00 0.00 0.00 0.00 0.00 0.00 0.00 0.00 0.00 0.00 0.00 0.00 0.01 0.01 0.01 0.02 0.02 0.01 0.02 0.03

GEFSCGP_prec_meanprecacc_138.txt.gz
Total_Precipitation_Accumulation
0.53 0.75 0.77 0.65 0.76 0.83 0.71 0.62 0.55 0.42 0.33 0.28 0.24 0.25 0.25 0.22 0.18 0.15 0.13 0.10 0.09 0.09 0.10 0.11 0.14 0.17 0.18 0.18 0.19 0.24 0.29 0.32 0.34 0.42 0.53 0.62 0.72 0.90 1.11 1.17 1.22 1.35 1.37 1.40
0.52 0.54 0.46 0.52 0.63 0.73 0.67 0.51 0.44 0.33 0.23 0.20 0.19 0.23 0.23 0.19 0.17 0.13 0.10 0.08 0.07 0.08 0.08 0.07 0.09 0.12 0.12 0.10 0.12 0.18 0.27 0.36 0.42 0.48 0.62 0.77 1.00 1.11 1.25 1.40 1.39 1.41 1.46 1.49
0.39 0.36 0.37 0.45 0.58 0.63 0.61 0.47 0.34 0.27 0.21 0.19 0.18 0.22 0.21 0.19 0.17 0.15 0.12 0.10 0.09 0.09 0.08 0.06 0.07 0.08 0.10 0.09 0.11 0.18 0.32 0.51 0.72 0.82 1.05 1.33 1.58 1.66 1.58 1.57 1.61 1.59 1.63 1.70
0.47 0.35 0.36 0.45 0.48 0.48 0.51 0.35 0.25 0.22 0.19 0.20 0.14 0.20 0.18 0.19 0.21 0.20 0.18 0.15 0.14 0.14 0.12 0.10 0.10 0.10 0.10 0.12 0.22 0.38 0.62 0.92 1.17 1.32 1.52 1.72 1.83 1.87 1.80 1.81 1.79 1.77 1.69 1.62
0.47 0.35 0.34 0.38 0.37 0.34 0.39 0.30 0.25 0.24 0.18 0.16 0.11 0.14 0.18 0.23 0.29 0.29 0.30 0.29 0.27 0.26 0.20 0.21 0.23 0.24 0.30 0.40 0.59 0.88 1.13 1.38 1.53 1.58 1.68 1.88 2.03 2.19 2.20 2.08 1.93 1.82 1.78 1.70
0.37 0.31 0.33 0.36 0.31 0.28 0.31 0.30 0.30 0.26 0.21 0.21 0.15 0.12 0.22 0.28 0.33 0.37 0.39 0.35 0.32 0.31 0.31 0.36 0.47 0.58 0.72 0.83 1.01 1.22 1.37 1.51 1.51 1.52 1.58 1.71 1.90 2.06 2.08 2.09 2.05 1.92 1.78 1.67
0.34 0.30 0.29 0.31 0.31 0.29 0.30 0.33 0.39 0.36 0.32 0.27 0.17 0.24 0.30 0.27 0.27 0.33 0.36 0.35 0.35 0.35 0.42 0.58 0.73 0.87 0.98 1.09 1.20 1.23 1.23 1.28 1.30 1.32 1.36 1.44 1.50 1.53 1.59 1.70 1.62 1.49 1.36 1.31
0.24 0.27 0.24 0.22 0.22 0.24 0.25 0.23 0.32 0.37 0.32 0.28 0.22 0.40 0.41 0.31 0.26 0.26 0.27 0.33 0.44 0.58 0.68 0.78 0.89 0.97 1.01 1.14 1.21 1.16 1.14 1.13 1.06 1.00 1.05 1.07 1.12 1.17 1.20 1.22 1.17 1.09 1.04 1.01
0.18 0.20 0.17 0.17 0.17 0.20 0.19 0.18 0.20 0.28 0.26 0.25 0.28 0.46 0.45 0.30 0.24 0.23 0.25 0.33 0.48 0.70 0.94 1.09 1.08 0.99 0.90 0.94 1.02 1.01 0.97 0.92 0.84 0.79 0.82 0.85 0.92 0.95 0.93 0.91 0.86 0.84 0.78 0.78
0.16 0.16 0.15 0.17 0.18 0.17 0.14 0.16 0.21 0.31 0.33 0.33 0.36 0.49 0.44 0.33 0.28 0.26 0.31 0.40 0.59 0.80 1.00 1.25 1.38 1.27 1.00 0.80 0.82 0.79 0.77 0.80 0.79 0.75 0.77 0.77 0.70 0.65 0.66 0.69 0.63 0.62 0.67 0.71
0.12 0.13 0.14 0.14 0.14 0.12 0.13 0.17 0.22 0.28 0.29 0.39 0.61 0.72 0.60 0.50 0.44 0.43 0.48 0.54 0.61 0.89 1.17 1.31 1.36 1.23 1.05 0.78 0.69 0.69 0.66 0.70 0.77 0.70 0.72 0.71 0.61 0.49 0.47 0.47 0.45 0.45 0.49 0.55
0.08 0.12 0.12 0.11 0.12 0.13 0.17 0.23 0.30 0.40 0.43 0.42 0.56 0.67 0.53 0.55 0.61 0.56 0.61 0.70 0.72 0.78 0.83 0.85 0.96 0.97 0.91 0.78 0.71 0.75 0.80 0.79 0.72 0.65 0.62 0.58 0.51 0.44 0.43 0.41 0.38 0.40 0.45 0.47
0.06 0.11 0.12 0.12 0.15 0.17 0.30 0.37 0.30 0.39 0.48 0.48 0.60 0.67 0.47 0.49 0.59 0.60 0.67 0.74 0.76 0.71 0.60 0.53 0.64 0.78 0.73 0.66 0.70 0.77 0.91 0.91 0.82 0.70 0.60 0.56 0.52 0.49 0.47 0.42 0.41 0.41 0.48 0.59
0.04 0.08 0.08 0.09 0.13 0.24 0.52 0.62 0.42 0.44 0.56 0.46 0.47 0.52 0.44 0.45 0.52 0.57 0.64 0.69 0.67 0.57 0.47 0.41 0.40 0.42 0.41 0.44 0.47 0.59 0.84 1.03 1.01 0.90 0.77 0.68 0.61 0.54 0.48 0.44 0.43 0.42 0.45 0.51
0.03 0.04 0.04 0.05 0.07 0.15 0.35 0.42 0.32 0.29 0.28 0.32 0.32 0.35 0.45 0.52 0.54 0.55 0.57 0.49 0.40 0.33 0.28 0.24 0.20 0.20 0.22 0.27 0.34 0.45 0.72 0.91 0.93 0.92 0.80 0.66 0.55 0.45 0.43 0.46 0.49 0.46 0.41 0.44
0.01 0.01 0.02 0.03 0.03 0.05 0.09 0.07 0.07 0.09 0.14 0.21 0.26 0.36 0.44 0.46 0.45 0.47 0.47 0.34 0.25 0.21 0.19 0.18 0.16 0.14 0.11 0.11 0.16 0.27 0.46 0.62 0.68 0.74 0.70 0.54 0.48 0.43 0.39 0.42 0.48 0.49 0.39 0.38
0.01 0.01 0.02 0.02 0.02 0.02 0.02 0.02 0.08 0.12 0.14 0.17 0.28 0.42 0.48 0.49 0.55 0.84 0.86 0.54 0.31 0.25 0.22 0.22 0.22 0.19 0.17 0.14 0.14 0.17 0.24 0.33 0.40 0.45 0.45 0.36 0.34 0.41 0.42 0.45 0.44 0.38 0.31 0.34
0.01 0.01 0.02 0.02 0.02 0.03 0.03 0.02 0.09 0.13 0.13 0.13 0.16 0.19 0.24 0.35 0.50 0.67 0.75 0.60 0.40 0.36 0.28 0.24 0.20 0.18 0.15 0.12 0.12 0.13 0.15 0.18 0.20 0.20 0.17 0.14 0.21 0.30 0.32 0.30 0.28 0.23 0.23 0.29
0.01 0.01 0.02 0.02 0.10 0.12 0.02 0.02 0.04 0.06 0.06 0.04 0.05 0.06 0.08 0.12 0.13 0.15 0.20 0.23 0.20 0.16 0.12 0.08 0.05 0.04 0.03 0.03 0.03 0.03 0.02 0.02 0.02 0.02 0.02 0.04 0.05 0.06 0.06 0.06 0.07 0.11 0.15 0.20
0.01 0.01 0.01 0.01 0.04 0.05 0.01 0.00 0.01 0.03 0.06 0.01 0.01 0.01 0.02 0.05 0.09 0.07 0.14 0.09 0.03 0.01 0.01 0.00 0.00 0.00 0.00 0.00 0.00 0.00 0.00 0.00 0.00 0.00 0.00 0.00 0.01 0.01 0.01 0.01 0.01 0.03 0.06 0.09
0.01 0.01 0.00 0.00 0.01 0.01 0.00 0.00 0.00 0.02 0.03 0.00 0.00 0.00 0.00 0.01 0.01 0.02 0.09 0.07 0.00 0.00 0.00 0.00 0.00 0.00 0.00 0.00 0.00 0.00 0.00 0.00 0.00 0.00 0.00 0.00 0.01 0.01 0.01 0.02 0.01 0.01 0.01 0.02
0.00 0.01 0.00 0.00 0.00 0.00 0.00 0.00 0.00 0.00 0.00 0.00 0.00 0.00 0.00 0.00 0.00 0.01 0.04 0.05 0.00 0.00 0.00 0.00 0.00 0.00 0.00 0.00 0.00 0.00 0.00 0.00 0.00 0.00 0.00 0.00 0.01 0.01 0.01 0.03 0.02 0.01 0.01 0.02
0.00 0.00 0.00 0.00 0.00 0.00 0.00 0.00 0.00 0.00 0.00 0.00 0.00 0.00 0.00 0.00 0.00 0.00 0.02 0.06 0.01 0.00 0.00 0.00 0.00 0.00 0.00 0.00 0.00 0.00 0.00 0.00 0.00 0.00 0.01 0.00 0.00 0.01 0.01 0.01 0.01 0.01 0.01 0.02
0.00 0.00 0.00 0.00 0.00 0.00 0.00 0.00 0.00 0.00 0.00 0.00 0.00 0.00 0.00 0.00 0.00 0.00 0.01 0.04 0.02 0.00 0.00 0.00 0.00 0.00 0.00 0.00 0.00 0.00 0.00 0.00 0.00 0.00 0.00 0.00 0.00 0.01 0.01 0.01 0.01 0.01 0.02 0.02
0.00 0.00 0.00 0.00 0.00 0.00 0.00 0.00 0.00 0.00 0.00 0.00 0.00 0.00 0.00 0.00 0.00 0.00 0.00 0.01 0.01 0.00 0.00 0.00 0.00 0.00 0.00 0.00 0.00 0.00 0.00 0.00 0.00 0.00 0.00 0.00 0.01 0.01 0.01 0.01 0.01 0.01 0.01 0.02
0.00 0.00 0.00 0.00 0.00 0.00 0.00 0.00 0.00 0.00 0.00 0.00 0.00 0.00 0.00 0.00 0.00 0.00 0.00 0.00 0.00 0.00 0.00 0.00 0.00 0.00 0.00 0.00 0.00 0.00 0.00 0.00 0.00 0.00 0.00 0.00 0.01 0.01 0.01 0.02 0.02 0.01 0.02 0.03

GEFSCGP_prec_meanprecacc_144.txt.gz
Total_Precipitation_Accumulation
0.55 0.78 0.80 0.69 0.79 0.87 0.77 0.71 0.65 0.52 0.42 0.38 0.33 0.33 0.33 0.29 0.23 0.20 0.16 0.12 0.10 0.10 0.11 0.12 0.14 0.17 0.18 0.18 0.19 0.24 0.29 0.32 0.34 0.42 0.53 0.62 0.72 0.90 1.11 1.17 1.22 1.35 1.37 1.40
0.57 0.59 0.48 0.54 0.65 0.75 0.71 0.59 0.55 0.44 0.34 0.30 0.30 0.30 0.30 0.25 0.22 0.17 0.13 0.10 0.08 0.09 0.09 0.08 0.09 0.12 0.12 0.10 0.12 0.18 0.27 0.36 0.42 0.48 0.62 0.77 1.00 1.11 1.25 1.40 1.39 1.41 1.46 1.49
0.45 0.40 0.39 0.47 0.60 0.67 0.68 0.56 0.42 0.36 0.31 0.29 0.28 0.33 0.31 0.26 0.21 0.18 0.14 0.11 0.10 0.09 0.09 0.07 0.07 0.08 0.10 0.09 0.11 0.18 0.32 0.51 0.72 0.82 1.05 1.33 1.58 1.66 1.58 1.57 1.61 1.59 1.63 1.70
0.52 0.38 0.38 0.48 0.52 0.54 0.62 0.43 0.31 0.29 0.29 0.31 0.24 0.32 0.27 0.25 0.25 0.22 0.19 0.16 0.14 0.14 0.12 0.10 0.11 0.10 0.10 0.13 0.22 0.38 0.62 0.92 1.17 1.32 1.52 1.72 1.83 1.87 1.80 1.81 1.79 1.77 1.69 1.62
0.53 0.39 0.38 0.43 0.42 0.40 0.47 0.36 0.30 0.30 0.28 0.25 0.19 0.23 0.23 0.26 0.31 0.31 0.31 0.29 0.27 0.26 0.20 0.21 0.23 0.24 0.30 0.40 0.59 0.88 1.14 1.38 1.53 1.58 1.68 1.88 2.03 2.19 2.20 2.08 1.93 1.82 1.78 1.70
0.42 0.35 0.36 0.40 0.36 0.33 0.36 0.37 0.37 0.34 0.32 0.33 0.22 0.19 0.27 0.30 0.34 0.38 0.40 0.35 0.33 0.31 0.31 0.36 0.47 0.58 0.73 0.83 1.01 1.22 1.37 1.51 1.51 1.52 1.58 1.71 1.90 2.06 2.08 2.09 2.05 1.92 1.78 1.67
0.40 0.36 0.32 0.32 0.33 0.33 0.35 0.41 0.49 0.49 0.46 0.38 0.23 0.30 0.34 0.28 0.28 0.35 0.37 0.36 0.35 0.35 0.42 0.58 0.73 0.87 0.99 1.10 1.20 1.23 1.23 1.28 1.30 1.32 1.36 1.44 1.50 1.53 1.59 1.70 1.62 1.49 1.36 1.31
0.31 0.34 0.28 0.23 0.23 0.27 0.29 0.30 0.41 0.46 0.40 0.35 0.28 0.44 0.43 0.32 0.27 0.26 0.28 0.34 0.44 0.58 0.68 0.78 0.89 0.98 1.02 1.15 1.21 1.16 1.14 1.13 1.06 1.00 1.05 1.07 1.12 1.17 1.20 1.22 1.17 1.09 1.04 1.01
0.23 0.27 0.21 0.19 0.19 0.21 0.22 0.21 0.25 0.35 0.32 0.32 0.32 0.48 0.46 0.30 0.24 0.24 0.25 0.33 0.48 0.70 0.94 1.09 1.09 1.00 0.91 0.95 1.02 1.01 0.97 0.93 0.84 0.79 0.82 0.85 0.92 0.95 0.93 0.91 0.86 0.84 0.78 0.78
0.19 0.23 0.22 0.20 0.20 0.19 0.17 0.18 0.24 0.37 0.40 0.40 0.39 0.50 0.44 0.33 0.28 0.26 0.31 0.40 0.59 0.81 1.00 1.25 1.39 1.28 1.01 0.81 0.82 0.79 0.77 0.80 0.79 0.75 0.77 0.77 0.70 0.65 0.66 0.69 0.63 0.62 0.67 0.71
0.13 0.19 0.21 0.19 0.17 0.16 0.16 0.19 0.25 0.32 0.32 0.43 0.65 0.74 0.60 0.50 0.44 0.43 0.48 0.54 0.61 0.89 1.18 1.31 1.37 1.24 1.06 0.79 0.70 0.69 0.66 0.70 0.77 0.70 0.72 0.71 0.61 0.49 0.47 0.47 0.45 0.45 0.49 0.55
0.10 0.17 0.18 0.15 0.14 0.14 0.19 0.24 0.32 0.45 0.46 0.44 0.58 0.69 0.53 0.55 0.62 0.56 0.61 0.70 0.73 0.78 0.83 0.85 0.97 0.98 0.92 0.78 0.71 0.76 0.80 0.79 0.72 0.65 0.62 0.58 0.51 0.44 0.43 0.41 0.38 0.40 0.45 0.47
0.07 0.14 0.18 0.17 0.18 0.19 0.32 0.39 0.31 0.40 0.51 0.50 0.61 0.68 0.48 0.50 0.59 0.60 0.68 0.75 0.77 0.72 0.60 0.54 0.64 0.79 0.74 0.67 0.70 0.77 0.91 0.91 0.82 0.70 0.60 0.56 0.52 0.49 0.47 0.42 0.41 0.41 0.48 0.59
0.05 0.11 0.13 0.15 0.18 0.27 0.54 0.64 0.43 0.45 0.58 0.47 0.48 0.52 0.44 0.45 0.53 0.57 0.65 0.70 0.67 0.57 0.47 0.42 0.41 0.42 0.42 0.44 0.48 0.59 0.84 1.03 1.01 0.90 0.77 0.68 0.61 0.54 0.48 0.44 0.43 0.42 0.45 0.51
0.03 0.06 0.07 0.07 0.09 0.16 0.36 0.42 0.33 0.30 0.29 0.33 0.32 0.36 0.45 0.53 0.55 0.56 0.57 0.50 0.41 0.34 0.29 0.24 0.20 0.21 0.23 0.27 0.34 0.45 0.72 0.91 0.93 0.92 0.80 0.66 0.55 0.45 0.43 0.46 0.49 0.46 0.41 0.44
0.02 0.03 0.04 0.05 0.05 0.06 0.10 0.08 0.07 0.09 0.15 0.22 0.27 0.36 0.44 0.46 0.45 0.48 0.47 0.35 0.27 0.22 0.20 0.18 0.16 0.14 0.11 0.11 0.16 0.27 0.46 0.62 0.68 0.74 0.70 0.54 0.48 0.43 0.39 0.42 0.48 0.49 0.39 0.38
0.02 0.02 0.04 0.05 0.04 0.04 0.04 0.03 0.08 0.12 0.14 0.18 0.29 0.42 0.48 0.49 0.55 0.84 0.86 0.55 0.32 0.26 0.23 0.23 0.22 0.20 0.17 0.14 0.14 0.17 0.24 0.33 0.40 0.45 0.45 0.36 0.34 0.41 0.42 0.45 0.44 0.38 0.31 0.34
0.02 0.02 0.05 0.06 0.06 0.08 0.05 0.03 0.09 0.13 0.13 0.13 0.16 0.19 0.24 0.35 0.50 0.67 0.75 0.60 0.40 0.36 0.29 0.25 0.21 0.18 0.15 0.12 0.12 0.13 0.15 0.18 0.20 0.20 0.17 0.14 0.21 0.30 0.32 0.30 0.28 0.23 0.23 0.29
0.01 0.03 0.05 0.06 0.15 0.14 0.03 0.02 0.05 0.07 0.06 0.04 0.05 0.06 0.08 0.12 0.13 0.15 0.20 0.24 0.21 0.16 0.13 0.08 0.06 0.04 0.03 0.03 0.03 0.03 0.02 0.02 0.02 0.02 0.02 0.04 0.05 0.06 0.06 0.06 0.07 0.11 0.15 0.20
0.01 0.02 0.03 0.03 0.08 0.08 0.02 0.01 0.01 0.03 0.07 0.02 0.01 0.01 0.02 0.05 0.09 0.07 0.14 0.09 0.03 0.01 0.01 0.01 0.00 0.01 0.00 0.00 0.00 0.00 0.00 0.00 0.00 0.00 0.00 0.00 0.01 0.01 0.01 0.01 0.01 0.03 0.06 0.09
0.02 0.03 0.03 0.03 0.04 0.02 0.01 0.00 0.00 0.02 0.03 0.01 0.00 0.00 0.00 0.01 0.02 0.02 0.09 0.07 0.00 0.00 0.00 0.00 0.00 0.00 0.00 0.00 0.00 0.00 0.00 0.00 0.00 0.00 0.00 0.00 0.01 0.01 0.01 0.02 0.01 0.01 0.01 0.02
0.01 0.02 0.01 0.01 0.02 0.01 0.00 0.00 0.00 0.00 0.00 0.00 0.00 0.00 0.00 0.00 0.00 0.01 0.04 0.06 0.00 0.00 0.00 0.00 0.00 0.00 0.00 0.00 0.00 0.00 0.00 0.00 0.00 0.00 0.00 0.00 0.01 0.01 0.01 0.03 0.02 0.01 0.01 0.02
0.00 0.01 0.01 0.01 0.01 0.00 0.00 0.00 0.00 0.00 0.00 0.00 0.00 0.00 0.00 0.00 0.00 0.00 0.02 0.06 0.02 0.00 0.00 0.00 0.00 0.00 0.00 0.00 0.00 0.00 0.00 0.00 0.00 0.00 0.01 0.00 0.00 0.01 0.01 0.01 0.01 0.01 0.01 0.02
0.00 0.00 0.00 0.01 0.00 0.00 0.00 0.00 0.00 0.00 0.00 0.00 0.00 0.00 0.00 0.00 0.00 0.00 0.01 0.04 0.02 0.00 0.00 0.00 0.00 0.00 0.00 0.00 0.00 0.00 0.00 0.00 0.00 0.00 0.00 0.00 0.01 0.01 0.01 0.01 0.01 0.01 0.02 0.02
0.00 0.00 0.00 0.01 0.00 0.00 0.00 0.00 0.00 0.00 0.00 0.00 0.00 0.00 0.00 0.00 0.00 0.00 0.00 0.01 0.01 0.00 0.00 0.00 0.00 0.00 0.00 0.00 0.00 0.00 0.00 0.00 0.00 0.00 0.00 0.00 0.01 0.01 0.01 0.01 0.01 0.01 0.01 0.02
0.00 0.00 0.00 0.00 0.00 0.00 0.00 0.00 0.00 0.00 0.00 0.00 0.00 0.00 0.00 0.00 0.00 0.00 0.00 0.00 0.00 0.00 0.00 0.00 0.00 0.00 0.00 0.00 0.00 0.00 0.00 0.00 0.00 0.00 0.00 0.00 0.01 0.01 0.01 0.02 0.02 0.01 0.02 0.03

GEFSCGP_prec_meanprecacc_150.txt.gz
Total_Precipitation_Accumulation
0.59 0.83 0.87 0.74 0.82 0.89 0.81 0.76 0.72 0.61 0.51 0.48 0.42 0.38 0.38 0.35 0.29 0.24 0.19 0.14 0.12 0.12 0.13 0.13 0.14 0.17 0.18 0.18 0.19 0.24 0.29 0.32 0.34 0.42 0.53 0.62 0.72 0.90 1.11 1.17 1.22 1.35 1.37 1.40
0.62 0.64 0.52 0.57 0.68 0.78 0.74 0.65 0.63 0.53 0.41 0.37 0.39 0.38 0.37 0.31 0.28 0.21 0.16 0.13 0.10 0.11 0.12 0.09 0.10 0.12 0.12 0.10 0.12 0.18 0.27 0.36 0.42 0.48 0.62 0.77 1.00 1.11 1.25 1.40 1.39 1.41 1.47 1.50
0.50 0.44 0.41 0.50 0.63 0.71 0.72 0.60 0.50 0.46 0.40 0.36 0.37 0.43 0.41 0.34 0.28 0.22 0.17 0.14 0.12 0.10 0.09 0.07 0.07 0.08 0.10 0.09 0.11 0.18 0.32 0.51 0.72 0.82 1.05 1.33 1.58 1.66 1.58 1.57 1.61 1.60 1.64 1.70
0.56 0.41 0.41 0.51 0.55 0.57 0.67 0.47 0.37 0.38 0.37 0.40 0.31 0.41 0.37 0.34 0.33 0.26 0.22 0.18 0.15 0.15 0.13 0.11 0.11 0.10 0.11 0.13 0.22 0.38 0.62 0.92 1.17 1.32 1.52 1.72 1.83 1.87 1.80 1.81 1.79 1.77 1.70 1.62
0.57 0.42 0.41 0.46 0.45 0.42 0.53 0.42 0.36 0.37 0.35 0.32 0.26 0.30 0.29 0.30 0.37 0.34 0.33 0.31 0.29 0.27 0.21 0.21 0.24 0.25 0.30 0.40 0.60 0.89 1.14 1.38 1.53 1.58 1.68 1.88 2.04 2.19 2.20 2.08 1.93 1.82 1.78 1.71
0.45 0.38 0.40 0.44 0.40 0.36 0.41 0.43 0.43 0.40 0.39 0.40 0.27 0.24 0.31 0.32 0.35 0.40 0.42 0.37 0.34 0.32 0.31 0.37 0.47 0.59 0.73 0.84 1.02 1.24 1.38 1.52 1.52 1.52 1.58 1.71 1.90 2.06 2.08 2.09 2.05 1.93 1.78 1.68
0.45 0.41 0.38 0.36 0.38 0.37 0.39 0.47 0.56 0.55 0.51 0.42 0.26 0.34 0.35 0.29 0.29 0.36 0.39 0.38 0.37 0.36 0.43 0.59 0.74 0.87 0.99 1.10 1.21 1.25 1.24 1.29 1.30 1.32 1.36 1.44 1.50 1.53 1.59 1.70 1.62 1.49 1.36 1.31
0.36 0.40 0.33 0.27 0.26 0.30 0.32 0.32 0.45 0.51 0.44 0.39 0.31 0.47 0.44 0.33 0.28 0.28 0.30 0.36 0.46 0.59 0.69 0.79 0.90 0.98 1.02 1.15 1.21 1.17 1.15 1.13 1.06 1.00 1.05 1.07 1.12 1.17 1.20 1.22 1.17 1.09 1.04 1.01
0.27 0.32 0.26 0.22 0.21 0.23 0.24 0.23 0.27 0.40 0.37 0.36 0.36 0.50 0.48 0.32 0.26 0.25 0.26 0.34 0.50 0.71 0.95 1.10 1.10 1.00 0.91 0.95 1.03 1.01 0.97 0.93 0.85 0.79 0.82 0.85 0.92 0.95 0.93 0.91 0.86 0.84 0.78 0.78
0.23 0.30 0.29 0.25 0.23 0.22 0.20 0.22 0.29 0.43 0.46 0.46 0.43 0.53 0.46 0.34 0.30 0.27 0.32 0.41 0.59 0.81 1.02 1.28 1.40 1.28 1.01 0.81 0.82 0.80 0.77 0.80 0.79 0.75 0.77 0.77 0.70 0.65 0.66 0.69 0.63 0.62 0.67 0.71
0.16 0.24 0.28 0.26 0.22 0.20 0.19 0.23 0.30 0.39 0.40 0.52 0.71 0.77 0.61 0.51 0.45 0.44 0.49 0.55 0.62 0.89 1.18 1.32 1.37 1.24 1.06 0.79 0.70 0.69 0.66 0.70 0.77 0.70 0.72 0.71 0.61 0.49 0.47 0.47 0.45 0.45 0.49 0.55
0.12 0.20 0.23 0.20 0.19 0.17 0.22 0.27 0.36 0.51 0.54 0.50 0.63 0.71 0.54 0.56 0.62 0.57 0.62 0.71 0.73 0.78 0.83 0.86 0.97 0.98 0.92 0.79 0.71 0.76 0.80 0.79 0.72 0.65 0.62 0.58 0.51 0.44 0.43 0.41 0.38 0.40 0.45 0.47
0.09 0.17 0.24 0.22 0.22 0.22 0.34 0.40 0.33 0.43 0.55 0.55 0.66 0.70 0.48 0.50 0.59 0.60 0.68 0.75 0.77 0.72 0.60 0.54 0.65 0.79 0.74 0.67 0.70 0.78 0.91 0.91 0.83 0.70 0.60 0.56 0.52 0.49 0.47 0.42 0.41 0.41 0.48 0.59
0.06 0.13 0.17 0.20 0.22 0.29 0.55 0.65 0.44 0.47 0.62 0.51 0.50 0.54 0.45 0.46 0.53 0.58 0.65 0.70 0.68 0.58 0.48 0.42 0.41 0.43 0.42 0.44 0.48 0.60 0.85 1.04 1.01 0.91 0.77 0.68 0.61 0.54 0.48 0.44 0.43 0.42 0.45 0.51
0.04 0.08 0.09 0.09 0.12 0.18 0.37 0.43 0.34 0.31 0.31 0.34 0.33 0.36 0.46 0.53 0.55 0.56 0.58 0.51 0.42 0.35 0.30 0.26 0.22 0.22 0.23 0.28 0.35 0.45 0.72 0.92 0.93 0.92 0.80 0.66 0.55 0.45 0.43 0.46 0.49 0.46 0.41 0.44
0.03 0.05 0.05 0.06 0.06 0.08 0.11 0.08 0.08 0.10 0.16 0.23 0.27 0.37 0.44 0.46 0.46 0.48 0.47 0.36 0.31 0.25 0.23 0.22 0.19 0.16 0.12 0.12 0.17 0.27 0.46 0.62 0.68 0.74 0.70 0.55 0.49 0.43 0.39 0.42 0.48 0.49 0.39 0.38
0.04 0.05 0.07 0.07 0.05 0.07 0.06 0.04 0.09 0.13 0.15 0.19 0.29 0.42 0.48 0.50 0.55 0.84 0.87 0.55 0.37 0.32 0.27 0.27 0.25 0.22 0.18 0.15 0.14 0.17 0.24 0.33 0.40 0.45 0.45 0.36 0.34 0.41 0.42 0.45 0.44 0.38 0.31 0.34
0.04 0.05 0.09 0.08 0.07 0.09 0.06 0.04 0.10 0.14 0.14 0.14 0.16 0.19 0.24 0.36 0.51 0.67 0.75 0.61 0.43 0.39 0.30 0.26 0.23 0.20 0.16 0.13 0.12 0.13 0.15 0.18 0.20 0.20 0.17 0.14 0.21 0.30 0.32 0.30 0.28 0.23 0.23 0.29
0.02 0.05 0.08 0.08 0.17 0.15 0.04 0.03 0.06 0.08 0.07 0.05 0.06 0.07 0.08 0.12 0.13 0.15 0.20 0.24 0.21 0.17 0.13 0.09 0.06 0.05 0.04 0.04 0.03 0.03 0.02 0.02 0.02 0.02 0.03 0.04 0.05 0.06 0.06 0.06 0.07 0.11 0.15 0.20
0.02 0.03 0.05 0.07 0.12 0.09 0.03 0.01 0.02 0.04 0.08 0.03 0.02 0.02 0.02 0.05 0.09 0.08 0.14 0.09 0.03 0.01 0.01 0.01 0.02 0.02 0.01 0.01 0.01 0.00 0.00 0.00 0.00 0.00 0.00 0.00 0.01 0.01 0.01 0.01 0.02 0.03 0.06 0.09
0.04 0.05 0.05 0.06 0.07 0.03 0.01 0.01 0.01 0.03 0.04 0.01 0.01 0.01 0.00 0.01 0.02 0.02 0.09 0.07 0.00 0.00 0.01 0.01 0.01 0.02 0.02 0.01 0.01 0.00 0.00 0.00 0.00 0.00 0.00 0.00 0.01 0.01 0.01 0.02 0.01 0.01 0.01 0.02
0.02 0.03 0.03 0.03 0.04 0.03 0.01 0.01 0.01 0.01 0.01 0.01 0.01 0.01 0.00 0.00 0.00 0.01 0.04 0.06 0.01 0.01 0.01 0.01 0.02 0.02 0.01 0.01 0.00 0.00 0.00 0.00 0.00 0.00 0.00 0.00 0.01 0.01 0.01 0.03 0.02 0.01 0.01 0.02
0.01 0.01 0.02 0.01 0.02 0.01 0.01 0.00 0.01 0.01 0.01 0.01 0.02 0.01 0.00 0.00 0.00 0.00 0.02 0.06 0.02 0.01 0.02 0.01 0.01 0.01 0.01 0.01 0.01 0.00 0.00 0.00 0.00 0.00 0.01 0.00 0.00 0.01 0.01 0.01 0.01 0.01 0.01 0.02
0.01 0.01 0.01 0.01 0.01 0.01 0.00 0.00 0.00 0.00 0.00 0.01 0.01 0.02 0.01 0.01 0.00 0.00 0.01 0.04 0.03 0.01 0.01 0.01 0.01 0.01 0.01 0.01 0.01 0.01 0.01 0.01 0.00 0.00 0.00 0.00 0.01 0.01 0.01 0.01 0.01 0.01 0.02 0.02
0.01 0.01 0.01 0.01 0.01 0.01 0.00 0.00 0.00 0.00 0.00 0.00 0.00 0.01 0.01 0.01 0.01 0.00 0.00 0.02 0.01 0.01 0.01 0.01 0.01 0.01 0.01 0.01 0.01 0.01 0.01 0.01 0.01 0.00 0.00 0.00 0.01 0.01 0.01 0.01 0.01 0.01 0.01 0.02
0.00 0.01 0.01 0.01 0.01 0.01 0.00 0.00 0.00 0.00 0.00 0.00 0.00 0.00 0.01 0.01 0.01 0.00 0.00 0.00 0.00 0.01 0.01 0.01 0.01 0.01 0.01 0.00 0.01 0.01 0.01 0.01 0.01 0.01 0.01 0.00 0.01 0.01 0.01 0.02 0.02 0.02 0.02 0.03

GEFSCGP_prec_meanprecacc_156.txt.gz
Total_Precipitation_Accumulation
0.61 0.86 0.91 0.78 0.83 0.90 0.82 0.79 0.76 0.66 0.57 0.54 0.47 0.41 0.41 0.38 0.31 0.25 0.21 0.19 0.19 0.17 0.16 0.15 0.15 0.17 0.18 0.18 0.19 0.24 0.29 0.32 0.34 0.42 0.53 0.62 0.72 0.90 1.11 1.17 1.22 1.36 1.38 1.40
0.64 0.67 0.55 0.61 0.69 0.79 0.76 0.68 0.68 0.58 0.48 0.45 0.45 0.43 0.40 0.33 0.30 0.22 0.19 0.16 0.14 0.16 0.14 0.10 0.10 0.12 0.12 0.10 0.12 0.18 0.27 0.36 0.42 0.48 0.62 0.77 1.00 1.11 1.25 1.40 1.39 1.42 1.47 1.50
0.52 0.46 0.44 0.53 0.65 0.72 0.73 0.63 0.54 0.51 0.48 0.45 0.42 0.48 0.44 0.37 0.30 0.23 0.20 0.16 0.15 0.15 0.13 0.09 0.08 0.08 0.10 0.09 0.11 0.18 0.32 0.51 0.72 0.82 1.05 1.33 1.58 1.66 1.58 1.57 1.61 1.60 1.64 1.70
0.60 0.44 0.45 0.55 0.58 0.59 0.70 0.49 0.41 0.43 0.44 0.49 0.36 0.46 0.41 0.36 0.35 0.28 0.24 0.20 0.17 0.19 0.17 0.12 0.11 0.10 0.11 0.13 0.22 0.38 0.62 0.92 1.17 1.32 1.52 1.72 1.83 1.87 1.80 1.81 1.80 1.78 1.70 1.62
0.61 0.46 0.46 0.51 0.49 0.45 0.55 0.45 0.40 0.42 0.42 0.39 0.30 0.32 0.31 0.32 0.38 0.36 0.35 0.32 0.30 0.29 0.22 0.22 0.24 0.25 0.31 0.40 0.60 0.89 1.15 1.39 1.53 1.58 1.68 1.88 2.04 2.19 2.20 2.08 1.93 1.82 1.78 1.71
0.50 0.42 0.47 0.50 0.46 0.40 0.44 0.47 0.48 0.45 0.45 0.46 0.31 0.26 0.32 0.32 0.36 0.40 0.43 0.38 0.36 0.33 0.32 0.38 0.48 0.59 0.73 0.84 1.02 1.24 1.38 1.53 1.52 1.52 1.58 1.71 1.90 2.06 2.08 2.09 2.06 1.93 1.78 1.68
0.49 0.46 0.43 0.41 0.45 0.44 0.44 0.52 0.62 0.61 0.56 0.48 0.28 0.35 0.36 0.29 0.30 0.37 0.40 0.39 0.38 0.36 0.44 0.59 0.74 0.88 1.00 1.10 1.21 1.25 1.24 1.29 1.30 1.32 1.36 1.44 1.50 1.53 1.59 1.70 1.62 1.49 1.36 1.31
0.39 0.44 0.37 0.29 0.30 0.36 0.38 0.37 0.50 0.56 0.49 0.41 0.33 0.48 0.45 0.33 0.29 0.28 0.31 0.37 0.47 0.60 0.70 0.80 0.90 0.99 1.02 1.15 1.21 1.17 1.15 1.13 1.06 1.00 1.05 1.07 1.12 1.17 1.20 1.22 1.17 1.09 1.04 1.01
0.29 0.34 0.29 0.25 0.23 0.27 0.30 0.28 0.31 0.43 0.40 0.39 0.37 0.51 0.48 0.32 0.27 0.26 0.27 0.35 0.50 0.72 0.96 1.11 1.10 1.01 0.91 0.95 1.03 1.01 0.97 0.93 0.85 0.79 0.82 0.85 0.92 0.95 0.93 0.91 0.86 0.84 0.78 0.78
0.23 0.32 0.32 0.29 0.27 0.25 0.23 0.25 0.31 0.46 0.50 0.49 0.45 0.53 0.46 0.34 0.31 0.28 0.33 0.42 0.60 0.82 1.02 1.29 1.41 1.29 1.01 0.81 0.83 0.80 0.77 0.80 0.80 0.75 0.77 0.77 0.70 0.65 0.66 0.69 0.63 0.62 0.67 0.71
0.17 0.25 0.30 0.28 0.25 0.24 0.22 0.26 0.32 0.42 0.43 0.54 0.73 0.77 0.62 0.51 0.46 0.44 0.49 0.55 0.62 0.89 1.18 1.32 1.38 1.24 1.06 0.79 0.70 0.69 0.66 0.70 0.77 0.70 0.72 0.71 0.61 0.49 0.47 0.47 0.45 0.45 0.49 0.55
0.13 0.22 0.25 0.23 0.22 0.20 0.24 0.29 0.38 0.55 0.56 0.52 0.64 0.71 0.54 0.57 0.63 0.57 0.62 0.71 0.73 0.79 0.83 0.86 0.98 0.99 0.92 0.79 0.72 0.77 0.80 0.80 0.72 0.65 0.62 0.58 0.51 0.44 0.43 0.41 0.38 0.40 0.45 0.47
0.09 0.18 0.25 0.24 0.25 0.25 0.36 0.42 0.35 0.45 0.58 0.57 0.66 0.70 0.48 0.50 0.60 0.60 0.68 0.75 0.77 0.72 0.61 0.54 0.65 0.79 0.74 0.67 0.71 0.78 0.92 0.92 0.83 0.70 0.60 0.57 0.52 0.49 0.47 0.42 0.41 0.41 0.48 0.59
0.06 0.14 0.17 0.21 0.23 0.31 0.57 0.66 0.45 0.49 0.64 0.52 0.50 0.54 0.45 0.46 0.53 0.58 0.66 0.70 0.68 0.59 0.48 0.43 0.42 0.44 0.43 0.45 0.48 0.60 0.86 1.04 1.01 0.91 0.77 0.68 0.61 0.54 0.48 0.44 0.43 0.42 0.45 0.51
0.05 0.09 0.09 0.09 0.12 0.19 0.38 0.44 0.35 0.33 0.32 0.35 0.33 0.36 0.46 0.53 0.55 0.56 0.58 0.51 0.42 0.36 0.31 0.26 0.23 0.23 0.24 0.29 0.35 0.46 0.72 0.92 0.93 0.92 0.80 0.66 0.55 0.45 0.43 0.46 0.49 0.46 0.41 0.44
0.04 0.06 0.05 0.07 0.07 0.09 0.13 0.10 0.09 0.11 0.17 0.23 0.28 0.37 0.44 0.46 0.46 0.48 0.48 0.36 0.31 0.26 0.23 0.22 0.19 0.16 0.13 0.13 0.18 0.28 0.46 0.62 0.69 0.75 0.71 0.55 0.49 0.44 0.39 0.42 0.48 0.49 0.39 0.38
0.04 0.06 0.08 0.07 0.05 0.08 0.08 0.05 0.10 0.13 0.15 0.19 0.30 0.42 0.48 0.50 0.55 0.84 0.87 0.55 0.37 0.33 0.27 0.27 0.26 0.23 0.19 0.16 0.15 0.18 0.25 0.33 0.40 0.45 0.46 0.37 0.35 0.41 0.43 0.45 0.44 0.38 0.31 0.34
0.04 0.06 0.10 0.09 0.07 0.10 0.06 0.04 0.10 0.14 0.14 0.14 0.17 0.19 0.24 0.36 0.51 0.67 0.76 0.61 0.43 0.39 0.30 0.26 0.23 0.20 0.17 0.14 0.13 0.14 0.16 0.18 0.21 0.20 0.18 0.15 0.21 0.31 0.32 0.30 0.28 0.23 0.23 0.29
0.03 0.06 0.09 0.09 0.17 0.15 0.04 0.03 0.06 0.08 0.07 0.05 0.06 0.07 0.09 0.12 0.14 0.15 0.21 0.24 0.21 0.17 0.13 0.09 0.07 0.05 0.04 0.04 0.04 0.04 0.03 0.02 0.02 0.03 0.03 0.04 0.06 0.07 0.07 0.06 0.07 0.11 0.15 0.20
0.03 0.04 0.07 0.07 0.12 0.10 0.03 0.01 0.02 0.04 0.08 0.03 0.02 0.02 0.02 0.05 0.09 0.08 0.14 0.09 0.03 0.02 0.01 0.01 0.02 0.02 0.01 0.01 0.01 0.01 0.00 0.00 0.01 0.01 0.01 0.01 0.01 0.01 0.01 0.01 0.02 0.03 0.06 0.10
0.04 0.06 0.06 0.06 0.08 0.04 0.02 0.01 0.01 0.04 0.04 0.01 0.01 0.01 0.01 0.01 0.02 0.03 0.09 0.08 0.01 0.01 0.01 0.01 0.02 0.02 0.02 0.01 0.01 0.00 0.00 0.00 0.01 0.01 0.01 0.01 0.01 0.01 0.02 0.02 0.01 0.01 0.01 0.03
0.02 0.04 0.04 0.04 0.05 0.03 0.01 0.01 0.01 0.01 0.01 0.01 0.01 0.01 0.01 0.01 0.01 0.01 0.04 0.06 0.01 0.01 0.01 0.01 0.02 0.02 0.02 0.02 0.01 0.00 0.00 0.01 0.01 0.01 0.01 0.01 0.01 0.01 0.02 0.03 0.02 0.01 0.01 0.02
0.01 0.02 0.03 0.02 0.02 0.02 0.01 0.01 0.01 0.01 0.01 0.01 0.02 0.02 0.01 0.01 0.01 0.00 0.02 0.06 0.02 0.01 0.02 0.01 0.01 0.02 0.02 0.02 0.02 0.01 0.01 0.01 0.01 0.01 0.01 0.01 0.01 0.02 0.01 0.01 0.01 0.02 0.01 0.02
0.01 0.01 0.01 0.01 0.01 0.01 0.01 0.00 0.00 0.00 0.00 0.01 0.02 0.02 0.02 0.01 0.01 0.00 0.01 0.05 0.03 0.01 0.01 0.01 0.01 0.01 0.02 0.02 0.02 0.02 0.02 0.02 0.02 0.01 0.01 0.01 0.01 0.02 0.01 0.02 0.01 0.01 0.02 0.02
0.01 0.01 0.01 0.02 0.01 0.01 0.00 0.00 0.00 0.00 0.00 0.00 0.01 0.01 0.01 0.02 0.01 0.00 0.00 0.02 0.02 0.01 0.01 0.01 0.01 0.01 0.01 0.02 0.02 0.02 0.02 0.02 0.02 0.01 0.02 0.02 0.02 0.02 0.02 0.02 0.01 0.01 0.02 0.02
0.00 0.01 0.01 0.01 0.01 0.01 0.00 0.00 0.00 0.00 0.00 0.00 0.00 0.00 0.01 0.02 0.01 0.01 0.00 0.00 0.00 0.01 0.01 0.01 0.01 0.01 0.02 0.01 0.02 0.02 0.01 0.02 0.02 0.02 0.01 0.01 0.02 0.02 0.02 0.02 0.02 0.02 0.02 0.03

GEFSCGP_prec_meanprecacc_162.txt.gz
Total_Precipitation_Accumulation
0.64 0.90 0.95 0.81 0.84 0.91 0.83 0.81 0.79 0.71 0.63 0.63 0.55 0.50 0.50 0.42 0.33 0.27 0.23 0.22 0.23 0.23 0.22 0.18 0.16 0.17 0.19 0.18 0.19 0.24 0.29 0.32 0.34 0.42 0.53 0.62 0.72 0.90 1.11 1.17 1.22 1.36 1.38 1.40
0.67 0.70 0.59 0.62 0.70 0.80 0.77 0.70 0.71 0.62 0.54 0.52 0.51 0.50 0.47 0.38 0.31 0.23 0.21 0.18 0.17 0.20 0.18 0.14 0.12 0.12 0.12 0.10 0.12 0.18 0.27 0.36 0.42 0.48 0.62 0.77 1.00 1.11 1.25 1.40 1.39 1.42 1.47 1.50
0.56 0.49 0.46 0.55 0.66 0.73 0.74 0.65 0.56 0.55 0.53 0.50 0.47 0.54 0.51 0.42 0.32 0.24 0.21 0.18 0.16 0.18 0.16 0.12 0.09 0.09 0.10 0.09 0.11 0.18 0.32 0.51 0.72 0.82 1.05 1.33 1.58 1.66 1.58 1.57 1.61 1.60 1.64 1.70
0.63 0.46 0.46 0.56 0.59 0.60 0.71 0.50 0.42 0.46 0.51 0.55 0.41 0.53 0.46 0.41 0.39 0.29 0.25 0.22 0.19 0.22 0.22 0.16 0.14 0.11 0.11 0.13 0.23 0.38 0.62 0.92 1.17 1.32 1.52 1.72 1.83 1.87 1.80 1.81 1.80 1.78 1.70 1.63
0.64 0.49 0.48 0.53 0.50 0.46 0.57 0.46 0.42 0.45 0.47 0.44 0.34 0.37 0.34 0.34 0.42 0.38 0.36 0.33 0.32 0.31 0.26 0.26 0.27 0.26 0.31 0.41 0.60 0.89 1.15 1.39 1.53 1.58 1.68 1.88 2.04 2.19 2.20 2.08 1.94 1.82 1.78 1.71
0.54 0.47 0.51 0.53 0.48 0.42 0.46 0.49 0.51 0.48 0.49 0.51 0.34 0.29 0.34 0.34 0.38 0.42 0.44 0.39 0.36 0.34 0.33 0.41 0.52 0.62 0.74 0.84 1.02 1.24 1.38 1.53 1.52 1.52 1.58 1.71 1.90 2.06 2.08 2.10 2.06 1.93 1.78 1.68
0.54 0.53 0.49 0.45 0.48 0.47 0.47 0.56 0.67 0.65 0.60 0.51 0.30 0.36 0.37 0.30 0.30 0.37 0.41 0.40 0.38 0.37 0.44 0.61 0.77 0.90 1.00 1.10 1.21 1.25 1.24 1.29 1.30 1.32 1.36 1.44 1.50 1.54 1.60 1.70 1.62 1.49 1.36 1.31
0.43 0.49 0.42 0.36 0.36 0.41 0.42 0.41 0.55 0.60 0.52 0.44 0.35 0.49 0.45 0.34 0.29 0.29 0.32 0.38 0.47 0.60 0.70 0.81 0.91 1.01 1.04 1.16 1.22 1.17 1.15 1.13 1.06 1.00 1.06 1.07 1.12 1.17 1.20 1.22 1.17 1.09 1.04 1.01
0.30 0.37 0.32 0.28 0.27 0.31 0.35 0.33 0.35 0.47 0.43 0.41 0.39 0.52 0.48 0.32 0.27 0.26 0.28 0.36 0.51 0.72 0.96 1.11 1.10 1.01 0.92 0.96 1.04 1.02 0.98 0.93 0.85 0.79 0.82 0.85 0.92 0.95 0.93 0.91 0.86 0.84 0.78 0.78
0.25 0.34 0.35 0.31 0.29 0.29 0.27 0.29 0.36 0.50 0.53 0.52 0.46 0.55 0.47 0.35 0.31 0.28 0.33 0.42 0.60 0.82 1.02 1.29 1.41 1.29 1.02 0.82 0.84 0.81 0.77 0.80 0.80 0.75 0.77 0.77 0.70 0.65 0.66 0.69 0.63 0.62 0.67 0.71
0.18 0.27 0.31 0.30 0.28 0.27 0.26 0.30 0.37 0.46 0.45 0.56 0.75 0.79 0.63 0.52 0.47 0.45 0.50 0.55 0.62 0.89 1.18 1.33 1.38 1.25 1.07 0.79 0.71 0.70 0.67 0.70 0.77 0.70 0.72 0.71 0.61 0.49 0.47 0.47 0.45 0.45 0.49 0.55
0.14 0.23 0.26 0.24 0.23 0.21 0.26 0.32 0.42 0.59 0.60 0.54 0.66 0.72 0.55 0.57 0.64 0.58 0.63 0.72 0.73 0.79 0.83 0.86 0.98 1.00 0.93 0.79 0.72 0.77 0.81 0.81 0.72 0.66 0.62 0.58 0.51 0.44 0.43 0.41 0.38 0.40 0.45 0.47
0.10 0.19 0.26 0.24 0.25 0.25 0.37 0.43 0.36 0.48 0.60 0.58 0.68 0.71 0.49 0.51 0.61 0.62 0.69 0.76 0.78 0.73 0.61 0.54 0.66 0.80 0.75 0.68 0.71 0.79 0.93 0.93 0.84 0.71 0.60 0.57 0.52 0.49 0.47 0.42 0.41 0.41 0.48 0.59
0.06 0.14 0.18 0.22 0.23 0.31 0.58 0.67 0.46 0.50 0.66 0.53 0.51 0.54 0.46 0.46 0.54 0.58 0.66 0.71 0.68 0.59 0.48 0.43 0.42 0.44 0.43 0.45 0.49 0.61 0.86 1.05 1.02 0.91 0.78 0.68 0.61 0.54 0.48 0.44 0.43 0.42 0.45 0.51
0.06 0.09 0.09 0.10 0.12 0.19 0.39 0.44 0.36 0.34 0.33 0.36 0.34 0.37 0.46 0.53 0.55 0.56 0.58 0.52 0.42 0.36 0.31 0.26 0.23 0.23 0.24 0.29 0.36 0.46 0.72 0.93 0.94 0.93 0.81 0.67 0.55 0.45 0.43 0.46 0.49 0.46 0.41 0.44
0.05 0.06 0.06 0.07 0.07 0.09 0.14 0.11 0.10 0.13 0.18 0.24 0.28 0.37 0.44 0.46 0.46 0.48 0.48 0.36 0.31 0.26 0.24 0.23 0.20 0.17 0.13 0.13 0.19 0.28 0.46 0.62 0.69 0.75 0.71 0.56 0.49 0.44 0.39 0.42 0.48 0.49 0.39 0.38
0.05 0.07 0.08 0.08 0.05 0.08 0.08 0.06 0.12 0.15 0.17 0.20 0.31 0.43 0.48 0.50 0.55 0.85 0.87 0.55 0.38 0.33 0.28 0.28 0.27 0.23 0.19 0.16 0.16 0.18 0.25 0.33 0.40 0.46 0.47 0.37 0.35 0.42 0.43 0.45 0.44 0.38 0.31 0.34
0.05 0.07 0.11 0.10 0.08 0.11 0.07 0.05 0.11 0.15 0.14 0.14 0.17 0.20 0.25 0.36 0.51 0.67 0.76 0.61 0.43 0.39 0.30 0.27 0.24 0.21 0.18 0.15 0.14 0.15 0.16 0.19 0.21 0.21 0.18 0.15 0.22 0.31 0.32 0.31 0.28 0.23 0.23 0.29
0.04 0.07 0.10 0.10 0.18 0.16 0.05 0.04 0.06 0.08 0.07 0.05 0.06 0.07 0.09 0.12 0.14 0.15 0.21 0.24 0.21 0.18 0.13 0.09 0.07 0.06 0.05 0.06 0.05 0.05 0.03 0.03 0.03 0.03 0.03 0.05 0.07 0.08 0.07 0.07 0.08 0.11 0.16 0.20
0.04 0.05 0.07 0.08 0.13 0.11 0.04 0.02 0.02 0.04 0.08 0.03 0.02 0.02 0.02 0.06 0.09 0.08 0.14 0.09 0.03 0.02 0.02 0.02 0.03 0.03 0.02 0.02 0.03 0.02 0.02 0.02 0.02 0.02 0.01 0.01 0.02 0.02 0.02 0.02 0.02 0.03 0.06 0.10
0.05 0.06 0.07 0.07 0.09 0.04 0.02 0.01 0.01 0.05 0.05 0.01 0.01 0.01 0.01 0.01 0.02 0.03 0.09 0.08 0.01 0.01 0.01 0.02 0.03 0.03 0.03 0.02 0.02 0.01 0.01 0.01 0.02 0.01 0.01 0.01 0.01 0.02 0.03 0.03 0.02 0.01 0.01 0.03
0.03 0.05 0.04 0.05 0.06 0.04 0.01 0.01 0.02 0.02 0.01 0.01 0.01 0.01 0.01 0.01 0.01 0.01 0.04 0.06 0.01 0.01 0.01 0.02 0.02 0.02 0.02 0.02 0.02 0.01 0.01 0.01 0.01 0.01 0.01 0.01 0.01 0.02 0.02 0.03 0.02 0.01 0.01 0.02
0.02 0.02 0.03 0.03 0.03 0.02 0.01 0.01 0.01 0.01 0.01 0.01 0.02 0.02 0.01 0.01 0.01 0.00 0.02 0.06 0.02 0.01 0.02 0.02 0.02 0.02 0.02 0.02 0.02 0.01 0.01 0.02 0.02 0.01 0.01 0.01 0.01 0.02 0.02 0.02 0.02 0.02 0.02 0.02
0.02 0.01 0.01 0.01 0.01 0.01 0.01 0.01 0.01 0.00 0.01 0.01 0.02 0.03 0.02 0.02 0.01 0.00 0.01 0.05 0.03 0.01 0.01 0.01 0.01 0.01 0.02 0.02 0.02 0.02 0.02 0.03 0.02 0.02 0.01 0.01 0.02 0.02 0.02 0.02 0.01 0.02 0.02 0.02
0.01 0.01 0.01 0.02 0.01 0.01 0.00 0.00 0.00 0.00 0.00 0.01 0.01 0.02 0.02 0.02 0.02 0.01 0.00 0.02 0.02 0.01 0.01 0.01 0.01 0.01 0.01 0.02 0.02 0.02 0.02 0.02 0.02 0.03 0.02 0.02 0.02 0.03 0.03 0.02 0.02 0.02 0.02 0.03
0.00 0.01 0.02 0.01 0.01 0.01 0.00 0.00 0.00 0.00 0.00 0.00 0.00 0.01 0.02 0.02 0.02 0.01 0.01 0.01 0.01 0.01 0.01 0.01 0.01 0.02 0.02 0.01 0.02 0.02 0.02 0.02 0.02 0.03 0.02 0.02 0.02 0.03 0.03 0.03 0.03 0.03 0.03 0.04

GEFSCGP_prec_meanprecacc_168.txt.gz
Total_Precipitation_Accumulation
0.64 0.92 0.98 0.84 0.86 0.93 0.85 0.85 0.84 0.75 0.65 0.67 0.61 0.57 0.60 0.51 0.38 0.30 0.25 0.25 0.25 0.25 0.24 0.22 0.19 0.18 0.19 0.18 0.19 0.24 0.29 0.32 0.34 0.42 0.53 0.62 0.72 0.90 1.11 1.17 1.22 1.36 1.38 1.40
0.69 0.73 0.60 0.64 0.71 0.81 0.78 0.73 0.76 0.66 0.56 0.55 0.56 0.56 0.55 0.46 0.37 0.27 0.24 0.20 0.18 0.20 0.19 0.15 0.14 0.14 0.13 0.11 0.12 0.18 0.27 0.36 0.42 0.48 0.62 0.77 1.00 1.11 1.26 1.41 1.39 1.42 1.47 1.50
0.58 0.51 0.47 0.56 0.67 0.75 0.76 0.67 0.60 0.59 0.56 0.54 0.52 0.62 0.58 0.49 0.36 0.27 0.24 0.20 0.17 0.19 0.17 0.12 0.11 0.11 0.11 0.09 0.11 0.18 0.32 0.51 0.72 0.82 1.05 1.33 1.58 1.66 1.59 1.58 1.62 1.61 1.64 1.70
0.65 0.47 0.48 0.57 0.60 0.61 0.73 0.51 0.43 0.49 0.55 0.61 0.47 0.61 0.52 0.46 0.43 0.32 0.27 0.24 0.20 0.22 0.23 0.17 0.15 0.13 0.12 0.13 0.23 0.38 0.62 0.92 1.17 1.32 1.52 1.72 1.83 1.87 1.80 1.82 1.80 1.78 1.70 1.63
0.66 0.50 0.50 0.56 0.52 0.48 0.59 0.47 0.43 0.47 0.51 0.50 0.40 0.45 0.41 0.39 0.46 0.41 0.37 0.34 0.33 0.32 0.27 0.27 0.28 0.27 0.32 0.42 0.61 0.89 1.15 1.39 1.53 1.58 1.68 1.88 2.04 2.19 2.20 2.09 1.94 1.82 1.79 1.72
0.56 0.49 0.53 0.55 0.49 0.43 0.47 0.51 0.53 0.51 0.53 0.57 0.39 0.34 0.40 0.37 0.41 0.44 0.46 0.40 0.37 0.34 0.34 0.42 0.53 0.63 0.76 0.86 1.03 1.24 1.39 1.53 1.52 1.52 1.58 1.71 1.90 2.06 2.08 2.10 2.07 1.93 1.79 1.69
0.56 0.55 0.51 0.46 0.51 0.50 0.50 0.60 0.73 0.71 0.66 0.56 0.33 0.39 0.40 0.31 0.32 0.38 0.42 0.41 0.39 0.37 0.45 0.62 0.78 0.92 1.02 1.13 1.23 1.26 1.25 1.29 1.30 1.32 1.36 1.44 1.50 1.54 1.60 1.70 1.63 1.50 1.37 1.31
0.45 0.52 0.44 0.37 0.38 0.44 0.45 0.45 0.61 0.68 0.58 0.48 0.37 0.51 0.46 0.34 0.30 0.30 0.33 0.39 0.48 0.60 0.71 0.82 0.92 1.01 1.05 1.18 1.23 1.18 1.15 1.13 1.06 1.00 1.06 1.07 1.12 1.17 1.20 1.22 1.18 1.09 1.04 1.01
0.33 0.39 0.34 0.29 0.28 0.32 0.38 0.36 0.38 0.51 0.46 0.46 0.43 0.54 0.49 0.33 0.27 0.27 0.29 0.37 0.51 0.72 0.97 1.13 1.12 1.02 0.93 0.97 1.05 1.03 0.98 0.93 0.85 0.79 0.82 0.85 0.92 0.95 0.93 0.91 0.86 0.84 0.78 0.79
0.27 0.36 0.36 0.32 0.30 0.30 0.29 0.31 0.39 0.56 0.60 0.59 0.51 0.58 0.50 0.36 0.32 0.29 0.34 0.43 0.61 0.82 1.03 1.30 1.43 1.30 1.02 0.83 0.85 0.82 0.78 0.81 0.80 0.76 0.77 0.77 0.70 0.65 0.66 0.69 0.63 0.62 0.67 0.71
0.20 0.29 0.34 0.32 0.31 0.32 0.29 0.32 0.39 0.51 0.50 0.65 0.84 0.85 0.65 0.54 0.49 0.47 0.51 0.56 0.62 0.90 1.19 1.34 1.39 1.25 1.07 0.79 0.72 0.71 0.67 0.71 0.77 0.71 0.72 0.72 0.61 0.49 0.47 0.47 0.45 0.45 0.49 0.55
0.15 0.25 0.29 0.26 0.25 0.22 0.28 0.34 0.45 0.64 0.64 0.59 0.73 0.80 0.56 0.59 0.67 0.60 0.64 0.73 0.74 0.79 0.84 0.87 0.98 1.00 0.93 0.79 0.72 0.78 0.82 0.81 0.73 0.66 0.62 0.58 0.51 0.44 0.43 0.41 0.38 0.40 0.45 0.47
0.11 0.22 0.31 0.29 0.29 0.27 0.38 0.44 0.37 0.50 0.62 0.61 0.72 0.76 0.49 0.51 0.62 0.62 0.69 0.77 0.78 0.73 0.62 0.55 0.66 0.80 0.75 0.68 0.71 0.79 0.93 0.93 0.84 0.72 0.61 0.57 0.53 0.49 0.47 0.42 0.41 0.41 0.48 0.59
0.07 0.15 0.21 0.26 0.26 0.32 0.58 0.67 0.46 0.52 0.69 0.56 0.53 0.56 0.47 0.48 0.55 0.59 0.66 0.71 0.69 0.59 0.49 0.43 0.42 0.44 0.43 0.45 0.49 0.61 0.87 1.05 1.02 0.92 0.78 0.69 0.61 0.54 0.48 0.44 0.43 0.42 0.45 0.51
0.07 0.11 0.10 0.10 0.13 0.19 0.39 0.45 0.36 0.34 0.34 0.37 0.35 0.38 0.48 0.56 0.57 0.58 0.59 0.52 0.43 0.36 0.31 0.26 0.23 0.23 0.24 0.29 0.36 0.46 0.73 0.93 0.94 0.94 0.81 0.67 0.56 0.45 0.43 0.46 0.49 0.46 0.41 0.44
0.07 0.08 0.07 0.07 0.07 0.09 0.14 0.11 0.10 0.13 0.18 0.24 0.28 0.38 0.45 0.47 0.47 0.50 0.49 0.36 0.31 0.26 0.24 0.23 0.20 0.17 0.14 0.14 0.19 0.28 0.47 0.63 0.69 0.76 0.72 0.56 0.50 0.44 0.40 0.42 0.48 0.49 0.39 0.38
0.08 0.10 0.11 0.09 0.06 0.09 0.09 0.06 0.12 0.15 0.17 0.20 0.31 0.43 0.49 0.51 0.56 0.85 0.87 0.56 0.38 0.33 0.28 0.29 0.27 0.24 0.21 0.17 0.16 0.18 0.25 0.34 0.41 0.46 0.47 0.37 0.35 0.42 0.43 0.45 0.44 0.38 0.31 0.34
0.07 0.10 0.14 0.12 0.10 0.14 0.09 0.05 0.11 0.15 0.15 0.14 0.17 0.20 0.25 0.37 0.51 0.68 0.76 0.61 0.43 0.40 0.31 0.27 0.24 0.22 0.19 0.16 0.15 0.15 0.17 0.20 0.22 0.22 0.18 0.15 0.22 0.32 0.33 0.31 0.28 0.24 0.23 0.29
0.06 0.09 0.12 0.12 0.21 0.18 0.06 0.04 0.06 0.08 0.07 0.05 0.07 0.07 0.09 0.12 0.14 0.15 0.21 0.24 0.21 0.18 0.13 0.09 0.08 0.07 0.06 0.06 0.06 0.05 0.04 0.04 0.04 0.04 0.04 0.05 0.07 0.08 0.07 0.07 0.08 0.12 0.16 0.20
0.05 0.07 0.10 0.11 0.17 0.14 0.05 0.02 0.02 0.05 0.09 0.03 0.02 0.02 0.03 0.06 0.10 0.08 0.15 0.10 0.03 0.02 0.02 0.03 0.04 0.04 0.03 0.03 0.04 0.03 0.02 0.03 0.02 0.02 0.02 0.02 0.03 0.03 0.02 0.03 0.02 0.04 0.07 0.10
0.06 0.08 0.09 0.10 0.13 0.06 0.02 0.02 0.02 0.05 0.06 0.02 0.01 0.01 0.01 0.01 0.02 0.03 0.09 0.08 0.01 0.01 0.01 0.03 0.03 0.04 0.03 0.03 0.02 0.02 0.01 0.02 0.03 0.03 0.02 0.01 0.02 0.02 0.03 0.04 0.03 0.02 0.02 0.03
0.04 0.07 0.06 0.07 0.09 0.07 0.02 0.02 0.02 0.02 0.01 0.01 0.02 0.01 0.01 0.01 0.01 0.01 0.04 0.06 0.01 0.01 0.02 0.03 0.03 0.03 0.04 0.04 0.02 0.02 0.01 0.02 0.02 0.02 0.02 0.02 0.02 0.02 0.02 0.05 0.04 0.03 0.02 0.02
0.02 0.04 0.04 0.04 0.04 0.03 0.01 0.01 0.02 0.02 0.01 0.01 0.02 0.02 0.01 0.01 0.01 0.01 0.02 0.06 0.02 0.01 0.02 0.02 0.02 0.03 0.03 0.04 0.04 0.03 0.02 0.03 0.04 0.04 0.03 0.02 0.02 0.02 0.02 0.03 0.03 0.03 0.03 0.02
0.02 0.02 0.02 0.02 0.02 0.02 0.01 0.01 0.01 0.01 0.01 0.01 0.02 0.03 0.02 0.02 0.01 0.00 0.01 0.05 0.03 0.01 0.01 0.01 0.01 0.02 0.02 0.03 0.04 0.04 0.04 0.06 0.05 0.04 0.04 0.04 0.04 0.03 0.03 0.03 0.03 0.03 0.02 0.02
0.02 0.02 0.02 0.02 0.01 0.01 0.01 0.00 0.00 0.00 0.01 0.01 0.01 0.02 0.03 0.03 0.02 0.01 0.01 0.02 0.02 0.01 0.01 0.01 0.01 0.01 0.01 0.02 0.03 0.04 0.04 0.05 0.06 0.05 0.05 0.04 0.05 0.05 0.05 0.04 0.04 0.03 0.03 0.03
0.01 0.01 0.02 0.02 0.01 0.01 0.00 0.00 0.00 0.00 0.00 0.00 0.00 0.01 0.02 0.03 0.02 0.01 0.01 0.01 0.01 0.01 0.01 0.01 0.01 0.02 0.02 0.02 0.02 0.03 0.03 0.04 0.05 0.05 0.05 0.04 0.04 0.05 0.05 0.05 0.05 0.04 0.04 0.04

GEFSCGP_prec_meanprecacc_174.txt.gz
Total_Precipitation_Accumulation
0.65 0.93 1.00 0.85 0.88 0.95 0.87 0.86 0.87 0.78 0.67 0.71 0.66 0.63 0.67 0.58 0.43 0.34 0.29 0.27 0.27 0.27 0.28 0.25 0.22 0.20 0.19 0.18 0.19 0.24 0.29 0.32 0.34 0.42 0.53 0.62 0.72 0.90 1.11 1.17 1.22 1.36 1.39 1.41
0.70 0.74 0.62 0.64 0.71 0.81 0.79 0.75 0.78 0.69 0.58 0.58 0.62 0.63 0.61 0.52 0.44 0.33 0.29 0.23 0.19 0.22 0.22 0.18 0.16 0.15 0.14 0.11 0.12 0.18 0.27 0.36 0.42 0.48 0.62 0.77 1.00 1.11 1.26 1.41 1.39 1.42 1.47 1.51
0.59 0.52 0.48 0.57 0.68 0.75 0.76 0.68 0.61 0.62 0.60 0.57 0.59 0.71 0.65 0.55 0.44 0.34 0.29 0.23 0.18 0.20 0.18 0.13 0.11 0.13 0.12 0.10 0.11 0.18 0.32 0.51 0.72 0.82 1.05 1.33 1.58 1.66 1.59 1.58 1.62 1.61 1.64 1.70
0.65 0.48 0.48 0.58 0.61 0.62 0.74 0.52 0.44 0.52 0.60 0.67 0.52 0.69 0.59 0.52 0.50 0.38 0.33 0.29 0.22 0.23 0.23 0.17 0.16 0.16 0.14 0.15 0.23 0.38 0.62 0.92 1.17 1.32 1.52 1.72 1.84 1.88 1.81 1.82 1.80 1.78 1.70 1.64
0.67 0.51 0.51 0.57 0.54 0.49 0.59 0.47 0.43 0.49 0.56 0.57 0.45 0.50 0.45 0.43 0.50 0.45 0.42 0.38 0.35 0.33 0.27 0.27 0.29 0.29 0.34 0.43 0.62 0.89 1.15 1.39 1.53 1.59 1.68 1.88 2.04 2.19 2.21 2.09 1.94 1.83 1.79 1.72
0.57 0.50 0.54 0.57 0.51 0.44 0.49 0.53 0.55 0.54 0.57 0.62 0.42 0.37 0.43 0.39 0.42 0.46 0.48 0.43 0.39 0.36 0.35 0.43 0.54 0.65 0.77 0.87 1.04 1.24 1.39 1.53 1.52 1.52 1.58 1.71 1.90 2.06 2.09 2.10 2.07 1.94 1.80 1.70
0.59 0.55 0.52 0.47 0.52 0.51 0.52 0.62 0.75 0.75 0.70 0.60 0.35 0.41 0.41 0.32 0.32 0.39 0.43 0.43 0.41 0.39 0.46 0.65 0.80 0.93 1.04 1.15 1.23 1.26 1.25 1.29 1.31 1.32 1.36 1.44 1.50 1.54 1.60 1.71 1.63 1.50 1.37 1.32
0.47 0.53 0.45 0.38 0.39 0.45 0.48 0.48 0.65 0.72 0.63 0.53 0.40 0.54 0.48 0.35 0.31 0.30 0.34 0.40 0.49 0.62 0.72 0.84 0.93 1.03 1.07 1.20 1.24 1.19 1.16 1.14 1.06 1.01 1.06 1.07 1.12 1.17 1.20 1.22 1.18 1.10 1.05 1.01
0.34 0.40 0.34 0.31 0.29 0.34 0.39 0.38 0.40 0.53 0.50 0.49 0.46 0.56 0.51 0.34 0.28 0.27 0.30 0.38 0.53 0.75 0.99 1.15 1.14 1.03 0.95 0.99 1.06 1.04 0.99 0.93 0.85 0.79 0.82 0.85 0.92 0.95 0.93 0.91 0.86 0.84 0.78 0.79
0.28 0.38 0.38 0.34 0.32 0.32 0.30 0.33 0.41 0.59 0.65 0.64 0.55 0.61 0.53 0.38 0.34 0.31 0.35 0.45 0.63 0.85 1.05 1.32 1.45 1.32 1.03 0.84 0.87 0.83 0.80 0.81 0.80 0.76 0.77 0.77 0.70 0.65 0.66 0.69 0.63 0.62 0.67 0.71
0.21 0.31 0.35 0.34 0.33 0.33 0.30 0.33 0.41 0.54 0.55 0.70 0.89 0.91 0.69 0.57 0.51 0.50 0.53 0.57 0.64 0.91 1.21 1.37 1.41 1.27 1.08 0.80 0.73 0.72 0.69 0.72 0.78 0.71 0.72 0.72 0.62 0.49 0.47 0.47 0.45 0.45 0.49 0.55
0.16 0.28 0.31 0.28 0.26 0.23 0.29 0.35 0.47 0.68 0.69 0.65 0.80 0.86 0.58 0.60 0.69 0.63 0.67 0.74 0.75 0.82 0.87 0.90 1.00 1.01 0.94 0.80 0.73 0.79 0.83 0.82 0.73 0.67 0.63 0.59 0.51 0.44 0.43 0.41 0.38 0.40 0.45 0.47
0.13 0.24 0.34 0.32 0.31 0.28 0.40 0.45 0.39 0.51 0.67 0.67 0.77 0.80 0.51 0.53 0.65 0.65 0.72 0.78 0.79 0.74 0.64 0.58 0.68 0.80 0.75 0.68 0.72 0.80 0.94 0.94 0.85 0.72 0.62 0.57 0.53 0.49 0.47 0.42 0.41 0.41 0.48 0.59
0.10 0.18 0.23 0.28 0.28 0.34 0.60 0.69 0.47 0.53 0.71 0.59 0.57 0.59 0.48 0.48 0.56 0.60 0.68 0.72 0.70 0.61 0.50 0.45 0.43 0.45 0.44 0.46 0.49 0.61 0.87 1.06 1.03 0.93 0.79 0.69 0.61 0.54 0.48 0.44 0.43 0.42 0.45 0.51
0.12 0.14 0.12 0.11 0.14 0.20 0.40 0.46 0.37 0.36 0.35 0.39 0.36 0.40 0.50 0.56 0.58 0.59 0.61 0.53 0.44 0.38 0.33 0.27 0.24 0.23 0.25 0.29 0.36 0.47 0.74 0.94 0.95 0.94 0.82 0.68 0.56 0.46 0.43 0.47 0.49 0.46 0.41 0.44
0.11 0.12 0.09 0.09 0.09 0.11 0.14 0.11 0.11 0.13 0.19 0.25 0.29 0.38 0.45 0.47 0.47 0.51 0.52 0.38 0.32 0.28 0.26 0.25 0.21 0.18 0.14 0.14 0.19 0.29 0.48 0.65 0.71 0.77 0.73 0.57 0.51 0.45 0.40 0.42 0.48 0.49 0.39 0.38
0.11 0.13 0.15 0.11 0.08 0.10 0.10 0.07 0.12 0.15 0.17 0.21 0.31 0.44 0.49 0.51 0.56 0.85 0.89 0.57 0.38 0.34 0.29 0.30 0.29 0.25 0.22 0.18 0.17 0.19 0.26 0.36 0.43 0.47 0.48 0.38 0.36 0.44 0.44 0.45 0.44 0.38 0.32 0.34
0.10 0.14 0.17 0.14 0.12 0.15 0.09 0.06 0.11 0.15 0.15 0.15 0.17 0.20 0.26 0.37 0.51 0.68 0.76 0.62 0.44 0.40 0.32 0.28 0.25 0.23 0.20 0.17 0.16 0.16 0.18 0.21 0.23 0.23 0.20 0.16 0.23 0.33 0.34 0.31 0.28 0.24 0.24 0.29
0.08 0.13 0.16 0.15 0.23 0.20 0.06 0.05 0.06 0.08 0.08 0.06 0.07 0.07 0.09 0.12 0.14 0.16 0.21 0.24 0.22 0.18 0.14 0.10 0.08 0.08 0.07 0.07 0.07 0.06 0.05 0.05 0.05 0.05 0.05 0.06 0.08 0.08 0.08 0.07 0.09 0.12 0.17 0.21
0.06 0.09 0.13 0.14 0.20 0.16 0.06 0.03 0.03 0.05 0.09 0.04 0.02 0.02 0.03 0.06 0.10 0.09 0.15 0.10 0.04 0.03 0.02 0.03 0.04 0.05 0.05 0.04 0.05 0.04 0.04 0.04 0.03 0.04 0.03 0.03 0.04 0.05 0.04 0.03 0.04 0.05 0.08 0.11
0.09 0.10 0.11 0.12 0.18 0.10 0.03 0.03 0.02 0.06 0.06 0.02 0.01 0.01 0.01 0.02 0.03 0.03 0.10 0.08 0.01 0.01 0.02 0.03 0.04 0.04 0.04 0.04 0.03 0.03 0.03 0.03 0.04 0.04 0.03 0.03 0.03 0.05 0.06 0.07 0.05 0.04 0.03 0.04
0.06 0.09 0.08 0.09 0.12 0.09 0.03 0.02 0.03 0.04 0.02 0.01 0.02 0.01 0.01 0.01 0.01 0.02 0.05 0.06 0.01 0.02 0.02 0.03 0.03 0.04 0.04 0.05 0.04 0.03 0.03 0.04 0.05 0.05 0.04 0.03 0.03 0.04 0.05 0.10 0.09 0.06 0.05 0.04
0.04 0.06 0.07 0.06 0.06 0.05 0.03 0.02 0.03 0.02 0.02 0.02 0.02 0.02 0.01 0.01 0.01 0.01 0.03 0.06 0.02 0.01 0.02 0.02 0.02 0.03 0.04 0.05 0.06 0.04 0.04 0.05 0.05 0.05 0.05 0.04 0.03 0.04 0.04 0.06 0.07 0.08 0.05 0.04
0.04 0.04 0.04 0.04 0.04 0.03 0.02 0.01 0.01 0.01 0.01 0.01 0.02 0.03 0.02 0.02 0.01 0.01 0.01 0.05 0.03 0.01 0.01 0.01 0.01 0.02 0.03 0.04 0.06 0.06 0.06 0.08 0.07 0.06 0.05 0.05 0.05 0.05 0.04 0.04 0.05 0.06 0.06 0.05
0.03 0.03 0.04 0.05 0.04 0.02 0.01 0.01 0.01 0.01 0.01 0.01 0.02 0.02 0.03 0.03 0.02 0.01 0.01 0.02 0.02 0.02 0.01 0.01 0.01 0.02 0.02 0.03 0.05 0.06 0.06 0.08 0.09 0.08 0.08 0.08 0.08 0.07 0.06 0.06 0.05 0.05 0.06 0.07
0.02 0.03 0.04 0.04 0.03 0.03 0.02 0.01 0.01 0.01 0.01 0.00 0.00 0.01 0.02 0.03 0.02 0.02 0.01 0.01 0.01 0.01 0.01 0.01 0.01 0.02 0.02 0.02 0.03 0.04 0.04 0.06 0.08 0.09 0.09 0.08 0.09 0.11 0.11 0.09 0.07 0.06 0.06 0.07

GEFSCGP_prec_meanprecacc_180.txt.gz
Total_Precipitation_Accumulation
0.66 0.94 1.00 0.86 0.88 0.95 0.87 0.87 0.87 0.78 0.68 0.74 0.70 0.67 0.73 0.69 0.52 0.37 0.30 0.28 0.28 0.28 0.30 0.28 0.24 0.22 0.21 0.20 0.20 0.24 0.29 0.32 0.34 0.42 0.53 0.62 0.72 0.90 1.11 1.17 1.22 1.36 1.39 1.42
0.70 0.75 0.62 0.65 0.72 0.82 0.80 0.76 0.78 0.70 0.60 0.60 0.66 0.68 0.67 0.62 0.51 0.37 0.30 0.24 0.20 0.22 0.23 0.20 0.18 0.17 0.15 0.12 0.13 0.18 0.27 0.36 0.42 0.48 0.62 0.77 1.00 1.11 1.26 1.41 1.39 1.42 1.47 1.51
0.60 0.53 0.49 0.57 0.69 0.76 0.77 0.68 0.62 0.64 0.61 0.59 0.63 0.76 0.72 0.64 0.49 0.38 0.31 0.24 0.19 0.20 0.19 0.14 0.13 0.14 0.13 0.10 0.11 0.18 0.32 0.51 0.72 0.82 1.05 1.33 1.58 1.66 1.59 1.58 1.62 1.61 1.64 1.70
0.66 0.49 0.49 0.58 0.62 0.63 0.74 0.52 0.45 0.53 0.62 0.69 0.57 0.74 0.64 0.59 0.54 0.41 0.34 0.30 0.23 0.24 0.25 0.18 0.17 0.16 0.15 0.15 0.23 0.38 0.62 0.92 1.17 1.32 1.52 1.72 1.84 1.88 1.81 1.82 1.80 1.78 1.70 1.64
0.67 0.52 0.51 0.57 0.54 0.49 0.60 0.48 0.44 0.51 0.58 0.59 0.48 0.54 0.50 0.46 0.53 0.47 0.44 0.40 0.35 0.33 0.28 0.28 0.30 0.29 0.34 0.44 0.62 0.90 1.15 1.39 1.53 1.59 1.68 1.88 2.04 2.19 2.21 2.09 1.94 1.83 1.80 1.73
0.58 0.51 0.54 0.58 0.51 0.45 0.49 0.54 0.56 0.56 0.59 0.64 0.45 0.40 0.46 0.42 0.43 0.47 0.51 0.45 0.40 0.37 0.36 0.44 0.55 0.66 0.78 0.87 1.04 1.25 1.39 1.53 1.53 1.53 1.58 1.71 1.90 2.07 2.09 2.10 2.07 1.94 1.81 1.71
0.60 0.56 0.53 0.48 0.53 0.52 0.53 0.64 0.77 0.77 0.73 0.63 0.39 0.45 0.44 0.33 0.33 0.39 0.44 0.45 0.42 0.40 0.47 0.66 0.80 0.93 1.05 1.15 1.24 1.27 1.26 1.30 1.31 1.33 1.37 1.44 1.50 1.54 1.60 1.71 1.63 1.50 1.38 1.33
0.48 0.54 0.46 0.39 0.40 0.46 0.49 0.49 0.66 0.74 0.65 0.56 0.44 0.58 0.50 0.36 0.31 0.30 0.34 0.41 0.50 0.63 0.73 0.84 0.94 1.03 1.07 1.20 1.25 1.19 1.16 1.14 1.07 1.01 1.06 1.08 1.12 1.17 1.20 1.22 1.18 1.10 1.05 1.02
0.34 0.41 0.35 0.31 0.30 0.34 0.40 0.39 0.41 0.55 0.51 0.51 0.48 0.58 0.53 0.35 0.29 0.28 0.30 0.38 0.53 0.75 0.99 1.15 1.14 1.04 0.96 1.00 1.07 1.05 1.00 0.94 0.86 0.80 0.83 0.86 0.92 0.95 0.93 0.91 0.86 0.84 0.78 0.79
0.28 0.38 0.38 0.34 0.33 0.33 0.31 0.34 0.42 0.61 0.67 0.65 0.57 0.63 0.55 0.39 0.35 0.32 0.36 0.45 0.63 0.85 1.06 1.33 1.45 1.33 1.05 0.86 0.88 0.85 0.81 0.82 0.80 0.76 0.78 0.78 0.70 0.65 0.66 0.69 0.63 0.62 0.67 0.71
0.21 0.32 0.36 0.35 0.35 0.34 0.31 0.35 0.43 0.57 0.58 0.73 0.92 0.93 0.70 0.58 0.52 0.50 0.53 0.57 0.64 0.92 1.21 1.37 1.42 1.29 1.10 0.82 0.75 0.74 0.70 0.73 0.78 0.71 0.73 0.72 0.62 0.49 0.47 0.47 0.45 0.45 0.49 0.55
0.17 0.28 0.32 0.30 0.28 0.25 0.30 0.36 0.48 0.70 0.72 0.67 0.82 0.87 0.59 0.61 0.70 0.63 0.67 0.74 0.76 0.82 0.87 0.90 1.01 1.02 0.94 0.81 0.74 0.80 0.84 0.83 0.75 0.68 0.63 0.59 0.52 0.44 0.43 0.41 0.38 0.40 0.45 0.47
0.15 0.25 0.35 0.34 0.33 0.30 0.41 0.46 0.39 0.53 0.68 0.68 0.78 0.81 0.52 0.54 0.65 0.66 0.72 0.78 0.79 0.75 0.64 0.58 0.69 0.81 0.76 0.69 0.73 0.81 0.95 0.95 0.86 0.74 0.63 0.58 0.54 0.50 0.47 0.42 0.41 0.41 0.48 0.59
0.11 0.20 0.25 0.30 0.29 0.35 0.61 0.70 0.48 0.54 0.72 0.59 0.57 0.59 0.49 0.50 0.57 0.61 0.68 0.72 0.70 0.61 0.51 0.46 0.44 0.45 0.44 0.46 0.50 0.62 0.89 1.07 1.04 0.94 0.80 0.70 0.62 0.55 0.49 0.44 0.43 0.42 0.45 0.51
0.13 0.16 0.13 0.13 0.15 0.21 0.41 0.46 0.37 0.36 0.35 0.39 0.37 0.40 0.50 0.57 0.59 0.60 0.61 0.53 0.44 0.38 0.33 0.28 0.25 0.24 0.26 0.30 0.37 0.47 0.75 0.95 0.96 0.95 0.83 0.70 0.58 0.47 0.44 0.47 0.49 0.46 0.42 0.44
0.12 0.14 0.11 0.11 0.10 0.12 0.15 0.11 0.11 0.14 0.19 0.25 0.29 0.38 0.45 0.48 0.49 0.53 0.52 0.38 0.32 0.29 0.27 0.26 0.22 0.19 0.15 0.15 0.19 0.29 0.49 0.65 0.72 0.78 0.74 0.59 0.52 0.46 0.41 0.42 0.49 0.49 0.39 0.38
0.13 0.14 0.16 0.13 0.10 0.12 0.11 0.07 0.12 0.16 0.17 0.21 0.31 0.44 0.49 0.51 0.56 0.86 0.89 0.57 0.39 0.34 0.29 0.31 0.30 0.26 0.22 0.19 0.18 0.20 0.27 0.37 0.44 0.48 0.49 0.39 0.37 0.45 0.45 0.46 0.45 0.38 0.32 0.34
0.12 0.15 0.19 0.15 0.14 0.18 0.10 0.06 0.12 0.15 0.15 0.15 0.17 0.20 0.26 0.37 0.51 0.68 0.76 0.62 0.44 0.41 0.32 0.29 0.26 0.24 0.21 0.17 0.16 0.17 0.18 0.22 0.25 0.24 0.21 0.17 0.24 0.34 0.35 0.32 0.29 0.24 0.24 0.29
0.09 0.15 0.19 0.17 0.26 0.22 0.07 0.05 0.07 0.09 0.08 0.06 0.07 0.07 0.09 0.13 0.14 0.16 0.21 0.24 0.22 0.18 0.14 0.11 0.09 0.09 0.08 0.08 0.07 0.07 0.05 0.06 0.06 0.06 0.06 0.07 0.08 0.09 0.09 0.08 0.09 0.12 0.17 0.21
0.07 0.10 0.16 0.17 0.22 0.18 0.08 0.03 0.03 0.06 0.10 0.04 0.03 0.02 0.03 0.06 0.10 0.10 0.15 0.10 0.04 0.03 0.03 0.03 0.05 0.06 0.05 0.05 0.05 0.04 0.04 0.04 0.04 0.04 0.04 0.05 0.04 0.06 0.05 0.05 0.05 0.06 0.08 0.12
0.09 0.11 0.13 0.14 0.20 0.11 0.04 0.03 0.04 0.07 0.07 0.03 0.02 0.01 0.01 0.02 0.03 0.04 0.10 0.08 0.01 0.02 0.02 0.03 0.04 0.05 0.04 0.04 0.04 0.03 0.03 0.04 0.05 0.05 0.05 0.04 0.04 0.06 0.08 0.09 0.07 0.05 0.04 0.05
0.07 0.10 0.09 0.10 0.13 0.11 0.04 0.03 0.05 0.05 0.02 0.02 0.02 0.02 0.01 0.02 0.02 0.02 0.05 0.06 0.01 0.02 0.03 0.04 0.04 0.04 0.05 0.05 0.04 0.04 0.04 0.05 0.06 0.06 0.05 0.04 0.04 0.05 0.06 0.12 0.11 0.08 0.07 0.05
0.04 0.07 0.08 0.07 0.08 0.06 0.05 0.04 0.04 0.03 0.02 0.02 0.03 0.03 0.02 0.01 0.01 0.01 0.03 0.07 0.02 0.01 0.02 0.03 0.04 0.05 0.05 0.06 0.07 0.05 0.06 0.06 0.07 0.07 0.06 0.06 0.05 0.06 0.06 0.07 0.10 0.09 0.07 0.06
0.05 0.04 0.05 0.05 0.04 0.04 0.04 0.04 0.03 0.02 0.02 0.02 0.03 0.03 0.03 0.02 0.01 0.01 0.02 0.05 0.03 0.01 0.02 0.01 0.02 0.04 0.05 0.05 0.07 0.08 0.07 0.09 0.09 0.08 0.07 0.07 0.07 0.07 0.05 0.05 0.07 0.08 0.08 0.07
0.04 0.03 0.05 0.05 0.04 0.04 0.04 0.04 0.03 0.02 0.01 0.01 0.02 0.03 0.03 0.03 0.03 0.02 0.02 0.03 0.03 0.02 0.02 0.01 0.01 0.02 0.03 0.04 0.06 0.07 0.08 0.10 0.10 0.09 0.10 0.09 0.09 0.08 0.08 0.07 0.07 0.07 0.09 0.10
0.02 0.03 0.04 0.04 0.04 0.04 0.04 0.04 0.03 0.02 0.01 0.01 0.01 0.01 0.02 0.03 0.03 0.02 0.02 0.02 0.02 0.02 0.01 0.02 0.01 0.02 0.02 0.02 0.03 0.04 0.05 0.07 0.09 0.10 0.10 0.09 0.11 0.13 0.13 0.11 0.09 0.08 0.09 0.12

GEFSCGP_prec_meanprecacc_186.txt.gz
Total_Precipitation_Accumulation
0.67 0.94 1.01 0.86 0.88 0.95 0.88 0.88 0.88 0.80 0.69 0.75 0.72 0.70 0.76 0.71 0.56 0.40 0.31 0.28 0.29 0.29 0.32 0.29 0.25 0.24 0.23 0.20 0.20 0.24 0.29 0.32 0.34 0.42 0.53 0.62 0.72 0.90 1.11 1.17 1.23 1.37 1.40 1.42
0.71 0.75 0.62 0.65 0.72 0.82 0.80 0.77 0.80 0.71 0.61 0.61 0.68 0.71 0.71 0.64 0.55 0.41 0.32 0.24 0.20 0.23 0.24 0.20 0.19 0.18 0.16 0.13 0.13 0.18 0.27 0.36 0.42 0.48 0.62 0.77 1.00 1.11 1.26 1.41 1.40 1.42 1.48 1.52
0.60 0.53 0.49 0.58 0.69 0.77 0.78 0.70 0.63 0.66 0.63 0.60 0.64 0.80 0.75 0.67 0.52 0.41 0.34 0.26 0.19 0.22 0.20 0.14 0.13 0.15 0.14 0.10 0.12 0.18 0.32 0.51 0.72 0.83 1.06 1.33 1.58 1.66 1.59 1.58 1.62 1.61 1.65 1.71
0.66 0.49 0.49 0.58 0.62 0.64 0.76 0.53 0.46 0.55 0.65 0.71 0.59 0.78 0.67 0.63 0.58 0.42 0.36 0.31 0.24 0.25 0.25 0.19 0.17 0.17 0.16 0.16 0.23 0.39 0.62 0.92 1.17 1.32 1.52 1.73 1.84 1.88 1.81 1.82 1.81 1.79 1.71 1.64
0.67 0.52 0.51 0.58 0.55 0.50 0.61 0.49 0.46 0.53 0.61 0.61 0.50 0.57 0.52 0.49 0.57 0.48 0.45 0.40 0.36 0.34 0.29 0.29 0.30 0.30 0.35 0.45 0.63 0.90 1.15 1.39 1.54 1.59 1.69 1.88 2.04 2.19 2.21 2.09 1.94 1.83 1.80 1.73
0.58 0.51 0.54 0.58 0.52 0.45 0.50 0.56 0.59 0.58 0.61 0.67 0.46 0.42 0.48 0.43 0.45 0.48 0.51 0.45 0.40 0.37 0.36 0.44 0.56 0.66 0.78 0.88 1.05 1.25 1.39 1.54 1.53 1.53 1.58 1.72 1.90 2.07 2.09 2.10 2.07 1.94 1.81 1.71
0.60 0.56 0.53 0.48 0.54 0.53 0.55 0.67 0.79 0.79 0.76 0.65 0.40 0.45 0.45 0.34 0.33 0.40 0.44 0.45 0.42 0.40 0.47 0.66 0.80 0.94 1.05 1.15 1.24 1.27 1.26 1.30 1.32 1.33 1.37 1.44 1.50 1.54 1.60 1.71 1.63 1.50 1.39 1.33
0.48 0.54 0.46 0.39 0.40 0.47 0.50 0.50 0.68 0.76 0.67 0.58 0.46 0.59 0.52 0.36 0.31 0.31 0.34 0.41 0.50 0.63 0.73 0.84 0.94 1.03 1.08 1.20 1.25 1.19 1.17 1.15 1.08 1.02 1.07 1.08 1.12 1.17 1.21 1.22 1.18 1.10 1.05 1.02
0.35 0.41 0.35 0.32 0.30 0.35 0.42 0.41 0.42 0.57 0.53 0.53 0.50 0.60 0.55 0.36 0.29 0.28 0.30 0.39 0.53 0.75 0.99 1.15 1.14 1.04 0.96 1.01 1.07 1.05 1.01 0.95 0.87 0.81 0.84 0.86 0.92 0.95 0.93 0.91 0.87 0.84 0.78 0.79
0.28 0.38 0.38 0.34 0.33 0.34 0.32 0.35 0.43 0.62 0.69 0.67 0.58 0.65 0.57 0.41 0.35 0.32 0.36 0.45 0.63 0.85 1.06 1.33 1.45 1.33 1.05 0.87 0.89 0.85 0.81 0.83 0.82 0.77 0.78 0.78 0.70 0.65 0.66 0.69 0.64 0.62 0.67 0.71
0.21 0.32 0.37 0.35 0.35 0.35 0.32 0.36 0.44 0.59 0.60 0.75 0.95 0.95 0.72 0.60 0.53 0.50 0.53 0.57 0.64 0.92 1.22 1.37 1.42 1.29 1.10 0.83 0.75 0.74 0.70 0.74 0.79 0.72 0.73 0.73 0.62 0.50 0.47 0.47 0.45 0.45 0.49 0.55
0.17 0.29 0.32 0.30 0.28 0.25 0.31 0.37 0.49 0.72 0.74 0.69 0.84 0.89 0.60 0.63 0.71 0.64 0.68 0.75 0.76 0.82 0.88 0.90 1.01 1.02 0.95 0.81 0.75 0.81 0.84 0.84 0.76 0.69 0.64 0.60 0.53 0.45 0.44 0.42 0.38 0.40 0.45 0.47
0.15 0.26 0.35 0.35 0.34 0.31 0.41 0.46 0.40 0.54 0.70 0.70 0.79 0.82 0.53 0.55 0.67 0.67 0.73 0.79 0.80 0.75 0.65 0.59 0.69 0.82 0.77 0.70 0.74 0.82 0.96 0.97 0.88 0.76 0.64 0.59 0.55 0.51 0.48 0.43 0.41 0.41 0.48 0.59
0.12 0.21 0.26 0.30 0.30 0.35 0.62 0.70 0.49 0.55 0.74 0.61 0.58 0.60 0.49 0.51 0.58 0.63 0.70 0.73 0.71 0.61 0.51 0.46 0.45 0.46 0.46 0.48 0.51 0.64 0.90 1.09 1.06 0.96 0.81 0.71 0.63 0.56 0.50 0.44 0.43 0.42 0.45 0.51
0.13 0.16 0.14 0.13 0.15 0.22 0.42 0.47 0.38 0.37 0.35 0.40 0.37 0.40 0.50 0.58 0.61 0.62 0.62 0.54 0.45 0.38 0.33 0.28 0.25 0.26 0.27 0.31 0.38 0.48 0.76 0.97 0.98 0.97 0.84 0.70 0.58 0.48 0.45 0.48 0.50 0.46 0.42 0.44
0.12 0.14 0.11 0.11 0.11 0.13 0.16 0.12 0.11 0.14 0.19 0.25 0.29 0.39 0.45 0.48 0.49 0.54 0.53 0.39 0.33 0.29 0.27 0.26 0.22 0.20 0.16 0.16 0.20 0.30 0.49 0.66 0.73 0.79 0.75 0.59 0.53 0.47 0.42 0.43 0.49 0.50 0.40 0.38
0.13 0.15 0.16 0.13 0.11 0.12 0.11 0.07 0.13 0.16 0.18 0.21 0.31 0.44 0.49 0.51 0.56 0.87 0.90 0.58 0.39 0.34 0.29 0.31 0.30 0.26 0.23 0.19 0.19 0.20 0.27 0.37 0.45 0.50 0.50 0.40 0.38 0.46 0.46 0.46 0.45 0.39 0.32 0.34
0.12 0.16 0.19 0.16 0.15 0.18 0.11 0.07 0.12 0.15 0.15 0.15 0.17 0.21 0.26 0.37 0.51 0.68 0.77 0.62 0.44 0.41 0.32 0.29 0.26 0.24 0.21 0.18 0.17 0.18 0.19 0.22 0.25 0.24 0.22 0.17 0.24 0.35 0.36 0.32 0.29 0.25 0.24 0.30
0.09 0.15 0.20 0.18 0.26 0.23 0.08 0.05 0.08 0.09 0.08 0.06 0.07 0.08 0.09 0.13 0.14 0.16 0.21 0.25 0.23 0.18 0.14 0.11 0.09 0.09 0.08 0.08 0.08 0.07 0.05 0.06 0.06 0.06 0.06 0.07 0.09 0.10 0.10 0.09 0.09 0.13 0.17 0.21
0.07 0.11 0.17 0.19 0.23 0.19 0.08 0.04 0.04 0.07 0.10 0.05 0.03 0.03 0.03 0.06 0.11 0.10 0.15 0.10 0.04 0.03 0.03 0.03 0.05 0.06 0.06 0.05 0.06 0.05 0.04 0.04 0.04 0.05 0.05 0.05 0.05 0.06 0.06 0.05 0.05 0.06 0.09 0.12
0.10 0.12 0.14 0.15 0.22 0.12 0.05 0.04 0.05 0.09 0.09 0.03 0.02 0.02 0.01 0.02 0.03 0.04 0.10 0.08 0.01 0.02 0.02 0.04 0.04 0.05 0.05 0.04 0.04 0.03 0.03 0.04 0.06 0.05 0.05 0.04 0.04 0.06 0.09 0.10 0.08 0.06 0.05 0.06
0.08 0.11 0.10 0.11 0.15 0.13 0.05 0.05 0.06 0.06 0.03 0.02 0.03 0.02 0.02 0.02 0.02 0.02 0.05 0.06 0.01 0.02 0.03 0.05 0.05 0.05 0.05 0.05 0.04 0.04 0.04 0.05 0.07 0.06 0.05 0.04 0.05 0.05 0.07 0.13 0.12 0.10 0.09 0.07
0.05 0.08 0.09 0.08 0.08 0.07 0.05 0.05 0.05 0.05 0.03 0.03 0.04 0.03 0.02 0.02 0.02 0.01 0.03 0.07 0.02 0.02 0.03 0.04 0.05 0.06 0.06 0.06 0.07 0.06 0.06 0.07 0.08 0.07 0.06 0.06 0.06 0.06 0.06 0.08 0.10 0.11 0.09 0.08
0.05 0.05 0.06 0.06 0.05 0.04 0.05 0.06 0.05 0.03 0.03 0.02 0.04 0.04 0.04 0.03 0.02 0.02 0.03 0.06 0.04 0.02 0.02 0.02 0.03 0.05 0.08 0.10 0.11 0.11 0.11 0.12 0.12 0.10 0.08 0.07 0.08 0.08 0.06 0.06 0.08 0.10 0.11 0.10
0.04 0.04 0.05 0.06 0.05 0.04 0.05 0.07 0.07 0.05 0.03 0.02 0.03 0.04 0.05 0.05 0.04 0.03 0.03 0.04 0.03 0.02 0.02 0.02 0.01 0.02 0.04 0.08 0.10 0.12 0.12 0.15 0.15 0.13 0.13 0.11 0.10 0.09 0.09 0.09 0.08 0.09 0.11 0.13
0.02 0.04 0.05 0.05 0.04 0.05 0.05 0.06 0.07 0.07 0.04 0.02 0.02 0.02 0.03 0.04 0.04 0.03 0.03 0.03 0.02 0.02 0.02 0.02 0.01 0.02 0.02 0.03 0.04 0.06 0.07 0.09 0.11 0.13 0.13 0.11 0.12 0.14 0.14 0.13 0.11 0.10 0.10 0.14

GEFSCGP_prec_meanprecacc_192.txt.gz
Total_Precipitation_Accumulation
0.67 0.95 1.03 0.87 0.89 0.96 0.88 0.89 0.92 0.83 0.70 0.78 0.78 0.74 0.78 0.72 0.57 0.43 0.33 0.30 0.30 0.30 0.33 0.30 0.26 0.25 0.24 0.21 0.21 0.25 0.30 0.33 0.35 0.43 0.53 0.63 0.73 0.91 1.11 1.17 1.24 1.39 1.40 1.43
0.73 0.77 0.63 0.66 0.72 0.82 0.81 0.79 0.83 0.73 0.62 0.64 0.73 0.76 0.73 0.66 0.57 0.43 0.34 0.26 0.21 0.23 0.24 0.21 0.20 0.19 0.17 0.13 0.14 0.19 0.27 0.36 0.43 0.48 0.62 0.77 1.00 1.12 1.26 1.41 1.41 1.43 1.49 1.52
0.62 0.55 0.49 0.58 0.69 0.77 0.79 0.72 0.65 0.67 0.64 0.62 0.67 0.84 0.80 0.70 0.55 0.43 0.36 0.27 0.19 0.22 0.21 0.15 0.14 0.16 0.14 0.11 0.12 0.18 0.32 0.52 0.72 0.83 1.06 1.33 1.59 1.67 1.60 1.59 1.64 1.62 1.65 1.72
0.67 0.49 0.49 0.59 0.62 0.65 0.78 0.55 0.47 0.57 0.68 0.74 0.62 0.85 0.73 0.66 0.60 0.45 0.37 0.32 0.24 0.25 0.25 0.20 0.18 0.18 0.16 0.16 0.24 0.40 0.62 0.92 1.18 1.33 1.53 1.74 1.85 1.89 1.82 1.83 1.81 1.79 1.71 1.64
0.68 0.52 0.52 0.59 0.56 0.51 0.61 0.50 0.47 0.56 0.65 0.65 0.54 0.63 0.58 0.52 0.59 0.50 0.46 0.41 0.36 0.34 0.29 0.29 0.31 0.32 0.36 0.45 0.63 0.91 1.16 1.40 1.54 1.60 1.69 1.89 2.05 2.20 2.21 2.10 1.95 1.83 1.80 1.74
0.58 0.51 0.55 0.59 0.52 0.45 0.51 0.56 0.60 0.60 0.66 0.73 0.50 0.46 0.54 0.47 0.47 0.51 0.52 0.45 0.41 0.37 0.36 0.44 0.57 0.68 0.79 0.88 1.06 1.26 1.40 1.54 1.54 1.54 1.58 1.72 1.91 2.07 2.09 2.10 2.07 1.94 1.81 1.72
0.61 0.57 0.53 0.48 0.54 0.54 0.55 0.69 0.84 0.84 0.81 0.70 0.42 0.47 0.49 0.35 0.34 0.41 0.46 0.45 0.42 0.40 0.47 0.66 0.81 0.95 1.05 1.16 1.25 1.28 1.27 1.31 1.32 1.34 1.38 1.44 1.51 1.54 1.60 1.71 1.64 1.51 1.39 1.34
0.48 0.54 0.46 0.39 0.41 0.48 0.51 0.52 0.73 0.81 0.72 0.61 0.47 0.61 0.54 0.37 0.32 0.31 0.35 0.42 0.50 0.63 0.73 0.84 0.94 1.03 1.08 1.21 1.25 1.20 1.17 1.16 1.09 1.03 1.07 1.08 1.12 1.18 1.21 1.22 1.18 1.10 1.05 1.02
0.35 0.41 0.35 0.32 0.30 0.36 0.43 0.42 0.44 0.59 0.55 0.56 0.52 0.61 0.56 0.36 0.29 0.28 0.31 0.39 0.54 0.75 0.99 1.15 1.14 1.04 0.96 1.01 1.08 1.06 1.01 0.96 0.88 0.82 0.85 0.87 0.93 0.96 0.94 0.92 0.87 0.84 0.78 0.79
0.28 0.39 0.39 0.34 0.33 0.34 0.33 0.36 0.44 0.65 0.73 0.73 0.62 0.68 0.61 0.42 0.36 0.32 0.36 0.45 0.64 0.85 1.06 1.33 1.46 1.33 1.05 0.87 0.89 0.85 0.82 0.84 0.82 0.78 0.79 0.79 0.71 0.65 0.67 0.69 0.64 0.62 0.67 0.71
0.21 0.33 0.37 0.36 0.35 0.36 0.33 0.37 0.47 0.62 0.62 0.81 1.02 1.00 0.74 0.62 0.54 0.51 0.54 0.58 0.64 0.92 1.22 1.37 1.42 1.29 1.10 0.83 0.75 0.75 0.71 0.74 0.80 0.73 0.74 0.73 0.63 0.50 0.47 0.47 0.45 0.45 0.49 0.55
0.17 0.29 0.33 0.30 0.28 0.25 0.31 0.38 0.51 0.77 0.78 0.73 0.89 0.94 0.61 0.64 0.72 0.64 0.68 0.75 0.76 0.83 0.88 0.91 1.02 1.02 0.95 0.81 0.75 0.81 0.85 0.85 0.77 0.69 0.65 0.61 0.53 0.45 0.44 0.42 0.38 0.40 0.45 0.47
0.15 0.26 0.36 0.36 0.34 0.31 0.41 0.47 0.41 0.56 0.73 0.74 0.85 0.88 0.54 0.55 0.67 0.68 0.73 0.79 0.80 0.76 0.65 0.59 0.69 0.82 0.77 0.71 0.74 0.82 0.96 0.97 0.89 0.76 0.64 0.60 0.56 0.52 0.49 0.43 0.42 0.41 0.48 0.59
0.12 0.21 0.26 0.32 0.31 0.36 0.62 0.70 0.49 0.56 0.76 0.63 0.61 0.65 0.51 0.52 0.59 0.63 0.70 0.73 0.71 0.61 0.51 0.46 0.45 0.47 0.47 0.48 0.52 0.64 0.90 1.09 1.07 0.96 0.82 0.72 0.64 0.58 0.51 0.45 0.44 0.42 0.45 0.51
0.14 0.17 0.14 0.13 0.15 0.22 0.42 0.47 0.38 0.37 0.37 0.41 0.39 0.42 0.51 0.58 0.61 0.62 0.63 0.54 0.45 0.38 0.34 0.29 0.26 0.27 0.28 0.31 0.38 0.49 0.77 0.97 0.98 0.98 0.85 0.71 0.59 0.50 0.46 0.48 0.50 0.47 0.42 0.44
0.12 0.15 0.12 0.11 0.11 0.13 0.16 0.12 0.11 0.14 0.19 0.26 0.30 0.40 0.45 0.48 0.49 0.54 0.54 0.39 0.33 0.29 0.27 0.26 0.23 0.21 0.17 0.16 0.20 0.30 0.50 0.66 0.74 0.80 0.76 0.61 0.54 0.48 0.43 0.44 0.49 0.50 0.40 0.38
0.14 0.15 0.17 0.14 0.11 0.13 0.12 0.08 0.13 0.16 0.18 0.22 0.32 0.44 0.49 0.51 0.56 0.87 0.90 0.58 0.39 0.34 0.29 0.31 0.30 0.27 0.24 0.20 0.19 0.21 0.27 0.38 0.45 0.50 0.50 0.41 0.40 0.47 0.47 0.47 0.46 0.40 0.33 0.35
0.12 0.16 0.20 0.17 0.16 0.19 0.12 0.07 0.12 0.15 0.16 0.15 0.18 0.21 0.26 0.38 0.51 0.68 0.77 0.63 0.44 0.41 0.32 0.29 0.27 0.25 0.22 0.19 0.18 0.18 0.19 0.22 0.26 0.25 0.22 0.18 0.25 0.36 0.37 0.32 0.30 0.26 0.26 0.31
0.09 0.16 0.22 0.19 0.28 0.24 0.08 0.06 0.08 0.10 0.09 0.06 0.07 0.08 0.10 0.13 0.15 0.17 0.22 0.25 0.23 0.18 0.14 0.11 0.09 0.09 0.09 0.09 0.08 0.08 0.06 0.06 0.07 0.07 0.07 0.08 0.09 0.10 0.10 0.09 0.10 0.14 0.19 0.24
0.07 0.11 0.19 0.21 0.26 0.21 0.09 0.04 0.04 0.08 0.11 0.05 0.03 0.03 0.03 0.07 0.11 0.10 0.16 0.10 0.04 0.03 0.03 0.04 0.05 0.06 0.06 0.05 0.06 0.05 0.05 0.05 0.05 0.05 0.05 0.05 0.05 0.07 0.06 0.05 0.06 0.08 0.12 0.15
0.11 0.13 0.15 0.17 0.24 0.14 0.06 0.04 0.05 0.11 0.11 0.04 0.03 0.02 0.01 0.02 0.03 0.04 0.11 0.08 0.01 0.02 0.03 0.04 0.05 0.05 0.05 0.04 0.04 0.04 0.04 0.05 0.06 0.06 0.05 0.04 0.04 0.06 0.09 0.10 0.08 0.08 0.07 0.08
0.10 0.13 0.11 0.12 0.17 0.14 0.05 0.05 0.07 0.08 0.04 0.03 0.03 0.03 0.02 0.02 0.02 0.02 0.05 0.07 0.01 0.02 0.03 0.05 0.05 0.05 0.05 0.05 0.04 0.04 0.04 0.06 0.07 0.07 0.06 0.05 0.05 0.05 0.07 0.13 0.12 0.11 0.10 0.08
0.07 0.09 0.11 0.10 0.09 0.07 0.06 0.06 0.06 0.06 0.04 0.03 0.04 0.04 0.02 0.02 0.02 0.02 0.04 0.08 0.03 0.02 0.03 0.04 0.06 0.06 0.06 0.07 0.07 0.06 0.06 0.07 0.08 0.08 0.07 0.06 0.06 0.06 0.06 0.08 0.11 0.11 0.10 0.09
0.06 0.06 0.08 0.07 0.06 0.05 0.06 0.07 0.06 0.04 0.03 0.03 0.04 0.05 0.04 0.03 0.03 0.03 0.04 0.07 0.05 0.02 0.02 0.02 0.03 0.06 0.09 0.10 0.11 0.12 0.12 0.13 0.13 0.11 0.09 0.08 0.08 0.09 0.07 0.07 0.09 0.11 0.12 0.12
0.05 0.04 0.06 0.07 0.06 0.05 0.06 0.08 0.08 0.06 0.03 0.03 0.04 0.05 0.05 0.06 0.05 0.05 0.04 0.05 0.04 0.04 0.03 0.02 0.02 0.03 0.05 0.08 0.10 0.12 0.13 0.16 0.16 0.16 0.15 0.13 0.12 0.10 0.10 0.10 0.09 0.10 0.12 0.15
0.03 0.04 0.06 0.06 0.05 0.05 0.05 0.06 0.08 0.08 0.06 0.04 0.03 0.03 0.04 0.06 0.06 0.05 0.05 0.04 0.03 0.03 0.02 0.02 0.02 0.02 0.03 0.03 0.04 0.06 0.07 0.10 0.13 0.16 0.16 0.13 0.14 0.16 0.16 0.14 0.12 0.11 0.12 0.15

GEFSCGP_prec_meanprecacc_198.txt.gz
Total_Precipitation_Accumulation
0.69 0.98 1.05 0.88 0.90 0.96 0.88 0.89 0.93 0.85 0.72 0.81 0.81 0.76 0.80 0.74 0.59 0.45 0.36 0.34 0.32 0.31 0.33 0.30 0.27 0.25 0.24 0.22 0.22 0.26 0.30 0.33 0.35 0.43 0.54 0.63 0.73 0.91 1.12 1.18 1.25 1.39 1.41 1.43
0.75 0.79 0.64 0.66 0.73 0.82 0.81 0.79 0.83 0.74 0.63 0.66 0.74 0.78 0.75 0.67 0.59 0.46 0.36 0.29 0.22 0.24 0.25 0.22 0.21 0.20 0.18 0.14 0.14 0.19 0.28 0.37 0.43 0.49 0.62 0.77 1.01 1.12 1.26 1.42 1.41 1.44 1.49 1.53
0.64 0.56 0.50 0.58 0.70 0.78 0.79 0.72 0.66 0.69 0.66 0.63 0.68 0.87 0.81 0.72 0.58 0.46 0.37 0.28 0.20 0.22 0.21 0.16 0.15 0.16 0.15 0.11 0.13 0.19 0.33 0.52 0.73 0.84 1.06 1.33 1.59 1.67 1.60 1.59 1.64 1.63 1.66 1.72
0.70 0.51 0.50 0.59 0.63 0.65 0.78 0.55 0.47 0.58 0.69 0.77 0.64 0.87 0.76 0.68 0.62 0.47 0.39 0.33 0.25 0.25 0.26 0.20 0.19 0.18 0.17 0.17 0.25 0.41 0.64 0.94 1.19 1.34 1.53 1.74 1.85 1.89 1.82 1.83 1.81 1.80 1.71 1.65
0.71 0.54 0.53 0.60 0.56 0.51 0.62 0.50 0.48 0.57 0.67 0.67 0.56 0.65 0.61 0.55 0.62 0.54 0.49 0.42 0.37 0.34 0.29 0.29 0.32 0.32 0.37 0.46 0.64 0.92 1.17 1.41 1.56 1.61 1.70 1.90 2.05 2.20 2.22 2.10 1.95 1.83 1.80 1.74
0.61 0.53 0.56 0.60 0.52 0.46 0.51 0.57 0.60 0.61 0.68 0.75 0.52 0.49 0.57 0.49 0.50 0.54 0.55 0.47 0.41 0.38 0.37 0.45 0.57 0.69 0.80 0.89 1.07 1.27 1.41 1.55 1.55 1.55 1.60 1.73 1.92 2.08 2.10 2.11 2.08 1.94 1.81 1.72
0.63 0.59 0.54 0.48 0.55 0.54 0.56 0.69 0.84 0.85 0.83 0.72 0.44 0.49 0.52 0.37 0.36 0.44 0.48 0.47 0.43 0.40 0.47 0.66 0.82 0.95 1.06 1.16 1.26 1.28 1.28 1.33 1.34 1.35 1.39 1.46 1.53 1.55 1.61 1.71 1.64 1.51 1.39 1.35
0.50 0.56 0.47 0.39 0.41 0.48 0.51 0.52 0.73 0.83 0.75 0.65 0.49 0.63 0.57 0.39 0.34 0.33 0.37 0.44 0.51 0.63 0.73 0.85 0.94 1.04 1.09 1.22 1.26 1.21 1.18 1.17 1.11 1.05 1.09 1.11 1.15 1.20 1.22 1.23 1.18 1.10 1.06 1.02
0.36 0.42 0.35 0.32 0.30 0.36 0.43 0.42 0.44 0.60 0.58 0.60 0.54 0.64 0.58 0.38 0.32 0.31 0.33 0.41 0.55 0.76 1.01 1.16 1.15 1.05 0.97 1.03 1.09 1.07 1.02 0.97 0.89 0.83 0.86 0.89 0.95 0.98 0.95 0.92 0.87 0.85 0.79 0.79
0.29 0.39 0.39 0.34 0.33 0.34 0.33 0.36 0.45 0.66 0.76 0.76 0.65 0.70 0.65 0.47 0.38 0.35 0.39 0.49 0.67 0.88 1.08 1.34 1.47 1.34 1.06 0.89 0.91 0.87 0.83 0.85 0.83 0.79 0.81 0.81 0.73 0.67 0.67 0.70 0.64 0.63 0.67 0.71
0.22 0.33 0.37 0.36 0.36 0.36 0.34 0.38 0.48 0.63 0.63 0.83 1.06 1.04 0.77 0.65 0.56 0.53 0.58 0.63 0.69 0.98 1.26 1.39 1.43 1.31 1.12 0.85 0.77 0.76 0.72 0.75 0.81 0.73 0.75 0.75 0.65 0.52 0.49 0.48 0.45 0.45 0.49 0.55
0.18 0.30 0.34 0.30 0.28 0.25 0.31 0.38 0.51 0.78 0.79 0.75 0.92 0.98 0.63 0.65 0.74 0.67 0.72 0.79 0.80 0.88 0.93 0.94 1.04 1.05 0.98 0.84 0.77 0.82 0.86 0.85 0.77 0.70 0.65 0.62 0.54 0.47 0.46 0.43 0.38 0.40 0.45 0.47
0.16 0.26 0.37 0.36 0.35 0.32 0.42 0.47 0.42 0.57 0.73 0.75 0.89 0.94 0.58 0.57 0.68 0.69 0.76 0.81 0.82 0.77 0.68 0.61 0.71 0.84 0.79 0.72 0.76 0.84 0.98 0.98 0.89 0.76 0.65 0.60 0.56 0.53 0.51 0.45 0.42 0.41 0.48 0.59
0.12 0.21 0.27 0.32 0.32 0.37 0.63 0.71 0.50 0.57 0.77 0.64 0.63 0.70 0.54 0.52 0.59 0.64 0.72 0.76 0.72 0.62 0.53 0.47 0.46 0.49 0.48 0.49 0.53 0.66 0.92 1.10 1.07 0.96 0.82 0.72 0.65 0.59 0.52 0.46 0.45 0.42 0.46 0.52
0.14 0.17 0.14 0.14 0.16 0.22 0.43 0.47 0.38 0.38 0.38 0.43 0.40 0.44 0.53 0.59 0.62 0.64 0.65 0.56 0.47 0.40 0.35 0.29 0.27 0.28 0.29 0.32 0.40 0.50 0.78 0.98 0.99 0.98 0.85 0.71 0.60 0.51 0.48 0.51 0.52 0.48 0.43 0.45
0.13 0.15 0.12 0.11 0.11 0.13 0.17 0.13 0.12 0.14 0.19 0.27 0.31 0.41 0.46 0.49 0.50 0.55 0.55 0.41 0.35 0.31 0.29 0.28 0.24 0.21 0.18 0.17 0.21 0.30 0.50 0.67 0.74 0.80 0.76 0.61 0.54 0.49 0.44 0.45 0.51 0.52 0.42 0.40
0.14 0.16 0.17 0.14 0.11 0.13 0.12 0.08 0.13 0.16 0.18 0.22 0.32 0.44 0.50 0.52 0.57 0.87 0.91 0.59 0.40 0.37 0.32 0.33 0.32 0.28 0.24 0.21 0.20 0.21 0.28 0.38 0.45 0.50 0.50 0.42 0.41 0.48 0.47 0.48 0.47 0.42 0.35 0.36
0.12 0.16 0.21 0.17 0.16 0.20 0.12 0.07 0.12 0.16 0.16 0.15 0.18 0.21 0.26 0.38 0.52 0.69 0.78 0.63 0.45 0.42 0.35 0.31 0.28 0.26 0.23 0.19 0.18 0.19 0.20 0.23 0.26 0.25 0.22 0.18 0.26 0.37 0.39 0.35 0.32 0.28 0.29 0.32
0.09 0.16 0.22 0.20 0.29 0.25 0.09 0.06 0.08 0.10 0.09 0.07 0.08 0.08 0.10 0.14 0.15 0.17 0.22 0.26 0.23 0.19 0.16 0.13 0.11 0.11 0.10 0.09 0.09 0.09 0.06 0.07 0.07 0.07 0.07 0.08 0.09 0.11 0.12 0.11 0.12 0.17 0.22 0.27
0.08 0.12 0.19 0.21 0.27 0.22 0.09 0.04 0.04 0.08 0.12 0.05 0.03 0.03 0.04 0.07 0.12 0.11 0.16 0.11 0.05 0.04 0.03 0.05 0.07 0.08 0.07 0.06 0.07 0.06 0.05 0.05 0.05 0.05 0.06 0.06 0.06 0.07 0.06 0.06 0.07 0.10 0.14 0.18
0.11 0.13 0.15 0.17 0.24 0.14 0.06 0.04 0.06 0.11 0.12 0.04 0.03 0.02 0.02 0.03 0.04 0.05 0.11 0.09 0.02 0.03 0.04 0.05 0.07 0.07 0.06 0.05 0.05 0.04 0.04 0.05 0.07 0.07 0.06 0.05 0.05 0.06 0.09 0.11 0.09 0.09 0.09 0.10
0.10 0.14 0.12 0.13 0.17 0.15 0.05 0.05 0.08 0.08 0.04 0.03 0.04 0.03 0.02 0.03 0.03 0.03 0.06 0.07 0.02 0.03 0.05 0.06 0.07 0.06 0.06 0.06 0.05 0.04 0.04 0.06 0.08 0.07 0.07 0.06 0.06 0.06 0.07 0.13 0.13 0.12 0.11 0.09
0.08 0.10 0.12 0.11 0.10 0.08 0.06 0.06 0.06 0.06 0.04 0.03 0.04 0.04 0.03 0.02 0.02 0.02 0.04 0.09 0.04 0.04 0.04 0.06 0.08 0.08 0.08 0.08 0.08 0.07 0.07 0.08 0.09 0.09 0.08 0.08 0.07 0.07 0.06 0.08 0.11 0.12 0.10 0.10
0.07 0.06 0.08 0.08 0.07 0.05 0.06 0.07 0.06 0.04 0.03 0.03 0.04 0.05 0.04 0.04 0.03 0.03 0.04 0.08 0.07 0.06 0.04 0.05 0.05 0.08 0.11 0.12 0.12 0.12 0.13 0.14 0.14 0.12 0.11 0.10 0.10 0.10 0.09 0.09 0.11 0.13 0.14 0.13
0.05 0.05 0.06 0.08 0.07 0.05 0.06 0.08 0.09 0.06 0.04 0.03 0.04 0.05 0.05 0.06 0.06 0.05 0.05 0.05 0.06 0.09 0.08 0.05 0.05 0.05 0.08 0.11 0.12 0.13 0.13 0.16 0.17 0.16 0.16 0.15 0.14 0.14 0.14 0.14 0.13 0.13 0.16 0.18
0.03 0.05 0.06 0.07 0.06 0.06 0.06 0.07 0.09 0.09 0.06 0.04 0.03 0.03 0.05 0.06 0.06 0.06 0.06 0.05 0.05 0.05 0.06 0.06 0.06 0.05 0.05 0.05 0.06 0.07 0.08 0.10 0.13 0.17 0.17 0.14 0.15 0.18 0.19 0.17 0.15 0.14 0.14 0.17

GEFSCGP_prec_meanprecacc_204.txt.gz
Total_Precipitation_Accumulation
0.70 0.99 1.07 0.89 0.90 0.96 0.88 0.89 0.93 0.85 0.73 0.82 0.82 0.77 0.81 0.75 0.60 0.46 0.37 0.36 0.34 0.34 0.35 0.31 0.27 0.26 0.26 0.24 0.23 0.27 0.31 0.35 0.36 0.44 0.54 0.63 0.74 0.92 1.12 1.18 1.25 1.40 1.42 1.44
0.76 0.81 0.65 0.67 0.73 0.83 0.81 0.79 0.84 0.74 0.64 0.66 0.75 0.79 0.76 0.69 0.61 0.48 0.38 0.30 0.24 0.25 0.26 0.23 0.22 0.20 0.19 0.16 0.16 0.21 0.29 0.38 0.43 0.49 0.63 0.78 1.01 1.13 1.27 1.42 1.42 1.45 1.51 1.54
0.65 0.57 0.51 0.59 0.70 0.78 0.79 0.72 0.66 0.69 0.66 0.64 0.69 0.87 0.82 0.74 0.60 0.48 0.39 0.29 0.22 0.23 0.22 0.17 0.16 0.18 0.17 0.14 0.15 0.21 0.34 0.54 0.74 0.84 1.07 1.33 1.59 1.67 1.61 1.60 1.65 1.64 1.66 1.73
0.71 0.51 0.51 0.61 0.64 0.66 0.78 0.55 0.48 0.58 0.69 0.77 0.64 0.88 0.77 0.70 0.64 0.50 0.41 0.34 0.25 0.26 0.26 0.21 0.21 0.20 0.18 0.19 0.27 0.42 0.65 0.96 1.21 1.35 1.53 1.74 1.85 1.89 1.83 1.84 1.82 1.80 1.72 1.65
0.71 0.55 0.54 0.61 0.57 0.51 0.62 0.50 0.48 0.57 0.67 0.67 0.57 0.68 0.64 0.58 0.64 0.56 0.51 0.45 0.38 0.35 0.30 0.30 0.33 0.34 0.37 0.47 0.65 0.93 1.18 1.42 1.58 1.63 1.71 1.90 2.05 2.21 2.23 2.12 1.96 1.84 1.81 1.75
0.62 0.54 0.57 0.61 0.53 0.46 0.51 0.57 0.60 0.61 0.68 0.76 0.53 0.51 0.61 0.53 0.52 0.56 0.57 0.51 0.44 0.40 0.38 0.46 0.59 0.69 0.80 0.90 1.07 1.28 1.42 1.56 1.56 1.56 1.61 1.73 1.92 2.08 2.10 2.12 2.08 1.95 1.82 1.72
0.64 0.60 0.55 0.50 0.55 0.54 0.56 0.69 0.85 0.86 0.83 0.72 0.45 0.51 0.55 0.39 0.37 0.45 0.51 0.50 0.46 0.42 0.49 0.68 0.83 0.96 1.07 1.17 1.26 1.29 1.28 1.33 1.34 1.36 1.40 1.47 1.53 1.56 1.62 1.72 1.64 1.51 1.40 1.35
0.51 0.57 0.48 0.40 0.41 0.48 0.51 0.53 0.74 0.83 0.75 0.65 0.50 0.65 0.59 0.40 0.34 0.35 0.39 0.47 0.54 0.65 0.75 0.86 0.97 1.06 1.10 1.22 1.27 1.21 1.19 1.18 1.11 1.05 1.10 1.11 1.15 1.20 1.23 1.24 1.19 1.11 1.06 1.03
0.36 0.43 0.37 0.32 0.30 0.36 0.43 0.42 0.44 0.60 0.58 0.61 0.55 0.65 0.59 0.38 0.32 0.32 0.34 0.43 0.58 0.77 1.01 1.18 1.18 1.08 0.99 1.04 1.10 1.08 1.03 0.98 0.90 0.84 0.87 0.90 0.96 0.98 0.95 0.92 0.87 0.85 0.79 0.80
0.29 0.40 0.39 0.35 0.33 0.34 0.33 0.36 0.45 0.67 0.76 0.78 0.66 0.72 0.66 0.47 0.39 0.35 0.39 0.50 0.69 0.89 1.10 1.36 1.49 1.36 1.08 0.90 0.93 0.89 0.85 0.87 0.85 0.80 0.83 0.83 0.75 0.68 0.68 0.70 0.64 0.63 0.67 0.71
0.22 0.33 0.38 0.36 0.36 0.36 0.34 0.39 0.48 0.63 0.64 0.84 1.07 1.06 0.79 0.66 0.56 0.53 0.58 0.64 0.72 1.00 1.29 1.43 1.47 1.33 1.14 0.87 0.79 0.77 0.74 0.77 0.82 0.74 0.76 0.76 0.66 0.53 0.49 0.48 0.46 0.46 0.49 0.55
0.18 0.30 0.34 0.31 0.28 0.26 0.31 0.38 0.52 0.78 0.80 0.75 0.94 1.00 0.64 0.66 0.74 0.68 0.73 0.79 0.82 0.91 0.96 0.97 1.07 1.08 1.00 0.86 0.79 0.84 0.88 0.87 0.79 0.70 0.66 0.63 0.56 0.48 0.47 0.44 0.39 0.41 0.46 0.48
0.16 0.27 0.37 0.36 0.35 0.32 0.42 0.47 0.42 0.57 0.74 0.75 0.90 0.95 0.58 0.57 0.69 0.70 0.76 0.82 0.83 0.79 0.69 0.63 0.73 0.87 0.80 0.74 0.78 0.86 1.00 1.00 0.90 0.77 0.66 0.62 0.58 0.55 0.52 0.46 0.43 0.42 0.49 0.59
0.12 0.21 0.27 0.32 0.32 0.37 0.63 0.71 0.50 0.58 0.77 0.65 0.63 0.71 0.54 0.52 0.60 0.65 0.72 0.76 0.73 0.64 0.54 0.48 0.48 0.51 0.50 0.51 0.54 0.67 0.94 1.12 1.08 0.97 0.82 0.73 0.66 0.61 0.53 0.48 0.46 0.43 0.46 0.53
0.14 0.17 0.15 0.14 0.16 0.22 0.43 0.48 0.39 0.39 0.38 0.44 0.41 0.44 0.53 0.59 0.62 0.64 0.65 0.57 0.47 0.41 0.36 0.31 0.29 0.30 0.31 0.34 0.41 0.51 0.80 1.00 1.00 0.99 0.85 0.71 0.61 0.53 0.49 0.52 0.53 0.48 0.43 0.45
0.13 0.15 0.12 0.11 0.11 0.14 0.17 0.13 0.12 0.14 0.20 0.27 0.31 0.41 0.46 0.49 0.50 0.55 0.55 0.41 0.36 0.32 0.30 0.29 0.25 0.23 0.20 0.19 0.22 0.32 0.52 0.69 0.76 0.81 0.77 0.62 0.55 0.49 0.44 0.46 0.52 0.53 0.42 0.40
0.14 0.16 0.18 0.14 0.11 0.13 0.12 0.08 0.13 0.16 0.18 0.22 0.32 0.44 0.50 0.52 0.57 0.88 0.91 0.59 0.41 0.37 0.32 0.34 0.33 0.29 0.26 0.22 0.21 0.22 0.29 0.39 0.46 0.51 0.52 0.43 0.41 0.48 0.47 0.48 0.47 0.42 0.35 0.37
0.12 0.17 0.21 0.18 0.16 0.20 0.12 0.07 0.12 0.16 0.16 0.15 0.18 0.21 0.26 0.38 0.52 0.69 0.78 0.63 0.45 0.42 0.35 0.32 0.29 0.27 0.24 0.21 0.20 0.20 0.21 0.23 0.26 0.26 0.24 0.20 0.27 0.38 0.39 0.35 0.33 0.29 0.30 0.34
0.09 0.17 0.23 0.21 0.29 0.25 0.09 0.06 0.08 0.10 0.09 0.07 0.08 0.08 0.10 0.14 0.15 0.17 0.22 0.26 0.23 0.19 0.16 0.13 0.12 0.11 0.11 0.10 0.10 0.10 0.07 0.07 0.08 0.07 0.07 0.09 0.10 0.11 0.12 0.11 0.13 0.18 0.24 0.28
0.08 0.12 0.20 0.22 0.27 0.23 0.10 0.04 0.04 0.08 0.12 0.05 0.03 0.03 0.04 0.07 0.12 0.11 0.16 0.11 0.05 0.04 0.04 0.05 0.08 0.08 0.08 0.07 0.08 0.06 0.06 0.05 0.05 0.06 0.06 0.07 0.06 0.07 0.07 0.07 0.08 0.11 0.15 0.20
0.12 0.14 0.16 0.18 0.25 0.15 0.06 0.04 0.06 0.11 0.12 0.04 0.03 0.02 0.02 0.03 0.04 0.05 0.11 0.09 0.02 0.03 0.04 0.05 0.07 0.07 0.07 0.07 0.07 0.06 0.06 0.07 0.08 0.08 0.07 0.06 0.05 0.07 0.10 0.12 0.10 0.11 0.10 0.11
0.11 0.15 0.13 0.13 0.18 0.15 0.05 0.05 0.08 0.08 0.05 0.03 0.04 0.03 0.02 0.03 0.03 0.03 0.06 0.07 0.02 0.03 0.05 0.07 0.07 0.07 0.07 0.08 0.07 0.07 0.06 0.08 0.10 0.09 0.08 0.07 0.07 0.07 0.08 0.15 0.15 0.13 0.13 0.10
0.09 0.12 0.13 0.11 0.10 0.08 0.06 0.06 0.06 0.06 0.04 0.03 0.04 0.04 0.03 0.02 0.02 0.02 0.04 0.09 0.04 0.04 0.05 0.06 0.08 0.09 0.09 0.09 0.09 0.08 0.09 0.10 0.11 0.11 0.10 0.10 0.09 0.10 0.09 0.10 0.13 0.14 0.12 0.11
0.07 0.07 0.10 0.09 0.07 0.05 0.06 0.08 0.06 0.05 0.03 0.03 0.04 0.05 0.04 0.04 0.03 0.03 0.04 0.08 0.07 0.06 0.05 0.05 0.06 0.08 0.12 0.13 0.14 0.13 0.13 0.15 0.15 0.14 0.14 0.12 0.13 0.13 0.13 0.13 0.15 0.16 0.17 0.17
0.06 0.06 0.07 0.09 0.07 0.05 0.06 0.08 0.09 0.06 0.04 0.03 0.04 0.05 0.06 0.06 0.06 0.05 0.05 0.05 0.06 0.09 0.08 0.06 0.05 0.06 0.09 0.12 0.13 0.15 0.15 0.17 0.19 0.19 0.18 0.18 0.17 0.17 0.18 0.18 0.18 0.18 0.20 0.23
0.04 0.05 0.07 0.08 0.06 0.06 0.06 0.07 0.09 0.09 0.07 0.04 0.03 0.03 0.05 0.06 0.06 0.06 0.06 0.06 0.06 0.06 0.07 0.07 0.06 0.06 0.06 0.06 0.07 0.09 0.11 0.13 0.16 0.20 0.19 0.17 0.18 0.21 0.21 0.20 0.18 0.17 0.18 0.22

GEFSCGP_prec_meanprecacc_210.txt.gz
Total_Precipitation_Accumulation
0.70 1.00 1.07 0.90 0.91 0.97 0.88 0.89 0.93 0.86 0.73 0.83 0.83 0.77 0.81 0.76 0.61 0.47 0.40 0.39 0.36 0.37 0.37 0.33 0.29 0.30 0.28 0.26 0.24 0.28 0.34 0.36 0.38 0.45 0.55 0.65 0.75 0.93 1.14 1.20 1.27 1.41 1.43 1.44
0.77 0.81 0.66 0.68 0.74 0.83 0.81 0.80 0.84 0.75 0.64 0.67 0.76 0.79 0.77 0.70 0.62 0.49 0.40 0.31 0.26 0.28 0.27 0.24 0.23 0.22 0.21 0.18 0.17 0.22 0.31 0.39 0.44 0.50 0.64 0.78 1.02 1.14 1.28 1.43 1.42 1.45 1.51 1.54
0.65 0.57 0.52 0.60 0.71 0.78 0.79 0.72 0.66 0.69 0.66 0.64 0.70 0.88 0.84 0.76 0.61 0.50 0.40 0.31 0.24 0.26 0.23 0.18 0.17 0.18 0.17 0.15 0.18 0.23 0.36 0.56 0.75 0.85 1.08 1.34 1.59 1.68 1.61 1.61 1.66 1.64 1.66 1.73
0.71 0.52 0.52 0.61 0.64 0.66 0.79 0.55 0.48 0.58 0.70 0.78 0.65 0.89 0.78 0.72 0.66 0.51 0.43 0.35 0.27 0.28 0.28 0.22 0.21 0.20 0.18 0.20 0.29 0.45 0.67 0.97 1.22 1.36 1.54 1.75 1.86 1.89 1.83 1.85 1.83 1.81 1.72 1.66
0.71 0.55 0.55 0.62 0.57 0.52 0.62 0.50 0.48 0.57 0.67 0.68 0.58 0.69 0.65 0.58 0.65 0.57 0.52 0.46 0.39 0.37 0.31 0.31 0.33 0.34 0.38 0.47 0.65 0.94 1.19 1.43 1.59 1.64 1.72 1.91 2.06 2.21 2.23 2.12 1.97 1.85 1.82 1.75
0.62 0.54 0.57 0.62 0.53 0.46 0.51 0.57 0.60 0.61 0.68 0.76 0.54 0.53 0.63 0.55 0.54 0.58 0.59 0.51 0.44 0.41 0.39 0.46 0.59 0.70 0.81 0.90 1.08 1.28 1.42 1.56 1.56 1.57 1.62 1.74 1.92 2.08 2.11 2.13 2.09 1.96 1.83 1.73
0.64 0.61 0.56 0.50 0.56 0.54 0.56 0.70 0.85 0.86 0.84 0.73 0.46 0.53 0.57 0.41 0.39 0.46 0.52 0.51 0.46 0.43 0.50 0.68 0.83 0.97 1.08 1.18 1.27 1.29 1.29 1.33 1.35 1.37 1.40 1.47 1.53 1.56 1.63 1.73 1.65 1.52 1.41 1.36
0.51 0.57 0.48 0.41 0.43 0.49 0.52 0.53 0.74 0.84 0.76 0.66 0.51 0.66 0.60 0.42 0.37 0.36 0.40 0.48 0.55 0.65 0.75 0.87 0.98 1.07 1.11 1.23 1.28 1.22 1.19 1.18 1.11 1.06 1.10 1.12 1.15 1.20 1.23 1.24 1.19 1.11 1.07 1.04
0.36 0.43 0.37 0.33 0.31 0.36 0.43 0.43 0.45 0.60 0.58 0.61 0.55 0.66 0.60 0.40 0.35 0.35 0.36 0.45 0.60 0.78 1.02 1.19 1.19 1.09 1.00 1.05 1.12 1.09 1.04 0.98 0.90 0.84 0.87 0.90 0.96 0.98 0.96 0.93 0.88 0.86 0.80 0.80
0.29 0.40 0.40 0.36 0.34 0.35 0.34 0.37 0.46 0.67 0.77 0.78 0.66 0.73 0.67 0.48 0.41 0.39 0.42 0.53 0.72 0.90 1.10 1.37 1.50 1.37 1.10 0.92 0.94 0.90 0.86 0.88 0.85 0.81 0.83 0.83 0.75 0.68 0.68 0.70 0.65 0.63 0.67 0.71
0.22 0.34 0.38 0.37 0.36 0.36 0.34 0.39 0.49 0.63 0.64 0.84 1.08 1.08 0.80 0.67 0.58 0.56 0.61 0.67 0.76 1.01 1.29 1.43 1.47 1.34 1.15 0.88 0.80 0.78 0.75 0.78 0.82 0.75 0.77 0.77 0.67 0.54 0.50 0.49 0.46 0.46 0.50 0.56
0.18 0.30 0.35 0.31 0.29 0.26 0.32 0.39 0.52 0.79 0.80 0.76 0.95 1.01 0.64 0.67 0.76 0.69 0.75 0.84 0.86 0.92 0.96 0.97 1.08 1.08 1.01 0.87 0.80 0.85 0.88 0.88 0.80 0.72 0.67 0.64 0.57 0.49 0.48 0.44 0.40 0.42 0.46 0.49
0.16 0.27 0.37 0.37 0.35 0.32 0.42 0.47 0.42 0.57 0.74 0.76 0.90 0.95 0.59 0.58 0.69 0.70 0.77 0.85 0.85 0.80 0.70 0.64 0.74 0.88 0.82 0.76 0.79 0.87 1.01 1.00 0.91 0.78 0.67 0.63 0.59 0.55 0.52 0.46 0.44 0.43 0.50 0.60
0.12 0.22 0.27 0.32 0.32 0.37 0.63 0.71 0.50 0.58 0.78 0.65 0.64 0.71 0.55 0.52 0.60 0.65 0.72 0.77 0.74 0.65 0.55 0.49 0.49 0.52 0.52 0.53 0.56 0.69 0.95 1.13 1.09 0.97 0.83 0.73 0.67 0.61 0.54 0.48 0.46 0.43 0.47 0.53
0.14 0.17 0.15 0.14 0.16 0.22 0.43 0.48 0.39 0.39 0.39 0.44 0.41 0.45 0.53 0.59 0.62 0.64 0.65 0.57 0.47 0.41 0.36 0.31 0.29 0.31 0.32 0.37 0.44 0.53 0.82 1.02 1.02 1.00 0.86 0.72 0.61 0.53 0.50 0.53 0.54 0.48 0.44 0.46
0.13 0.15 0.12 0.11 0.11 0.14 0.17 0.13 0.12 0.15 0.20 0.27 0.32 0.41 0.46 0.49 0.50 0.55 0.55 0.41 0.36 0.32 0.30 0.29 0.26 0.23 0.20 0.20 0.26 0.35 0.54 0.71 0.77 0.82 0.78 0.62 0.55 0.49 0.44 0.47 0.53 0.53 0.43 0.40
0.14 0.16 0.18 0.14 0.11 0.13 0.13 0.08 0.13 0.16 0.18 0.22 0.32 0.44 0.50 0.52 0.57 0.88 0.91 0.59 0.41 0.37 0.33 0.34 0.33 0.29 0.26 0.23 0.23 0.25 0.31 0.40 0.48 0.52 0.53 0.44 0.41 0.48 0.48 0.48 0.48 0.43 0.36 0.38
0.13 0.17 0.22 0.18 0.16 0.20 0.12 0.07 0.12 0.16 0.16 0.15 0.18 0.21 0.26 0.38 0.52 0.69 0.78 0.63 0.45 0.42 0.35 0.32 0.29 0.27 0.25 0.22 0.21 0.21 0.22 0.25 0.28 0.27 0.25 0.21 0.28 0.39 0.39 0.35 0.33 0.30 0.30 0.34
0.09 0.17 0.24 0.21 0.29 0.25 0.09 0.06 0.08 0.10 0.09 0.07 0.08 0.08 0.10 0.14 0.15 0.18 0.22 0.26 0.24 0.20 0.16 0.14 0.12 0.11 0.11 0.11 0.11 0.11 0.08 0.09 0.10 0.09 0.09 0.10 0.11 0.12 0.13 0.11 0.13 0.18 0.24 0.29
0.08 0.12 0.21 0.23 0.28 0.23 0.10 0.04 0.05 0.08 0.12 0.06 0.03 0.03 0.04 0.07 0.12 0.11 0.16 0.11 0.06 0.04 0.04 0.06 0.08 0.09 0.08 0.08 0.08 0.07 0.07 0.07 0.07 0.07 0.08 0.08 0.07 0.08 0.07 0.07 0.08 0.11 0.15 0.20
0.12 0.15 0.17 0.19 0.26 0.15 0.06 0.05 0.06 0.11 0.12 0.04 0.03 0.02 0.02 0.03 0.04 0.05 0.11 0.09 0.02 0.04 0.04 0.06 0.07 0.07 0.07 0.07 0.07 0.07 0.06 0.08 0.10 0.10 0.09 0.07 0.07 0.08 0.11 0.13 0.11 0.11 0.11 0.12
0.12 0.16 0.14 0.14 0.19 0.15 0.05 0.05 0.08 0.09 0.05 0.04 0.04 0.03 0.02 0.03 0.03 0.03 0.06 0.08 0.03 0.04 0.05 0.07 0.07 0.07 0.07 0.08 0.07 0.08 0.07 0.09 0.12 0.11 0.10 0.09 0.09 0.09 0.11 0.17 0.17 0.15 0.14 0.12
0.09 0.13 0.14 0.12 0.11 0.08 0.06 0.06 0.07 0.06 0.05 0.04 0.05 0.04 0.03 0.02 0.02 0.03 0.05 0.09 0.05 0.04 0.05 0.07 0.08 0.09 0.09 0.09 0.10 0.09 0.10 0.11 0.12 0.12 0.11 0.11 0.12 0.12 0.12 0.13 0.16 0.17 0.15 0.14
0.07 0.08 0.11 0.11 0.08 0.05 0.07 0.08 0.06 0.05 0.04 0.03 0.04 0.05 0.05 0.04 0.03 0.04 0.04 0.08 0.07 0.06 0.05 0.05 0.06 0.09 0.12 0.13 0.14 0.14 0.15 0.16 0.15 0.15 0.15 0.13 0.14 0.15 0.15 0.15 0.17 0.19 0.20 0.20
0.06 0.06 0.08 0.10 0.08 0.06 0.07 0.08 0.09 0.07 0.04 0.04 0.04 0.05 0.06 0.07 0.06 0.05 0.05 0.05 0.06 0.09 0.08 0.06 0.06 0.07 0.10 0.13 0.15 0.16 0.17 0.19 0.20 0.20 0.19 0.19 0.18 0.19 0.20 0.20 0.21 0.20 0.22 0.25
0.04 0.06 0.08 0.08 0.07 0.07 0.06 0.07 0.09 0.10 0.07 0.04 0.03 0.03 0.05 0.06 0.07 0.06 0.06 0.06 0.06 0.06 0.07 0.07 0.07 0.07 0.07 0.08 0.08 0.10 0.12 0.15 0.17 0.21 0.22 0.19 0.21 0.23 0.23 0.22 0.20 0.19 0.20 0.24

GEFSCGP_prec_meanprecacc_216.txt.gz
Total_Precipitation_Accumulation
0.70 1.00 1.07 0.90 0.91 0.97 0.89 0.90 0.93 0.86 0.74 0.85 0.85 0.79 0.83 0.76 0.62 0.49 0.43 0.44 0.41 0.39 0.38 0.33 0.30 0.32 0.30 0.27 0.25 0.29 0.35 0.38 0.39 0.46 0.57 0.67 0.77 0.95 1.15 1.21 1.28 1.42 1.44 1.44
0.77 0.81 0.66 0.68 0.74 0.83 0.82 0.80 0.84 0.75 0.65 0.68 0.77 0.81 0.79 0.72 0.64 0.52 0.43 0.34 0.30 0.33 0.29 0.24 0.25 0.26 0.23 0.21 0.20 0.24 0.33 0.42 0.47 0.52 0.66 0.80 1.03 1.14 1.29 1.44 1.43 1.45 1.51 1.54
0.66 0.57 0.52 0.60 0.71 0.78 0.80 0.73 0.67 0.70 0.67 0.65 0.70 0.90 0.85 0.77 0.64 0.52 0.43 0.33 0.25 0.30 0.27 0.19 0.19 0.22 0.20 0.18 0.20 0.25 0.38 0.59 0.78 0.86 1.08 1.35 1.61 1.68 1.62 1.62 1.67 1.65 1.67 1.74
0.71 0.52 0.52 0.61 0.64 0.66 0.80 0.55 0.48 0.59 0.71 0.80 0.66 0.93 0.81 0.75 0.68 0.53 0.44 0.37 0.29 0.32 0.33 0.24 0.23 0.22 0.20 0.22 0.30 0.47 0.69 0.99 1.23 1.37 1.55 1.76 1.87 1.91 1.84 1.85 1.84 1.82 1.73 1.66
0.71 0.55 0.55 0.62 0.57 0.52 0.63 0.50 0.48 0.58 0.68 0.70 0.59 0.72 0.68 0.60 0.66 0.57 0.52 0.47 0.41 0.40 0.36 0.33 0.34 0.35 0.39 0.48 0.67 0.96 1.21 1.44 1.60 1.65 1.73 1.91 2.06 2.22 2.24 2.13 1.98 1.86 1.83 1.76
0.62 0.54 0.57 0.62 0.53 0.46 0.52 0.57 0.61 0.62 0.70 0.79 0.56 0.56 0.67 0.56 0.55 0.59 0.60 0.52 0.46 0.43 0.42 0.48 0.60 0.71 0.82 0.91 1.08 1.29 1.43 1.57 1.57 1.57 1.62 1.75 1.93 2.09 2.12 2.14 2.12 1.98 1.85 1.74
0.64 0.61 0.56 0.51 0.56 0.55 0.57 0.72 0.89 0.90 0.88 0.76 0.47 0.55 0.59 0.42 0.39 0.47 0.53 0.52 0.47 0.44 0.51 0.69 0.84 0.97 1.09 1.18 1.27 1.30 1.30 1.34 1.36 1.37 1.41 1.47 1.54 1.58 1.64 1.75 1.68 1.55 1.44 1.38
0.51 0.57 0.48 0.41 0.43 0.49 0.52 0.54 0.77 0.88 0.79 0.68 0.52 0.68 0.61 0.43 0.39 0.37 0.41 0.48 0.56 0.67 0.76 0.88 0.98 1.07 1.11 1.23 1.28 1.23 1.20 1.19 1.12 1.06 1.11 1.12 1.16 1.21 1.23 1.25 1.21 1.13 1.09 1.06
0.36 0.43 0.37 0.33 0.31 0.37 0.44 0.43 0.45 0.61 0.59 0.63 0.58 0.68 0.61 0.42 0.38 0.37 0.37 0.46 0.61 0.79 1.02 1.19 1.19 1.09 1.00 1.05 1.12 1.09 1.05 1.00 0.91 0.85 0.88 0.91 0.96 0.98 0.96 0.94 0.88 0.87 0.81 0.81
0.30 0.40 0.40 0.36 0.34 0.35 0.34 0.37 0.47 0.69 0.80 0.81 0.69 0.75 0.70 0.52 0.45 0.41 0.45 0.58 0.74 0.91 1.10 1.37 1.50 1.37 1.10 0.92 0.95 0.90 0.87 0.89 0.87 0.82 0.84 0.84 0.76 0.69 0.68 0.71 0.65 0.64 0.69 0.72
0.22 0.34 0.38 0.37 0.37 0.37 0.35 0.40 0.50 0.65 0.66 0.87 1.11 1.11 0.82 0.70 0.61 0.58 0.64 0.71 0.79 1.02 1.30 1.43 1.47 1.34 1.16 0.88 0.81 0.79 0.76 0.78 0.84 0.77 0.79 0.80 0.68 0.55 0.50 0.49 0.47 0.46 0.50 0.57
0.18 0.31 0.35 0.31 0.29 0.26 0.32 0.39 0.53 0.81 0.82 0.77 0.98 1.03 0.65 0.68 0.77 0.71 0.77 0.86 0.89 0.94 0.97 0.98 1.08 1.09 1.01 0.88 0.80 0.85 0.89 0.89 0.81 0.73 0.71 0.69 0.60 0.51 0.49 0.45 0.41 0.42 0.47 0.50
0.16 0.28 0.38 0.37 0.36 0.32 0.43 0.48 0.42 0.58 0.75 0.77 0.92 0.97 0.59 0.58 0.70 0.71 0.79 0.86 0.86 0.81 0.71 0.64 0.74 0.89 0.82 0.76 0.79 0.87 1.01 1.01 0.93 0.80 0.71 0.68 0.62 0.59 0.54 0.47 0.44 0.43 0.50 0.61
0.13 0.22 0.27 0.33 0.32 0.37 0.63 0.71 0.50 0.58 0.78 0.66 0.64 0.72 0.55 0.52 0.60 0.65 0.73 0.77 0.74 0.65 0.55 0.49 0.49 0.53 0.52 0.53 0.56 0.69 0.96 1.14 1.11 1.00 0.85 0.75 0.69 0.64 0.56 0.50 0.48 0.45 0.48 0.54
0.14 0.18 0.15 0.14 0.16 0.22 0.43 0.48 0.39 0.39 0.39 0.44 0.41 0.45 0.53 0.59 0.62 0.64 0.65 0.57 0.48 0.41 0.36 0.31 0.30 0.31 0.33 0.37 0.44 0.54 0.82 1.03 1.04 1.02 0.88 0.74 0.63 0.55 0.52 0.54 0.55 0.50 0.45 0.46
0.13 0.15 0.12 0.12 0.11 0.14 0.17 0.13 0.12 0.15 0.20 0.27 0.32 0.41 0.46 0.49 0.50 0.55 0.55 0.41 0.36 0.32 0.30 0.29 0.26 0.24 0.21 0.21 0.27 0.35 0.54 0.71 0.79 0.85 0.80 0.64 0.57 0.51 0.45 0.47 0.53 0.54 0.44 0.42
0.14 0.16 0.18 0.14 0.11 0.13 0.13 0.08 0.13 0.16 0.18 0.22 0.32 0.44 0.50 0.52 0.57 0.88 0.91 0.59 0.41 0.37 0.33 0.35 0.33 0.30 0.26 0.23 0.23 0.25 0.31 0.41 0.49 0.54 0.55 0.45 0.42 0.50 0.49 0.49 0.49 0.44 0.37 0.39
0.13 0.17 0.22 0.18 0.16 0.20 0.12 0.07 0.12 0.16 0.16 0.15 0.18 0.21 0.26 0.38 0.52 0.69 0.78 0.63 0.45 0.42 0.35 0.32 0.30 0.27 0.25 0.22 0.21 0.22 0.22 0.25 0.29 0.28 0.26 0.22 0.29 0.40 0.40 0.36 0.33 0.30 0.30 0.35
0.09 0.17 0.24 0.21 0.30 0.25 0.09 0.06 0.08 0.10 0.09 0.07 0.08 0.08 0.10 0.14 0.15 0.18 0.22 0.26 0.24 0.20 0.16 0.14 0.12 0.11 0.11 0.11 0.11 0.11 0.08 0.09 0.10 0.10 0.10 0.11 0.12 0.13 0.13 0.12 0.14 0.19 0.25 0.30
0.08 0.12 0.21 0.23 0.28 0.23 0.10 0.04 0.05 0.08 0.12 0.06 0.03 0.03 0.04 0.07 0.12 0.11 0.16 0.11 0.06 0.04 0.04 0.06 0.08 0.09 0.08 0.08 0.08 0.07 0.07 0.07 0.07 0.08 0.09 0.09 0.09 0.09 0.08 0.08 0.09 0.12 0.16 0.21
0.12 0.15 0.17 0.19 0.26 0.15 0.06 0.05 0.06 0.12 0.12 0.05 0.03 0.02 0.02 0.03 0.05 0.05 0.11 0.09 0.02 0.04 0.04 0.06 0.07 0.07 0.08 0.07 0.07 0.07 0.06 0.08 0.11 0.11 0.10 0.08 0.08 0.09 0.12 0.14 0.12 0.13 0.13 0.13
0.12 0.16 0.14 0.14 0.19 0.15 0.05 0.05 0.08 0.09 0.05 0.04 0.05 0.04 0.03 0.03 0.03 0.03 0.06 0.08 0.03 0.04 0.05 0.07 0.07 0.07 0.08 0.08 0.08 0.08 0.07 0.09 0.12 0.12 0.11 0.10 0.11 0.11 0.12 0.18 0.19 0.18 0.18 0.15
0.09 0.13 0.15 0.13 0.11 0.08 0.06 0.06 0.07 0.06 0.05 0.04 0.05 0.05 0.03 0.03 0.03 0.03 0.05 0.09 0.05 0.04 0.05 0.07 0.08 0.09 0.09 0.09 0.10 0.10 0.10 0.12 0.13 0.13 0.12 0.12 0.13 0.14 0.14 0.15 0.17 0.20 0.20 0.20
0.07 0.08 0.11 0.11 0.08 0.05 0.07 0.08 0.06 0.05 0.04 0.03 0.04 0.05 0.05 0.04 0.04 0.04 0.05 0.08 0.08 0.06 0.05 0.05 0.06 0.09 0.12 0.14 0.14 0.15 0.16 0.17 0.17 0.16 0.15 0.14 0.15 0.17 0.17 0.18 0.20 0.22 0.25 0.25
0.06 0.06 0.08 0.10 0.08 0.06 0.07 0.09 0.09 0.07 0.04 0.04 0.05 0.06 0.06 0.07 0.06 0.06 0.05 0.06 0.06 0.09 0.08 0.06 0.06 0.07 0.10 0.13 0.15 0.17 0.18 0.20 0.21 0.21 0.21 0.20 0.20 0.21 0.22 0.23 0.24 0.23 0.25 0.28
0.04 0.06 0.08 0.08 0.07 0.07 0.07 0.08 0.10 0.10 0.07 0.05 0.04 0.04 0.06 0.07 0.07 0.06 0.06 0.06 0.06 0.06 0.07 0.07 0.07 0.07 0.07 0.08 0.09 0.11 0.13 0.16 0.19 0.23 0.23 0.21 0.24 0.26 0.26 0.25 0.22 0.23 0.24 0.28

GEFSCGP_prec_meanprecacc_222.txt.gz
Total_Precipitation_Accumulation
0.71 1.00 1.07 0.91 0.91 0.98 0.89 0.90 0.96 0.88 0.75 0.86 0.86 0.80 0.85 0.78 0.64 0.50 0.47 0.50 0.46 0.43 0.42 0.36 0.32 0.35 0.33 0.29 0.26 0.29 0.36 0.40 0.41 0.48 0.59 0.69 0.79 0.97 1.18 1.23 1.30 1.45 1.45 1.46
0.78 0.82 0.67 0.69 0.74 0.84 0.82 0.82 0.86 0.76 0.65 0.69 0.78 0.82 0.81 0.73 0.65 0.54 0.46 0.38 0.37 0.37 0.34 0.28 0.27 0.28 0.26 0.24 0.22 0.25 0.34 0.44 0.49 0.53 0.66 0.81 1.03 1.15 1.31 1.47 1.46 1.49 1.53 1.57
0.67 0.58 0.52 0.60 0.71 0.79 0.80 0.74 0.69 0.72 0.68 0.66 0.71 0.92 0.87 0.79 0.65 0.53 0.44 0.34 0.28 0.32 0.30 0.22 0.22 0.26 0.23 0.22 0.24 0.27 0.40 0.60 0.79 0.87 1.09 1.36 1.62 1.69 1.63 1.64 1.70 1.68 1.70 1.76
0.72 0.53 0.52 0.62 0.65 0.67 0.81 0.56 0.50 0.60 0.72 0.81 0.67 0.95 0.83 0.77 0.69 0.53 0.44 0.38 0.31 0.34 0.37 0.28 0.26 0.28 0.25 0.26 0.34 0.50 0.72 1.01 1.25 1.38 1.56 1.77 1.88 1.92 1.85 1.87 1.86 1.84 1.75 1.67
0.72 0.56 0.55 0.62 0.58 0.53 0.64 0.51 0.50 0.59 0.69 0.71 0.61 0.73 0.69 0.61 0.67 0.58 0.53 0.48 0.42 0.41 0.40 0.40 0.39 0.43 0.44 0.53 0.71 1.00 1.25 1.47 1.61 1.66 1.74 1.92 2.07 2.23 2.25 2.15 2.00 1.88 1.84 1.77
0.63 0.55 0.58 0.62 0.54 0.47 0.52 0.58 0.62 0.63 0.71 0.80 0.57 0.57 0.69 0.58 0.56 0.59 0.60 0.52 0.47 0.44 0.44 0.52 0.65 0.76 0.86 0.95 1.12 1.33 1.46 1.60 1.60 1.59 1.63 1.75 1.93 2.10 2.14 2.16 2.13 1.99 1.86 1.75
0.65 0.61 0.56 0.51 0.57 0.55 0.57 0.73 0.92 0.93 0.90 0.78 0.48 0.57 0.60 0.43 0.41 0.48 0.53 0.52 0.48 0.45 0.52 0.71 0.87 1.00 1.12 1.22 1.31 1.33 1.31 1.36 1.41 1.40 1.42 1.48 1.55 1.59 1.65 1.76 1.69 1.56 1.45 1.39
0.51 0.57 0.49 0.41 0.43 0.49 0.52 0.55 0.79 0.90 0.80 0.69 0.53 0.70 0.63 0.45 0.42 0.39 0.43 0.49 0.57 0.68 0.78 0.90 1.00 1.10 1.13 1.26 1.30 1.24 1.21 1.20 1.14 1.10 1.13 1.13 1.17 1.22 1.25 1.26 1.22 1.14 1.10 1.07
0.37 0.44 0.37 0.33 0.32 0.37 0.44 0.43 0.46 0.62 0.61 0.64 0.59 0.69 0.63 0.43 0.41 0.40 0.40 0.49 0.63 0.81 1.04 1.21 1.20 1.10 1.03 1.08 1.14 1.11 1.06 1.00 0.93 0.87 0.91 0.92 0.98 1.00 0.97 0.95 0.90 0.89 0.83 0.82
0.30 0.41 0.40 0.36 0.34 0.35 0.34 0.38 0.47 0.69 0.81 0.83 0.70 0.77 0.72 0.54 0.48 0.45 0.48 0.60 0.77 0.92 1.11 1.38 1.51 1.38 1.11 0.94 0.97 0.93 0.89 0.91 0.89 0.84 0.87 0.86 0.78 0.71 0.70 0.73 0.67 0.66 0.71 0.74
0.22 0.34 0.38 0.37 0.37 0.37 0.35 0.40 0.50 0.65 0.67 0.88 1.12 1.11 0.83 0.71 0.63 0.62 0.67 0.74 0.80 1.02 1.30 1.44 1.48 1.34 1.16 0.89 0.83 0.81 0.78 0.81 0.85 0.79 0.82 0.83 0.72 0.58 0.54 0.52 0.49 0.50 0.53 0.58
0.18 0.31 0.35 0.32 0.29 0.26 0.32 0.40 0.53 0.81 0.82 0.78 0.98 1.03 0.66 0.69 0.79 0.73 0.80 0.89 0.91 0.95 0.97 0.98 1.08 1.09 1.02 0.88 0.81 0.86 0.90 0.90 0.82 0.75 0.74 0.74 0.65 0.55 0.56 0.51 0.43 0.46 0.50 0.52
0.16 0.28 0.38 0.37 0.36 0.32 0.43 0.48 0.43 0.58 0.75 0.77 0.92 0.97 0.59 0.58 0.70 0.73 0.81 0.88 0.88 0.82 0.71 0.64 0.75 0.89 0.83 0.77 0.80 0.88 1.02 1.02 0.94 0.82 0.73 0.72 0.68 0.64 0.65 0.55 0.47 0.46 0.53 0.63
0.13 0.22 0.27 0.33 0.32 0.37 0.63 0.72 0.51 0.58 0.79 0.67 0.65 0.72 0.55 0.53 0.60 0.66 0.74 0.78 0.75 0.66 0.56 0.50 0.49 0.53 0.53 0.54 0.57 0.70 0.96 1.15 1.12 1.01 0.88 0.79 0.73 0.70 0.65 0.55 0.51 0.47 0.49 0.55
0.14 0.18 0.15 0.14 0.16 0.22 0.43 0.48 0.39 0.39 0.39 0.46 0.42 0.45 0.53 0.59 0.62 0.64 0.65 0.57 0.48 0.42 0.37 0.32 0.31 0.32 0.34 0.38 0.45 0.55 0.83 1.04 1.06 1.05 0.91 0.77 0.67 0.60 0.56 0.58 0.58 0.51 0.46 0.47
0.13 0.16 0.13 0.12 0.11 0.14 0.17 0.13 0.12 0.15 0.20 0.28 0.32 0.42 0.46 0.49 0.50 0.55 0.55 0.41 0.36 0.32 0.30 0.30 0.27 0.25 0.22 0.21 0.28 0.36 0.55 0.73 0.81 0.87 0.82 0.66 0.61 0.55 0.49 0.50 0.56 0.56 0.45 0.43
0.15 0.17 0.19 0.15 0.11 0.13 0.13 0.08 0.13 0.16 0.18 0.22 0.33 0.45 0.50 0.52 0.57 0.88 0.91 0.59 0.41 0.37 0.33 0.35 0.33 0.30 0.27 0.24 0.24 0.26 0.32 0.42 0.50 0.55 0.57 0.46 0.44 0.52 0.52 0.52 0.52 0.46 0.38 0.41
0.13 0.18 0.23 0.19 0.17 0.21 0.12 0.07 0.12 0.16 0.16 0.16 0.18 0.21 0.26 0.38 0.52 0.69 0.78 0.63 0.45 0.42 0.35 0.33 0.30 0.27 0.25 0.22 0.22 0.23 0.23 0.26 0.29 0.28 0.26 0.22 0.29 0.40 0.42 0.38 0.36 0.32 0.32 0.37
0.09 0.17 0.25 0.22 0.30 0.25 0.09 0.06 0.08 0.10 0.09 0.07 0.08 0.08 0.10 0.14 0.15 0.18 0.22 0.26 0.24 0.20 0.16 0.14 0.12 0.11 0.11 0.11 0.12 0.11 0.09 0.10 0.10 0.10 0.10 0.12 0.12 0.14 0.14 0.13 0.16 0.21 0.27 0.32
0.08 0.12 0.22 0.24 0.28 0.23 0.10 0.04 0.05 0.08 0.12 0.06 0.03 0.03 0.04 0.07 0.12 0.11 0.16 0.11 0.06 0.04 0.04 0.06 0.08 0.09 0.08 0.08 0.08 0.07 0.07 0.07 0.08 0.08 0.10 0.10 0.10 0.10 0.10 0.10 0.10 0.14 0.18 0.23
0.12 0.15 0.17 0.20 0.27 0.15 0.06 0.05 0.06 0.12 0.12 0.05 0.03 0.02 0.02 0.03 0.05 0.05 0.11 0.09 0.02 0.04 0.04 0.06 0.07 0.08 0.08 0.07 0.08 0.07 0.07 0.08 0.12 0.12 0.11 0.09 0.10 0.11 0.13 0.16 0.14 0.14 0.14 0.15
0.13 0.17 0.14 0.14 0.19 0.15 0.05 0.05 0.08 0.09 0.05 0.04 0.05 0.04 0.03 0.03 0.03 0.04 0.07 0.08 0.03 0.04 0.05 0.07 0.08 0.07 0.08 0.09 0.09 0.09 0.08 0.10 0.13 0.12 0.12 0.11 0.12 0.13 0.13 0.19 0.20 0.19 0.20 0.17
0.10 0.13 0.15 0.13 0.11 0.08 0.06 0.06 0.07 0.06 0.05 0.04 0.05 0.05 0.03 0.03 0.03 0.03 0.05 0.10 0.05 0.04 0.05 0.07 0.09 0.10 0.10 0.10 0.11 0.10 0.11 0.12 0.13 0.13 0.12 0.13 0.14 0.15 0.15 0.16 0.19 0.21 0.22 0.23
0.08 0.08 0.12 0.12 0.08 0.06 0.07 0.08 0.06 0.05 0.04 0.03 0.04 0.06 0.05 0.05 0.04 0.04 0.05 0.08 0.08 0.06 0.05 0.05 0.06 0.09 0.13 0.14 0.15 0.16 0.17 0.18 0.17 0.16 0.16 0.15 0.16 0.18 0.18 0.20 0.22 0.24 0.27 0.28
0.07 0.07 0.09 0.11 0.08 0.06 0.07 0.09 0.09 0.07 0.05 0.04 0.05 0.06 0.07 0.07 0.08 0.06 0.05 0.06 0.06 0.09 0.09 0.06 0.06 0.07 0.10 0.14 0.16 0.19 0.19 0.20 0.22 0.21 0.21 0.21 0.21 0.21 0.23 0.25 0.27 0.27 0.28 0.30
0.04 0.07 0.09 0.09 0.07 0.07 0.07 0.08 0.10 0.10 0.08 0.05 0.04 0.04 0.06 0.07 0.07 0.06 0.07 0.06 0.06 0.06 0.07 0.07 0.08 0.07 0.08 0.09 0.10 0.12 0.14 0.16 0.19 0.23 0.24 0.22 0.25 0.28 0.28 0.27 0.24 0.25 0.27 0.30

GEFSCGP_prec_meanprecacc_228.txt.gz
Total_Precipitation_Accumulation
0.71 1.00 1.08 0.91 0.91 0.98 0.90 0.90 0.96 0.89 0.75 0.86 0.87 0.81 0.86 0.79 0.64 0.51 0.47 0.51 0.47 0.44 0.44 0.38 0.34 0.39 0.36 0.32 0.29 0.31 0.38 0.41 0.42 0.49 0.60 0.70 0.79 0.97 1.18 1.24 1.31 1.46 1.47 1.48
0.78 0.82 0.67 0.69 0.74 0.84 0.83 0.82 0.86 0.76 0.66 0.69 0.78 0.83 0.81 0.74 0.66 0.55 0.47 0.39 0.38 0.38 0.36 0.31 0.29 0.30 0.29 0.28 0.25 0.27 0.36 0.46 0.50 0.54 0.67 0.82 1.05 1.16 1.32 1.48 1.46 1.50 1.55 1.59
0.67 0.58 0.52 0.60 0.71 0.79 0.80 0.74 0.69 0.72 0.68 0.66 0.72 0.92 0.87 0.79 0.66 0.54 0.46 0.36 0.29 0.33 0.31 0.24 0.25 0.27 0.25 0.25 0.28 0.29 0.41 0.63 0.81 0.89 1.10 1.38 1.63 1.70 1.64 1.64 1.70 1.68 1.71 1.78
0.72 0.53 0.52 0.62 0.65 0.67 0.82 0.57 0.50 0.61 0.73 0.82 0.68 0.95 0.83 0.77 0.70 0.53 0.45 0.40 0.32 0.34 0.38 0.29 0.27 0.29 0.26 0.27 0.36 0.52 0.74 1.03 1.27 1.39 1.56 1.78 1.89 1.92 1.86 1.88 1.87 1.85 1.76 1.69
0.72 0.56 0.55 0.62 0.58 0.53 0.64 0.52 0.51 0.61 0.71 0.73 0.62 0.73 0.69 0.62 0.68 0.58 0.53 0.48 0.43 0.42 0.41 0.41 0.40 0.45 0.45 0.54 0.73 1.02 1.27 1.48 1.62 1.67 1.74 1.93 2.07 2.23 2.26 2.15 2.01 1.90 1.86 1.79
0.63 0.55 0.58 0.62 0.54 0.47 0.52 0.59 0.63 0.65 0.73 0.82 0.58 0.58 0.69 0.58 0.57 0.60 0.60 0.53 0.47 0.45 0.46 0.56 0.67 0.79 0.89 0.98 1.16 1.36 1.48 1.61 1.60 1.60 1.64 1.76 1.94 2.11 2.14 2.17 2.14 2.00 1.88 1.77
0.65 0.61 0.56 0.51 0.57 0.55 0.57 0.73 0.92 0.94 0.90 0.78 0.49 0.57 0.60 0.43 0.41 0.48 0.54 0.52 0.49 0.46 0.54 0.74 0.89 1.04 1.15 1.25 1.35 1.37 1.34 1.38 1.41 1.40 1.42 1.48 1.55 1.59 1.65 1.76 1.70 1.57 1.46 1.41
0.51 0.57 0.49 0.41 0.44 0.50 0.52 0.55 0.79 0.90 0.80 0.69 0.54 0.70 0.63 0.45 0.42 0.40 0.44 0.51 0.59 0.70 0.81 0.93 1.02 1.13 1.17 1.29 1.34 1.28 1.23 1.22 1.15 1.10 1.13 1.13 1.17 1.22 1.25 1.27 1.22 1.15 1.11 1.08
0.37 0.44 0.37 0.33 0.32 0.37 0.45 0.44 0.46 0.62 0.61 0.64 0.59 0.70 0.64 0.44 0.41 0.40 0.41 0.50 0.64 0.82 1.06 1.23 1.22 1.13 1.06 1.11 1.18 1.14 1.08 1.01 0.93 0.87 0.91 0.93 0.99 1.01 0.98 0.95 0.90 0.90 0.83 0.83
0.30 0.41 0.40 0.36 0.34 0.35 0.35 0.38 0.47 0.69 0.81 0.83 0.71 0.78 0.72 0.54 0.49 0.45 0.49 0.61 0.77 0.92 1.12 1.39 1.52 1.40 1.13 0.97 0.99 0.94 0.91 0.92 0.89 0.85 0.87 0.86 0.79 0.72 0.71 0.73 0.67 0.67 0.72 0.75
0.22 0.34 0.38 0.37 0.37 0.37 0.35 0.40 0.50 0.65 0.67 0.88 1.12 1.12 0.83 0.72 0.65 0.64 0.68 0.74 0.80 1.02 1.31 1.45 1.48 1.35 1.18 0.91 0.84 0.82 0.79 0.82 0.86 0.80 0.83 0.84 0.73 0.60 0.56 0.53 0.49 0.51 0.54 0.59
0.18 0.31 0.35 0.32 0.29 0.26 0.32 0.40 0.54 0.81 0.82 0.78 0.98 1.03 0.66 0.69 0.80 0.75 0.81 0.90 0.91 0.95 0.98 0.98 1.08 1.09 1.02 0.90 0.83 0.88 0.91 0.91 0.83 0.76 0.75 0.75 0.67 0.57 0.58 0.52 0.44 0.47 0.52 0.54
0.16 0.28 0.38 0.37 0.36 0.32 0.43 0.48 0.43 0.58 0.75 0.77 0.92 0.97 0.60 0.59 0.71 0.73 0.82 0.89 0.88 0.83 0.72 0.64 0.75 0.89 0.84 0.78 0.81 0.89 1.03 1.04 0.95 0.83 0.74 0.74 0.69 0.67 0.69 0.58 0.49 0.48 0.55 0.66
0.13 0.23 0.27 0.33 0.32 0.37 0.63 0.72 0.51 0.58 0.79 0.67 0.65 0.72 0.55 0.53 0.61 0.67 0.75 0.79 0.76 0.66 0.56 0.50 0.50 0.54 0.54 0.55 0.58 0.71 0.97 1.17 1.13 1.02 0.89 0.81 0.75 0.74 0.72 0.60 0.54 0.50 0.54 0.59
0.15 0.18 0.15 0.14 0.16 0.22 0.43 0.48 0.39 0.39 0.39 0.46 0.42 0.45 0.53 0.59 0.63 0.64 0.66 0.58 0.48 0.42 0.37 0.32 0.31 0.33 0.34 0.39 0.46 0.56 0.85 1.06 1.07 1.06 0.93 0.80 0.70 0.65 0.62 0.61 0.62 0.56 0.51 0.50
0.13 0.16 0.13 0.12 0.11 0.14 0.17 0.13 0.12 0.15 0.20 0.28 0.32 0.42 0.46 0.49 0.50 0.55 0.55 0.41 0.36 0.32 0.30 0.30 0.28 0.25 0.22 0.22 0.28 0.37 0.56 0.74 0.83 0.88 0.84 0.70 0.66 0.58 0.51 0.56 0.64 0.62 0.50 0.45
0.15 0.17 0.19 0.15 0.11 0.13 0.13 0.08 0.13 0.16 0.18 0.22 0.33 0.45 0.50 0.52 0.58 0.88 0.91 0.59 0.41 0.37 0.33 0.35 0.33 0.30 0.27 0.24 0.25 0.27 0.33 0.43 0.51 0.56 0.58 0.47 0.46 0.55 0.57 0.59 0.58 0.51 0.41 0.42
0.13 0.18 0.24 0.19 0.17 0.21 0.12 0.07 0.12 0.16 0.16 0.16 0.18 0.21 0.26 0.38 0.52 0.69 0.78 0.63 0.45 0.42 0.35 0.33 0.30 0.27 0.25 0.22 0.22 0.23 0.24 0.27 0.30 0.29 0.27 0.23 0.30 0.42 0.44 0.41 0.39 0.34 0.34 0.39
0.10 0.17 0.25 0.22 0.30 0.25 0.09 0.06 0.08 0.10 0.09 0.07 0.08 0.08 0.10 0.14 0.15 0.18 0.22 0.26 0.24 0.20 0.16 0.14 0.12 0.11 0.11 0.11 0.12 0.11 0.09 0.10 0.11 0.11 0.11 0.12 0.13 0.15 0.16 0.14 0.17 0.23 0.29 0.34
0.08 0.13 0.22 0.24 0.29 0.23 0.10 0.05 0.05 0.08 0.12 0.06 0.03 0.03 0.04 0.07 0.12 0.11 0.16 0.11 0.06 0.04 0.04 0.06 0.08 0.09 0.08 0.08 0.09 0.07 0.07 0.08 0.08 0.09 0.10 0.11 0.10 0.11 0.10 0.11 0.12 0.15 0.19 0.25
0.13 0.15 0.18 0.20 0.27 0.15 0.06 0.05 0.06 0.12 0.12 0.05 0.03 0.02 0.02 0.03 0.05 0.05 0.11 0.09 0.02 0.04 0.04 0.06 0.07 0.08 0.08 0.07 0.08 0.07 0.07 0.08 0.12 0.12 0.11 0.10 0.10 0.12 0.15 0.18 0.16 0.17 0.16 0.18
0.13 0.18 0.14 0.15 0.20 0.16 0.06 0.05 0.08 0.09 0.05 0.04 0.05 0.04 0.03 0.03 0.03 0.04 0.07 0.08 0.03 0.04 0.05 0.07 0.08 0.07 0.08 0.09 0.09 0.09 0.08 0.10 0.13 0.13 0.12 0.11 0.13 0.14 0.16 0.22 0.23 0.22 0.21 0.19
0.11 0.15 0.17 0.14 0.12 0.08 0.06 0.06 0.07 0.06 0.05 0.04 0.05 0.05 0.03 0.03 0.03 0.03 0.05 0.10 0.05 0.04 0.05 0.07 0.09 0.10 0.10 0.10 0.11 0.11 0.11 0.13 0.14 0.13 0.13 0.14 0.15 0.17 0.17 0.19 0.20 0.23 0.23 0.24
0.09 0.08 0.13 0.13 0.09 0.06 0.07 0.08 0.07 0.05 0.04 0.03 0.05 0.06 0.05 0.05 0.04 0.04 0.05 0.09 0.08 0.07 0.05 0.05 0.06 0.09 0.13 0.15 0.15 0.17 0.18 0.19 0.18 0.17 0.16 0.16 0.17 0.20 0.22 0.23 0.24 0.26 0.29 0.29
0.07 0.08 0.10 0.12 0.09 0.07 0.08 0.09 0.10 0.07 0.05 0.04 0.05 0.06 0.07 0.08 0.08 0.06 0.06 0.06 0.07 0.10 0.09 0.06 0.06 0.07 0.10 0.14 0.16 0.19 0.20 0.21 0.22 0.22 0.22 0.21 0.21 0.22 0.25 0.27 0.29 0.29 0.30 0.32
0.05 0.07 0.10 0.11 0.08 0.08 0.08 0.08 0.10 0.11 0.08 0.06 0.04 0.05 0.06 0.07 0.08 0.07 0.07 0.07 0.07 0.07 0.07 0.07 0.08 0.07 0.08 0.09 0.10 0.13 0.15 0.17 0.19 0.24 0.24 0.22 0.25 0.29 0.29 0.28 0.25 0.27 0.29 0.31

GEFSCGP_prec_meanprecacc_234.txt.gz
Total_Precipitation_Accumulation
0.71 1.00 1.08 0.91 0.91 0.98 0.90 0.91 0.96 0.89 0.75 0.86 0.87 0.81 0.86 0.80 0.65 0.51 0.48 0.51 0.48 0.45 0.45 0.39 0.35 0.42 0.40 0.34 0.30 0.34 0.40 0.43 0.43 0.50 0.61 0.71 0.80 0.98 1.19 1.24 1.32 1.46 1.47 1.49
0.78 0.82 0.67 0.69 0.74 0.84 0.83 0.82 0.86 0.76 0.66 0.69 0.78 0.83 0.81 0.74 0.67 0.55 0.47 0.40 0.38 0.39 0.36 0.31 0.30 0.33 0.33 0.29 0.27 0.29 0.38 0.47 0.51 0.54 0.68 0.83 1.05 1.16 1.32 1.48 1.47 1.50 1.55 1.59
0.68 0.58 0.52 0.60 0.72 0.79 0.81 0.75 0.69 0.72 0.68 0.66 0.72 0.92 0.87 0.80 0.66 0.54 0.46 0.36 0.30 0.33 0.31 0.24 0.26 0.28 0.28 0.27 0.30 0.31 0.42 0.63 0.81 0.89 1.10 1.39 1.64 1.71 1.64 1.65 1.70 1.69 1.71 1.78
0.72 0.53 0.52 0.62 0.65 0.67 0.82 0.57 0.50 0.62 0.74 0.83 0.68 0.96 0.83 0.77 0.70 0.54 0.45 0.40 0.32 0.35 0.38 0.29 0.27 0.30 0.28 0.30 0.40 0.55 0.75 1.04 1.27 1.40 1.57 1.79 1.90 1.93 1.86 1.88 1.88 1.86 1.76 1.69
0.72 0.56 0.55 0.62 0.58 0.53 0.64 0.52 0.51 0.61 0.72 0.73 0.62 0.74 0.70 0.62 0.68 0.59 0.53 0.48 0.43 0.42 0.41 0.42 0.41 0.45 0.47 0.56 0.75 1.05 1.29 1.49 1.63 1.68 1.75 1.93 2.07 2.23 2.26 2.15 2.01 1.90 1.86 1.79
0.63 0.55 0.58 0.62 0.54 0.47 0.52 0.59 0.63 0.65 0.73 0.83 0.58 0.58 0.70 0.58 0.57 0.60 0.60 0.53 0.47 0.45 0.46 0.56 0.67 0.79 0.89 0.99 1.17 1.37 1.49 1.62 1.61 1.61 1.65 1.76 1.94 2.11 2.14 2.17 2.14 2.01 1.88 1.77
0.65 0.61 0.56 0.51 0.57 0.55 0.57 0.74 0.93 0.94 0.90 0.79 0.49 0.58 0.61 0.43 0.41 0.48 0.54 0.52 0.49 0.46 0.55 0.75 0.89 1.05 1.16 1.26 1.36 1.38 1.35 1.38 1.42 1.41 1.42 1.49 1.55 1.59 1.65 1.77 1.71 1.57 1.46 1.41
0.51 0.57 0.49 0.41 0.44 0.50 0.53 0.56 0.80 0.91 0.81 0.69 0.54 0.71 0.63 0.46 0.43 0.40 0.44 0.51 0.59 0.70 0.81 0.93 1.03 1.14 1.18 1.30 1.35 1.30 1.25 1.22 1.15 1.11 1.14 1.14 1.17 1.22 1.25 1.27 1.22 1.15 1.11 1.08
0.37 0.44 0.37 0.33 0.32 0.37 0.45 0.44 0.46 0.63 0.61 0.64 0.59 0.70 0.64 0.44 0.42 0.40 0.41 0.51 0.65 0.83 1.07 1.24 1.23 1.14 1.07 1.12 1.19 1.16 1.09 1.03 0.94 0.88 0.91 0.93 0.99 1.01 0.98 0.96 0.90 0.90 0.84 0.84
0.30 0.41 0.40 0.36 0.34 0.35 0.35 0.38 0.47 0.70 0.81 0.83 0.71 0.78 0.72 0.55 0.49 0.46 0.50 0.62 0.77 0.93 1.14 1.41 1.53 1.41 1.14 0.97 1.00 0.96 0.92 0.93 0.90 0.86 0.88 0.87 0.79 0.72 0.72 0.74 0.68 0.67 0.72 0.75
0.22 0.34 0.38 0.37 0.37 0.37 0.35 0.40 0.50 0.66 0.67 0.89 1.12 1.12 0.83 0.72 0.66 0.65 0.69 0.75 0.80 1.03 1.33 1.47 1.49 1.36 1.18 0.91 0.85 0.83 0.80 0.83 0.87 0.80 0.84 0.85 0.74 0.60 0.56 0.53 0.50 0.51 0.54 0.59
0.18 0.31 0.35 0.32 0.29 0.26 0.32 0.40 0.54 0.81 0.82 0.78 0.99 1.03 0.67 0.70 0.81 0.76 0.82 0.90 0.91 0.96 0.99 0.99 1.09 1.10 1.03 0.90 0.83 0.88 0.92 0.92 0.83 0.76 0.76 0.77 0.70 0.59 0.59 0.53 0.45 0.47 0.52 0.54
0.17 0.28 0.38 0.37 0.36 0.32 0.43 0.48 0.43 0.58 0.75 0.77 0.92 0.98 0.60 0.59 0.71 0.74 0.83 0.89 0.88 0.83 0.72 0.65 0.75 0.90 0.84 0.78 0.81 0.90 1.04 1.04 0.96 0.84 0.76 0.77 0.72 0.69 0.71 0.60 0.50 0.49 0.56 0.67
0.13 0.23 0.27 0.33 0.32 0.37 0.63 0.72 0.51 0.58 0.79 0.67 0.65 0.72 0.56 0.53 0.62 0.67 0.75 0.80 0.76 0.67 0.56 0.51 0.50 0.54 0.54 0.55 0.58 0.71 0.97 1.17 1.14 1.04 0.92 0.85 0.79 0.77 0.74 0.62 0.54 0.50 0.55 0.59
0.15 0.18 0.15 0.14 0.16 0.22 0.43 0.48 0.39 0.39 0.39 0.46 0.42 0.45 0.54 0.60 0.63 0.65 0.66 0.58 0.48 0.42 0.38 0.32 0.31 0.33 0.34 0.39 0.46 0.56 0.85 1.06 1.08 1.08 0.95 0.84 0.75 0.68 0.64 0.63 0.63 0.57 0.52 0.51
0.13 0.16 0.13 0.12 0.12 0.14 0.17 0.13 0.12 0.15 0.20 0.28 0.32 0.42 0.46 0.49 0.50 0.55 0.56 0.41 0.36 0.32 0.31 0.30 0.28 0.25 0.22 0.22 0.28 0.37 0.56 0.74 0.83 0.89 0.86 0.73 0.70 0.62 0.54 0.57 0.65 0.64 0.51 0.46
0.15 0.17 0.19 0.15 0.11 0.14 0.13 0.08 0.13 0.16 0.18 0.22 0.33 0.45 0.50 0.52 0.58 0.88 0.91 0.59 0.41 0.37 0.33 0.35 0.34 0.30 0.27 0.24 0.25 0.27 0.33 0.43 0.52 0.57 0.59 0.50 0.50 0.59 0.61 0.62 0.61 0.54 0.44 0.44
0.13 0.18 0.24 0.20 0.17 0.21 0.13 0.07 0.13 0.16 0.16 0.16 0.18 0.21 0.27 0.39 0.52 0.69 0.78 0.63 0.45 0.42 0.36 0.33 0.30 0.27 0.25 0.22 0.22 0.24 0.24 0.27 0.30 0.30 0.28 0.25 0.33 0.47 0.49 0.45 0.42 0.36 0.36 0.41
0.10 0.17 0.26 0.23 0.31 0.25 0.09 0.06 0.08 0.10 0.09 0.07 0.08 0.09 0.11 0.15 0.16 0.18 0.23 0.26 0.24 0.20 0.16 0.14 0.12 0.12 0.11 0.11 0.12 0.12 0.09 0.11 0.12 0.11 0.11 0.14 0.15 0.18 0.19 0.17 0.18 0.24 0.30 0.35
0.08 0.13 0.22 0.24 0.29 0.23 0.10 0.05 0.05 0.09 0.13 0.06 0.04 0.04 0.04 0.08 0.12 0.11 0.16 0.11 0.06 0.05 0.04 0.06 0.08 0.09 0.08 0.08 0.09 0.07 0.07 0.08 0.08 0.10 0.10 0.11 0.12 0.13 0.13 0.13 0.14 0.17 0.20 0.26
0.13 0.16 0.18 0.20 0.27 0.16 0.06 0.05 0.06 0.13 0.13 0.05 0.03 0.03 0.02 0.03 0.05 0.05 0.11 0.09 0.02 0.04 0.05 0.06 0.07 0.08 0.08 0.08 0.08 0.07 0.07 0.08 0.12 0.13 0.12 0.10 0.11 0.13 0.18 0.22 0.20 0.19 0.18 0.19
0.14 0.18 0.15 0.15 0.20 0.16 0.06 0.05 0.09 0.09 0.05 0.04 0.05 0.04 0.03 0.03 0.04 0.04 0.07 0.08 0.04 0.04 0.06 0.07 0.08 0.07 0.08 0.09 0.09 0.09 0.08 0.10 0.13 0.13 0.12 0.12 0.13 0.15 0.17 0.25 0.26 0.23 0.23 0.20
0.11 0.16 0.17 0.15 0.13 0.09 0.06 0.06 0.07 0.07 0.05 0.04 0.05 0.05 0.03 0.03 0.03 0.03 0.05 0.10 0.06 0.05 0.05 0.07 0.09 0.10 0.10 0.10 0.11 0.11 0.11 0.13 0.14 0.13 0.13 0.14 0.15 0.17 0.18 0.20 0.23 0.25 0.24 0.25
0.09 0.08 0.13 0.13 0.09 0.06 0.07 0.08 0.07 0.05 0.04 0.04 0.05 0.06 0.05 0.05 0.05 0.05 0.06 0.09 0.09 0.07 0.05 0.05 0.06 0.09 0.13 0.15 0.15 0.17 0.18 0.19 0.18 0.17 0.16 0.16 0.17 0.20 0.22 0.25 0.26 0.28 0.30 0.30
0.07 0.08 0.10 0.12 0.09 0.07 0.08 0.09 0.10 0.07 0.05 0.05 0.05 0.07 0.07 0.08 0.08 0.07 0.06 0.07 0.07 0.10 0.09 0.06 0.06 0.07 0.10 0.14 0.16 0.19 0.20 0.21 0.22 0.22 0.22 0.21 0.21 0.22 0.26 0.29 0.32 0.30 0.31 0.33
0.05 0.08 0.11 0.11 0.08 0.08 0.08 0.08 0.10 0.11 0.09 0.06 0.05 0.05 0.07 0.08 0.08 0.07 0.07 0.07 0.07 0.07 0.08 0.07 0.08 0.07 0.08 0.09 0.10 0.13 0.15 0.17 0.19 0.24 0.24 0.22 0.25 0.29 0.29 0.29 0.28 0.29 0.30 0.33

GEFSCGP_prec_meanprecacc_240.txt.gz
Total_Precipitation_Accumulation
0.71 1.00 1.08 0.91 0.91 0.98 0.90 0.91 0.97 0.89 0.75 0.87 0.87 0.82 0.86 0.80 0.65 0.51 0.49 0.52 0.48 0.45 0.46 0.39 0.36 0.43 0.42 0.35 0.31 0.35 0.42 0.45 0.46 0.52 0.64 0.74 0.82 1.00 1.20 1.26 1.33 1.47 1.49 1.50
0.78 0.82 0.67 0.69 0.75 0.84 0.83 0.82 0.86 0.76 0.66 0.70 0.78 0.83 0.81 0.74 0.67 0.55 0.48 0.40 0.39 0.39 0.37 0.32 0.30 0.33 0.34 0.31 0.29 0.30 0.39 0.49 0.54 0.57 0.70 0.85 1.06 1.18 1.33 1.49 1.48 1.51 1.56 1.60
0.68 0.59 0.52 0.60 0.72 0.79 0.81 0.75 0.69 0.72 0.69 0.66 0.72 0.93 0.88 0.80 0.66 0.55 0.46 0.37 0.30 0.33 0.32 0.25 0.26 0.29 0.29 0.28 0.32 0.33 0.43 0.65 0.84 0.92 1.13 1.40 1.65 1.72 1.65 1.66 1.71 1.70 1.72 1.79
0.72 0.53 0.52 0.62 0.65 0.67 0.82 0.58 0.50 0.62 0.75 0.84 0.70 0.98 0.84 0.77 0.70 0.54 0.45 0.40 0.33 0.35 0.39 0.29 0.28 0.31 0.28 0.31 0.41 0.58 0.76 1.06 1.30 1.41 1.58 1.80 1.90 1.94 1.87 1.89 1.89 1.87 1.77 1.69
0.72 0.56 0.55 0.62 0.58 0.53 0.65 0.52 0.51 0.61 0.73 0.75 0.63 0.76 0.72 0.62 0.69 0.59 0.54 0.49 0.43 0.42 0.42 0.42 0.41 0.46 0.47 0.56 0.76 1.08 1.32 1.52 1.65 1.69 1.76 1.94 2.08 2.24 2.26 2.16 2.02 1.91 1.87 1.79
0.64 0.55 0.58 0.62 0.54 0.47 0.52 0.59 0.63 0.65 0.74 0.85 0.59 0.60 0.72 0.60 0.57 0.60 0.61 0.53 0.48 0.45 0.46 0.56 0.68 0.80 0.90 0.99 1.18 1.40 1.52 1.65 1.63 1.62 1.65 1.77 1.94 2.11 2.14 2.17 2.15 2.02 1.89 1.78
0.65 0.61 0.56 0.51 0.58 0.55 0.57 0.75 0.96 0.97 0.94 0.81 0.49 0.58 0.62 0.44 0.41 0.49 0.54 0.53 0.50 0.47 0.55 0.75 0.91 1.06 1.17 1.27 1.37 1.40 1.38 1.42 1.44 1.42 1.43 1.49 1.55 1.59 1.66 1.77 1.71 1.58 1.47 1.41
0.52 0.58 0.49 0.41 0.44 0.50 0.53 0.57 0.83 0.94 0.83 0.71 0.54 0.71 0.64 0.46 0.43 0.41 0.45 0.53 0.60 0.70 0.82 0.94 1.05 1.16 1.20 1.32 1.36 1.31 1.27 1.25 1.17 1.12 1.14 1.14 1.18 1.23 1.25 1.27 1.23 1.16 1.11 1.08
0.38 0.45 0.37 0.33 0.32 0.37 0.45 0.44 0.46 0.64 0.62 0.66 0.60 0.70 0.64 0.44 0.42 0.40 0.42 0.52 0.66 0.83 1.07 1.25 1.25 1.16 1.08 1.13 1.20 1.16 1.10 1.04 0.95 0.89 0.92 0.93 0.99 1.01 0.98 0.96 0.90 0.90 0.84 0.84
0.30 0.42 0.41 0.37 0.35 0.35 0.35 0.38 0.48 0.71 0.83 0.85 0.72 0.78 0.73 0.55 0.49 0.46 0.50 0.62 0.78 0.94 1.15 1.42 1.53 1.41 1.15 0.98 1.01 0.97 0.93 0.94 0.92 0.87 0.89 0.88 0.80 0.73 0.72 0.74 0.68 0.67 0.72 0.75
0.22 0.35 0.39 0.38 0.37 0.37 0.35 0.40 0.50 0.66 0.67 0.89 1.14 1.13 0.84 0.73 0.66 0.65 0.69 0.75 0.82 1.06 1.36 1.48 1.50 1.37 1.19 0.93 0.86 0.84 0.82 0.84 0.88 0.82 0.85 0.86 0.75 0.61 0.57 0.54 0.50 0.51 0.55 0.59
0.18 0.31 0.35 0.32 0.29 0.26 0.32 0.40 0.54 0.82 0.83 0.79 1.00 1.04 0.67 0.70 0.81 0.76 0.82 0.91 0.93 1.00 1.03 1.01 1.10 1.11 1.04 0.91 0.84 0.90 0.94 0.93 0.84 0.77 0.77 0.78 0.71 0.60 0.60 0.53 0.45 0.47 0.53 0.55
0.17 0.28 0.38 0.38 0.37 0.32 0.43 0.48 0.43 0.58 0.75 0.78 0.94 0.98 0.60 0.59 0.71 0.74 0.83 0.89 0.89 0.86 0.76 0.68 0.77 0.91 0.86 0.79 0.82 0.91 1.05 1.05 0.97 0.85 0.77 0.78 0.74 0.71 0.72 0.61 0.51 0.49 0.56 0.67
0.13 0.23 0.28 0.34 0.33 0.38 0.64 0.72 0.51 0.59 0.79 0.67 0.65 0.73 0.56 0.53 0.62 0.68 0.76 0.80 0.76 0.68 0.59 0.53 0.51 0.55 0.56 0.56 0.59 0.72 0.98 1.17 1.15 1.04 0.93 0.86 0.81 0.78 0.75 0.63 0.55 0.51 0.55 0.60
0.15 0.18 0.15 0.14 0.16 0.22 0.43 0.48 0.40 0.40 0.40 0.46 0.42 0.45 0.54 0.60 0.63 0.65 0.66 0.58 0.49 0.43 0.39 0.34 0.32 0.33 0.35 0.39 0.46 0.57 0.85 1.07 1.09 1.08 0.96 0.85 0.77 0.70 0.65 0.64 0.64 0.58 0.52 0.52
0.13 0.16 0.13 0.12 0.12 0.14 0.17 0.13 0.12 0.15 0.20 0.28 0.32 0.42 0.46 0.49 0.51 0.55 0.56 0.42 0.37 0.32 0.31 0.31 0.28 0.26 0.22 0.22 0.29 0.37 0.56 0.74 0.84 0.90 0.86 0.73 0.71 0.64 0.56 0.58 0.66 0.65 0.53 0.47
0.15 0.17 0.20 0.16 0.11 0.14 0.13 0.08 0.13 0.16 0.18 0.22 0.33 0.45 0.50 0.52 0.58 0.88 0.91 0.60 0.41 0.37 0.33 0.35 0.34 0.31 0.28 0.25 0.25 0.28 0.33 0.44 0.53 0.58 0.60 0.51 0.51 0.61 0.63 0.65 0.63 0.56 0.45 0.45
0.13 0.18 0.25 0.20 0.18 0.21 0.13 0.07 0.13 0.16 0.16 0.16 0.18 0.21 0.27 0.39 0.53 0.70 0.79 0.64 0.46 0.43 0.36 0.33 0.30 0.27 0.25 0.23 0.23 0.24 0.25 0.28 0.31 0.30 0.29 0.26 0.34 0.48 0.50 0.47 0.44 0.39 0.38 0.42
0.10 0.17 0.26 0.23 0.32 0.26 0.09 0.06 0.08 0.10 0.09 0.07 0.08 0.09 0.11 0.15 0.17 0.18 0.23 0.27 0.24 0.20 0.17 0.14 0.12 0.12 0.11 0.11 0.12 0.12 0.10 0.11 0.12 0.12 0.12 0.14 0.16 0.19 0.20 0.18 0.20 0.27 0.33 0.38
0.08 0.13 0.23 0.25 0.30 0.24 0.10 0.05 0.05 0.09 0.13 0.06 0.04 0.04 0.05 0.08 0.13 0.12 0.17 0.12 0.06 0.05 0.05 0.06 0.08 0.09 0.09 0.08 0.09 0.08 0.08 0.08 0.09 0.10 0.11 0.12 0.12 0.14 0.14 0.15 0.16 0.19 0.23 0.28
0.13 0.16 0.18 0.20 0.28 0.16 0.06 0.05 0.06 0.13 0.13 0.05 0.04 0.03 0.03 0.04 0.06 0.06 0.12 0.10 0.03 0.05 0.06 0.07 0.07 0.08 0.08 0.08 0.09 0.08 0.07 0.09 0.12 0.13 0.12 0.11 0.11 0.13 0.18 0.23 0.21 0.20 0.20 0.21
0.14 0.19 0.15 0.16 0.21 0.17 0.06 0.05 0.09 0.09 0.06 0.05 0.05 0.04 0.03 0.04 0.04 0.04 0.07 0.08 0.04 0.05 0.06 0.08 0.08 0.08 0.09 0.09 0.09 0.09 0.08 0.11 0.14 0.13 0.13 0.12 0.13 0.15 0.18 0.27 0.28 0.24 0.23 0.20
0.12 0.16 0.17 0.15 0.14 0.09 0.06 0.06 0.07 0.07 0.05 0.04 0.05 0.05 0.03 0.03 0.03 0.03 0.05 0.10 0.06 0.05 0.05 0.07 0.09 0.10 0.10 0.11 0.11 0.11 0.12 0.13 0.14 0.14 0.13 0.14 0.15 0.18 0.19 0.22 0.24 0.26 0.24 0.25
0.09 0.08 0.13 0.13 0.09 0.06 0.07 0.08 0.07 0.05 0.04 0.04 0.05 0.06 0.06 0.05 0.05 0.05 0.06 0.10 0.09 0.07 0.05 0.05 0.06 0.09 0.13 0.15 0.16 0.17 0.18 0.19 0.18 0.17 0.17 0.16 0.17 0.20 0.23 0.26 0.27 0.29 0.30 0.31
0.07 0.08 0.10 0.12 0.09 0.07 0.08 0.09 0.10 0.07 0.05 0.05 0.06 0.07 0.07 0.09 0.09 0.07 0.06 0.07 0.08 0.10 0.09 0.06 0.06 0.07 0.11 0.14 0.17 0.19 0.20 0.21 0.23 0.22 0.22 0.22 0.22 0.22 0.26 0.31 0.33 0.31 0.32 0.34
0.05 0.08 0.11 0.11 0.08 0.08 0.08 0.08 0.10 0.11 0.09 0.07 0.05 0.06 0.07 0.08 0.08 0.07 0.07 0.07 0.07 0.07 0.08 0.08 0.08 0.08 0.08 0.09 0.10 0.13 0.15 0.17 0.19 0.24 0.24 0.22 0.25 0.29 0.30 0.30 0.29 0.31 0.31 0.34

GEFSCGP_prec_meanprecacc_246.txt.gz
Total_Precipitation_Accumulation
0.72 1.01 1.08 0.91 0.92 0.99 0.91 0.92 0.97 0.90 0.76 0.87 0.88 0.82 0.86 0.80 0.65 0.51 0.49 0.53 0.49 0.45 0.46 0.39 0.36 0.43 0.43 0.36 0.33 0.37 0.43 0.46 0.47 0.53 0.66 0.76 0.84 1.01 1.21 1.26 1.33 1.47 1.49 1.50
0.79 0.83 0.67 0.69 0.75 0.84 0.84 0.83 0.87 0.77 0.66 0.70 0.79 0.84 0.82 0.74 0.67 0.55 0.48 0.40 0.39 0.39 0.37 0.32 0.30 0.34 0.35 0.33 0.31 0.32 0.40 0.50 0.55 0.58 0.72 0.86 1.08 1.20 1.34 1.49 1.49 1.52 1.56 1.60
0.68 0.59 0.53 0.61 0.72 0.79 0.81 0.75 0.70 0.73 0.69 0.68 0.73 0.94 0.88 0.80 0.66 0.55 0.46 0.37 0.30 0.33 0.32 0.25 0.27 0.29 0.30 0.30 0.36 0.37 0.46 0.67 0.85 0.93 1.14 1.42 1.67 1.73 1.66 1.66 1.72 1.70 1.73 1.79
0.73 0.53 0.52 0.62 0.65 0.68 0.83 0.58 0.50 0.62 0.75 0.86 0.71 0.99 0.85 0.78 0.70 0.54 0.46 0.41 0.33 0.35 0.39 0.30 0.28 0.31 0.29 0.32 0.43 0.60 0.80 1.09 1.32 1.43 1.60 1.82 1.93 1.95 1.88 1.89 1.89 1.87 1.77 1.70
0.72 0.56 0.55 0.62 0.58 0.53 0.65 0.52 0.52 0.62 0.73 0.76 0.64 0.77 0.72 0.63 0.69 0.61 0.55 0.49 0.44 0.43 0.42 0.43 0.42 0.47 0.48 0.57 0.78 1.10 1.35 1.55 1.68 1.71 1.78 1.96 2.11 2.26 2.27 2.16 2.02 1.91 1.88 1.80
0.64 0.55 0.58 0.63 0.55 0.47 0.53 0.59 0.63 0.65 0.74 0.86 0.60 0.60 0.72 0.60 0.58 0.61 0.62 0.53 0.48 0.46 0.47 0.57 0.69 0.82 0.91 1.00 1.19 1.42 1.56 1.70 1.67 1.64 1.67 1.79 1.97 2.12 2.15 2.18 2.15 2.02 1.89 1.78
0.65 0.61 0.56 0.52 0.58 0.56 0.58 0.76 0.96 0.98 0.95 0.82 0.50 0.59 0.62 0.44 0.41 0.49 0.55 0.54 0.51 0.47 0.55 0.76 0.92 1.08 1.19 1.28 1.38 1.42 1.41 1.47 1.48 1.45 1.46 1.52 1.57 1.60 1.67 1.78 1.72 1.58 1.47 1.42
0.53 0.59 0.49 0.42 0.44 0.51 0.54 0.58 0.84 0.95 0.84 0.72 0.55 0.72 0.64 0.46 0.43 0.41 0.45 0.53 0.61 0.70 0.82 0.95 1.06 1.17 1.21 1.33 1.38 1.34 1.29 1.28 1.21 1.16 1.17 1.17 1.20 1.24 1.26 1.28 1.24 1.17 1.12 1.09
0.39 0.45 0.38 0.34 0.32 0.38 0.45 0.45 0.48 0.65 0.63 0.67 0.62 0.72 0.65 0.45 0.42 0.41 0.42 0.52 0.66 0.83 1.08 1.25 1.26 1.16 1.09 1.14 1.22 1.19 1.14 1.07 0.99 0.92 0.94 0.95 1.01 1.03 0.99 0.97 0.92 0.91 0.85 0.84
0.30 0.42 0.41 0.37 0.35 0.36 0.35 0.39 0.49 0.72 0.85 0.86 0.72 0.79 0.74 0.56 0.50 0.47 0.50 0.62 0.79 0.95 1.16 1.43 1.54 1.42 1.15 0.99 1.03 0.99 0.97 0.98 0.96 0.91 0.92 0.91 0.82 0.74 0.73 0.75 0.69 0.68 0.73 0.76
0.22 0.35 0.39 0.38 0.38 0.38 0.35 0.41 0.51 0.66 0.68 0.90 1.14 1.13 0.84 0.73 0.67 0.66 0.70 0.76 0.83 1.07 1.36 1.49 1.50 1.37 1.20 0.94 0.89 0.87 0.84 0.85 0.91 0.84 0.87 0.89 0.78 0.64 0.60 0.56 0.52 0.53 0.56 0.60
0.19 0.32 0.36 0.32 0.30 0.26 0.33 0.40 0.54 0.82 0.83 0.79 1.00 1.04 0.67 0.71 0.81 0.76 0.82 0.91 0.94 1.02 1.05 1.03 1.12 1.13 1.06 0.93 0.85 0.91 0.95 0.95 0.86 0.78 0.78 0.79 0.73 0.63 0.63 0.56 0.47 0.49 0.54 0.55
0.17 0.29 0.39 0.39 0.37 0.33 0.43 0.48 0.43 0.58 0.76 0.78 0.94 0.99 0.60 0.60 0.72 0.75 0.83 0.89 0.90 0.87 0.78 0.70 0.80 0.94 0.89 0.81 0.83 0.92 1.06 1.07 0.98 0.85 0.78 0.79 0.74 0.72 0.74 0.63 0.53 0.52 0.59 0.69
0.13 0.23 0.28 0.34 0.34 0.38 0.64 0.72 0.51 0.59 0.80 0.68 0.66 0.73 0.56 0.54 0.63 0.68 0.76 0.81 0.77 0.69 0.62 0.57 0.53 0.57 0.58 0.58 0.61 0.73 0.99 1.18 1.16 1.05 0.94 0.87 0.82 0.79 0.77 0.65 0.58 0.55 0.58 0.62
0.15 0.19 0.15 0.14 0.16 0.23 0.44 0.48 0.40 0.40 0.40 0.47 0.43 0.46 0.54 0.60 0.64 0.65 0.67 0.59 0.49 0.44 0.41 0.37 0.33 0.34 0.37 0.41 0.48 0.58 0.86 1.07 1.10 1.09 0.97 0.87 0.78 0.71 0.66 0.65 0.65 0.60 0.55 0.53
0.14 0.17 0.13 0.12 0.12 0.14 0.17 0.13 0.12 0.15 0.20 0.28 0.32 0.42 0.47 0.49 0.51 0.56 0.56 0.42 0.37 0.33 0.32 0.32 0.28 0.27 0.24 0.24 0.30 0.38 0.57 0.75 0.85 0.90 0.87 0.74 0.71 0.64 0.56 0.59 0.67 0.66 0.54 0.49
0.16 0.18 0.20 0.16 0.12 0.14 0.13 0.08 0.13 0.16 0.19 0.23 0.33 0.45 0.50 0.52 0.58 0.88 0.91 0.60 0.42 0.38 0.33 0.36 0.34 0.31 0.28 0.25 0.26 0.28 0.34 0.44 0.54 0.59 0.61 0.51 0.51 0.62 0.65 0.66 0.64 0.57 0.47 0.47
0.14 0.19 0.25 0.20 0.18 0.22 0.13 0.08 0.13 0.16 0.16 0.16 0.18 0.21 0.27 0.39 0.53 0.70 0.79 0.64 0.46 0.43 0.36 0.33 0.30 0.28 0.26 0.23 0.23 0.25 0.25 0.29 0.32 0.31 0.30 0.27 0.35 0.49 0.52 0.49 0.46 0.40 0.40 0.44
0.10 0.18 0.27 0.24 0.32 0.26 0.09 0.06 0.09 0.10 0.09 0.07 0.08 0.09 0.11 0.15 0.17 0.18 0.23 0.27 0.24 0.20 0.17 0.14 0.13 0.12 0.11 0.11 0.13 0.13 0.10 0.12 0.13 0.12 0.13 0.16 0.18 0.21 0.22 0.20 0.22 0.28 0.35 0.39
0.09 0.14 0.23 0.26 0.30 0.24 0.10 0.05 0.05 0.09 0.13 0.06 0.04 0.04 0.05 0.08 0.13 0.12 0.17 0.12 0.06 0.05 0.05 0.07 0.09 0.09 0.09 0.09 0.10 0.09 0.09 0.09 0.10 0.11 0.12 0.13 0.13 0.15 0.16 0.16 0.17 0.21 0.24 0.29
0.14 0.17 0.18 0.21 0.28 0.16 0.06 0.05 0.07 0.13 0.13 0.05 0.04 0.03 0.03 0.04 0.06 0.06 0.12 0.10 0.03 0.05 0.06 0.07 0.08 0.08 0.09 0.09 0.10 0.09 0.08 0.10 0.13 0.14 0.13 0.11 0.12 0.14 0.19 0.24 0.23 0.22 0.21 0.22
0.15 0.19 0.16 0.16 0.21 0.17 0.06 0.06 0.09 0.10 0.06 0.05 0.05 0.04 0.03 0.04 0.04 0.04 0.07 0.08 0.04 0.05 0.06 0.09 0.09 0.09 0.10 0.11 0.10 0.10 0.09 0.11 0.14 0.14 0.13 0.12 0.14 0.16 0.19 0.27 0.29 0.26 0.24 0.21
0.13 0.16 0.18 0.16 0.14 0.09 0.07 0.07 0.07 0.07 0.05 0.04 0.05 0.05 0.04 0.03 0.03 0.03 0.06 0.11 0.06 0.05 0.06 0.08 0.10 0.11 0.11 0.12 0.12 0.12 0.12 0.14 0.15 0.14 0.14 0.15 0.16 0.18 0.20 0.22 0.25 0.27 0.25 0.25
0.09 0.09 0.13 0.13 0.09 0.06 0.07 0.08 0.07 0.05 0.04 0.04 0.05 0.06 0.06 0.06 0.05 0.05 0.06 0.10 0.09 0.07 0.05 0.06 0.07 0.10 0.14 0.16 0.16 0.17 0.19 0.20 0.19 0.18 0.17 0.17 0.18 0.21 0.24 0.26 0.28 0.29 0.31 0.31
0.08 0.09 0.11 0.12 0.09 0.07 0.08 0.09 0.10 0.08 0.05 0.05 0.06 0.07 0.07 0.09 0.09 0.07 0.06 0.07 0.08 0.10 0.09 0.07 0.07 0.08 0.11 0.15 0.17 0.20 0.20 0.22 0.23 0.23 0.23 0.22 0.22 0.23 0.27 0.31 0.34 0.32 0.32 0.34
0.05 0.08 0.11 0.12 0.08 0.08 0.08 0.09 0.11 0.11 0.09 0.07 0.05 0.06 0.07 0.08 0.08 0.07 0.07 0.07 0.08 0.08 0.08 0.08 0.08 0.08 0.08 0.10 0.11 0.14 0.15 0.17 0.20 0.24 0.25 0.23 0.26 0.30 0.30 0.31 0.30 0.31 0.32 0.34